     2.10           OBSERVATION DATA    G (GPS)             RINEX VERSION / TYPE
teqc 2005May6 SOPAC 20050707 00:23:39UTC                    PGM / RUN BY / DATE
Linux 2.4.20-8|Pentium IV|gcc|Linux|486/DX+                 COMMENT
BIT 2 OF LLI FLAGS DATA COLLECTED UNDER A/S CONDITION       COMMENT
HPGN CA 02 12                                               MARKER NAME
0212                                                        MARKER NUMBER
Paul Dunham                                                 OBSERVER / AGENCY
0220223934 TRIMBLE 4700 1.30                                REC # / TYPE / VERS
0220203928 TRM33429.00+GP NONE                              ANT # / TYPE
 -2587321.0000 -4071476.0000  4159092.0000                  APPROX POSITION XYZ
        2.0000        0.0000        0.0000                  ANTENNA: DELTA H/E/N
     1     1                                                WAVELENGTH FACT L1/2
     6    L1    L2    C1    P2    P1    D1                  # / TYPES OF OBSERV
    15.0000                                                 INTERVAL
Northern California Height Modernization 2004               COMMENT
                                                            COMMENT
SOPAC - Scripps Orbit and Permanent Array Center            COMMENT
IGPP - Institute of Geophysics and Planetary Physics        COMMENT
SIO - Scripps Institution of Oceanography                   COMMENT
UCSD - University of California, San Diego                  COMMENT
                                                            COMMENT
email: archive@gpsmail.ucsd.edu                             COMMENT
ftp://garner.ucsd.edu                                       COMMENT
http://sopac.ucsd.edu                                       COMMENT
                                                            COMMENT
                                                            COMMENT
Approximate Lat, Lon : 40.957, -122.435                     COMMENT
                                                            COMMENT
SNR is mapped to RINEX snr flag value [0-9]                 COMMENT
L1 & L2: 2-19 dBHz = 1, 20-27 dBHz = 2, 28-31 dBHz = 3      COMMENT
32-35 dBHz = 4, 36-38 dBHz = 5, 39-41 dBHz = 6              COMMENT
42-44 dBHz = 7, 45-48 dBHz = 8, >= 49 dBHz = 9              COMMENT
  2004     9     7    20    55    0.0000000     GPS         TIME OF FIRST OBS
                                                            END OF HEADER
 04  9  7 20 55  0.0000000  0  6G 3G 8G13G16G23G27
    -53316.00058    -32848.15753  23447473.6724   23447472.2934
      1348.4844
    -98104.23758    -55954.10554  23403593.5634   23403591.7504
      2500.1564
    -10150.05659     -9740.45056  20351730.9454   20351726.3244
       261.7504
    128375.81758     64390.02153  23650364.1094   23650361.1134
     -3310.7504
     86308.33259     41935.55556  21258052.6884   21258047.2704
     -2226.3444
    -50272.95359    -30520.08756  21784648.3134   21784645.0704
      1270.7664
 04  9  7 20 55 15.0000000  0  6G 3G 8G13G16G23G27
    -73540.25948    -48607.29442  23443625.0944   23443623.9534
      1347.6094
   -135638.71248    -85201.75843  23396451.6884   23396449.2584
      2503.9534
    -14077.94949    -12801.16747  20350983.2274   20350978.9104
       261.4064
    178018.48948    103072.57243  23659810.6564   23659807.3874
     -3308.8284
    119698.00549     67953.44046  21264406.6414   21264400.9224
     -2226.1414
    -69362.16949    -45394.81346  21781015.8364   21781012.2704
      1274.0004
 04  9  7 20 55 30.0000000  0  6G 3G 8G13G16G23G27
    -93734.20848    -64342.85043  23439782.7504   23439781.4574
      1344.4694
   -173212.46548   -114479.99943  23389300.9454   23389299.4384
      2505.4064
    -17982.18449    -15843.45347  20350240.6414   20350235.7814
       258.6564
    227649.80748    141746.28342  23669255.3284   23669252.3794
     -3309.1254
    153102.21749     93982.64846  21270763.4144   21270757.3554
     -2228.2814
    -88482.37849    -60293.67946  21777377.1644   21777374.4384
      1274.9224
 04  9  7 20 55 45.0000000  0  6G 3G 8G13G16G23G27
   -113877.13046    -80038.63242  23435949.1334   23435947.5474
      1340.9844
   -210804.93048   -143772.82843  23382147.7974   23382145.9064
      2506.5314
    -21842.33849    -18851.37746  20349506.2424   20349501.3364
       255.6254
    277289.67747    180426.66043  23678701.4304   23678698.5904
     -3309.9374
    186541.18949    120038.95846  21277126.3914   21277121.1334
     -2230.7344
   -107613.27249    -75200.87646  21773736.6644   21773733.7424
      1275.4384
 04  9  7 20 56  0.0000000  0  6G 3G 8G13G16G23G27
   -133960.14147    -95687.73243  23432127.9384   23432126.5944
      1336.5634
   -248407.81048   -173073.74743  23374991.2814   23374990.4494
      2506.9384
    -25649.65949    -21818.13846  20348781.7974   20348776.8674
       251.7504
    326946.35048    219120.10843  23688151.2424   23688147.8874
     -3311.2974
    220023.39049    146128.95346  21283498.0704   21283492.1844
     -2233.8444
   -126746.46649    -90109.86146  21770096.0314   21770092.5394
      1275.3134
 04  9  7 20 56 15.0000000  0  6G 3G 8G13G16G23G27
   -153970.45248   -111280.16043  23428319.6884   23428318.6334
      1331.1094
   -286008.38748   -202372.87743  23367836.6644   23367835.3554
      2506.1884
    -29391.40049    -24733.79246  20348069.6024   20348064.5004
       246.8284
    376632.08547    257836.24742  23697605.4454   23697602.3594
     -3313.8124
    253561.26949    172262.34146  21289879.8594   21289874.1684
     -2238.2034
   -145869.23349   -105010.73046  21766457.1564   21766453.8014
      1274.0164
 04  9  7 20 56 30.0000000  0  6G 3G 8G13G16G23G27
   -173895.42948   -126806.12443  23424528.3754   23424526.9534
      1325.2194
   -323594.29148   -231660.61043  23360684.5004   23360682.1994
      2504.9534
    -33054.89349    -27588.47347  20347372.2274   20347367.6374
       241.3284
    426358.97448    296584.41742  23707068.2894   23707065.1334
     -3316.7504
    287167.19949    198448.73646  21296274.8524   21296269.8164
     -2243.0164
   -164969.26149   -119893.87846  21762822.0394   21762818.7934
      1272.2664
 04  9  7 20 56 45.0000000  0  6G 3G 8G13G16G23G27
   -193727.84148   -142259.92543  23420753.7814   23420752.8674
      1318.9844
   -361158.68048   -260931.54943  23353535.8674   23353533.7774
      2503.4694
    -36633.28849    -30376.85446  20346691.4694   20346687.0004
       235.6414
    476133.41348    335369.64742  23716540.6564   23716536.9494
     -3319.9534
    320847.88749    224693.41246  21302684.4224   21302678.9844
     -2247.8914
   -184039.68649   -134753.94246  21759193.1564   21759189.7194
      1270.2814
 04  9  7 20 57  0.0000000  0  6G 3G 8G13G16G23G27
   -213463.13947   -157638.06942  23416998.6024   23416996.8714
      1312.4694
   -398697.07848   -290182.23643  23346393.0234   23346390.5124
      2501.6564
    -40122.14049    -33095.45946  20346027.3524   20346022.8364
       229.5474
    525959.52748    374195.15442  23726021.8054   23726019.0594
     -3323.4844
    354607.63949    250999.67146  21309108.7664   21309102.6564
     -2253.3284
   -203076.40548   -149587.75746  21755570.9844   21755567.6684
      1267.9844
 04  9  7 20 57 15.0000000  0  6G 3G 8G13G16G23G27
   -233095.91946   -172936.31742  23413262.7584   23413261.0944
      1305.2034
   -436204.39548   -319408.71143  23339255.4224   23339253.1564
      2499.2504
    -43516.20549    -35740.20046  20345381.8364   20345377.4734
       222.8284
    575842.09547    413064.65142  23735513.6094   23735511.3914
     -3327.5944
    388451.60949    277371.57046  21315548.9304   21315543.3134
     -2259.3124
   -222074.15748   -164391.19946  21751955.6564   21751952.0784
      1264.9534
 04  9  7 20 57 30.0000000  0  6G 3G 8G13G16G23G27
   -252623.86646   -188152.89842  23409546.4534   23409545.2034
      1298.3134
   -473678.43248   -348609.23643  23332124.5554   23332122.7894
      2497.0314
    -46813.25949    -38309.33546  20344754.5004   20344749.8554
       216.4224
    625782.65947    451979.35242  23745017.9454   23745014.6334
     -3331.4224
    422381.69349    303810.56846  21322005.7734   21322000.1374
     -2265.0314
   -241031.02348   -179162.78546  21748348.4614   21748344.7424
      1262.3134
 04  9  7 20 57 45.0000000  0  6G 3G 8G13G16G23G27
   -272045.11848   -203286.32642  23405851.2814   23405848.6684
      1291.1254
   -511117.68548   -377782.67243  23324999.6804   23324997.4534
      2494.6414
    -50011.59748    -40801.55946  20344145.7734   20344141.2854
       209.7974
    675782.53647    490940.26243  23754532.4224   23754529.0474
     -3335.3444
    456399.25649    330317.71646  21328479.2734   21328473.4964
     -2270.8444
   -259945.42948   -193901.27346  21744748.8674   21744745.5864
      1259.3914
 04  9  7 20 58  0.0000000  0  6G 3G 8G13G16G23G27
   -291357.95848   -218335.28543  23402176.3754   23402173.5664
      1283.4064
   -548520.59848   -406927.79943  23317882.1644   23317880.3324
      2491.7504
    -53109.61249    -43215.60346  20343556.2034   20343551.6764
       202.6254
    725842.97147    529948.37343  23764058.2584   23764055.9264
     -3339.9694
    490505.75849    356894.19946  21334969.2814   21334963.4494
     -2277.2664
   -278815.94949   -208605.57346  21741158.0234   21741154.5864
      1256.0314
 04  9  7 20 58 15.0000000  0  6G 3G 8G13G16G23G27
   -310559.13248   -233297.20043  23398521.8444   23398520.2974
      1276.4384
   -585884.08048   -436042.18143  23310771.6804   23310770.4774
      2489.6884
    -56104.19249    -45549.05546  20342986.4224   20342981.4304
       196.2504
    775966.49047    569005.58842  23773596.6954   23773593.9654
     -3343.5164
    524704.03949    383542.18646  21341476.9614   21341471.6604
     -2282.8124
   -297639.66548   -223273.39446  21737575.7344   21737572.6884
      1253.4384
 04  9  7 20 58 30.0000000  0  6G 3G 8G13G16G23G27
   -329646.74348   -248170.65443  23394889.6254   23394887.8754
      1268.7034
   -623206.50748   -465124.60543  23303670.7344   23303667.9184
      2486.7504
    -58993.62049    -47800.57146  20342436.7274   20342431.6764
       189.1254
    826154.45147    608113.06242  23783146.3674   23783144.1844
     -3347.9844
    558995.84749    410263.02646  21348002.6174   21347996.7384
     -2289.2504
   -316414.84649   -237903.40246  21734003.2894   21733999.7304
      1250.0634
 04  9  7 20 58 45.0000000  0  6G 3G 8G13G16G23G27
   -348620.82348   -262955.64143  23391278.4924   23391276.9884
      1261.0474
   -660488.29948   -494175.31443  23296575.4144   23296573.4734
      2484.0784
    -61777.94149    -49970.17047  20341906.8284   20341902.0984
       182.0634
    876406.16947    647270.20342  23792709.9534   23792707.0044
     -3352.2814
    593380.68449    437056.38946  21354546.0634   21354540.0704
     -2295.4374
   -335141.92349   -252495.94146  21730439.2034   21730436.1214
      1246.7814
 04  9  7 20 59  0.0000000  0  6G 3G 8G13G16G23G27
   -367479.26248   -277650.52043  23387689.9064   23387688.8634
      1253.4694
   -697727.56448   -523192.88643  23289489.6334   23289486.7894
      2481.3284
    -64455.34249    -52056.47447  20341397.3364   20341392.7774
       175.0944
    926723.05647    686478.15142  23802284.3834   23802281.9774
     -3356.4064
    627860.10749    463923.44046  21361107.1564   21361101.2034
     -2301.6254
   -353819.22249   -267049.66146  21726885.7584   21726881.7194
      1243.6724
 04  9  7 20 59 15.0000000  0  6G 3G 8G13G16G23G27
   -386223.17948   -292256.11343  23384122.9774   23384122.2034
      1245.4694
   -734925.57148   -552178.35443  23282410.5704   23282408.9024
      2478.2814
    -67027.17949    -54060.51947  20340907.6724   20340903.6724
       167.7344
    977103.37747    725735.50842  23811871.8284   23811869.1884
     -3361.1094
    662432.83449    490863.20546  21367686.4614   21367680.6764
     -2308.1094
   -372448.02349   -281565.61046  21723340.3914   21723336.8634
      1240.0944
 04  9  7 20 59 30.0000000  0  6G 3G 8G13G16G23G27
   -404849.68748   -306770.25243  23380579.1414   23380577.5664
      1237.7344
   -772080.01048   -581129.84743  23275340.2034   23275338.6294
      2475.4224
    -69490.55649    -55980.04247  20340438.9064   20340434.4104
       160.4534
   1027549.40847    765044.05942  23821470.8054   23821467.9774
     -3365.3754
    697101.34149    517877.59146  21374283.1484   21374277.2464
     -2314.5004
   -391025.86549   -296041.85546  21719805.0164   21719801.7194
      1236.6724
 04  9  7 20 59 45.0000000  0  6G 3G 8G13G16G23G27
   -423357.41748   -321191.82743  23377057.2664   23377055.6174
      1230.0944
   -809189.66448   -610046.45143  23268278.1334   23268276.9694
      2472.7034
    -71844.60649    -57814.36946  20339991.0944   20339986.7154
       153.4694
   1078061.94646    804404.45742  23831083.7504   23831080.9024
     -3369.4534
    731866.60049    544967.38046  21380899.1094   21380892.8364
     -2320.6874
   -409551.68649   -310477.55746  21716279.8914   21716276.1564
      1233.5784
 04  9  7 21  0  0.0000000  0  6G 3G 8G13G16G23G27
   -441747.59348   -335521.81643  23373557.6644   23373556.2504
      1222.0634
   -846255.65148   -638929.00443  23261224.8364   23261223.8444
      2469.5784
    -74090.14049    -59564.14647  20339563.4694   20339559.4344
       146.0004
   1128639.12146    843815.15342  23840707.5944   23840705.3204
     -3373.8754
    766727.07749    572131.36346  21387532.4144   21387526.4924
     -2327.2814
   -428026.98949   -324873.89446  21712763.9144   21712760.4574
      1229.9844
 04  9  7 21  0 15.0000000  0  6G 3G 8G13G16G23G27
   -460021.60848   -349761.30243  23370079.7194   23370078.4454
      1214.4224
   -883279.65148   -667778.85644  23254179.6024   23254177.8324
      2466.9384
    -76228.86049    -61230.69446  20339156.6804   20339152.2704
       139.0944
   1179279.00947    883274.81442  23850344.7504   23850342.2464
     -3377.9534
    801681.05749    599368.20446  21394184.2814   21394178.3634
     -2333.2814
   -446453.40849   -339232.13746  21709257.3754   21709253.9064
      1226.8754
 04  9  7 21  0 30.0000000  0  6G 3G 8G13G16G23G27
   -478176.95947   -363908.29643  23366624.7734   23366624.2154
      1206.3134
   -920259.31648   -696594.18043  23247142.5004   23247140.6214
      2463.7814
    -78258.40449    -62812.16346  20338770.5864   20338765.9344
       131.6564
   1229983.47346    922784.72142  23859993.4384   23859990.5904
     -3382.5164
    836730.64449    626679.53546  21400853.8444   21400848.4574
     -2339.8754
   -464828.73749   -353550.56246  21705760.9614   21705756.9654
      1223.3284
 04  9  7 21  0 45.0000000  0  6G 3G 8G13G16G23G27
   -496211.07648   -377960.81943  23363192.9774   23363192.0354
      1198.0004
   -957192.58448   -725373.31344  23240113.9384   23240113.3134
      2460.5314
    -80176.38849    -64306.71047  20338405.4144   20338400.5554
       123.9064
   1280754.48647    962346.51642  23869655.2034   23869652.4844
     -3387.1254
    871878.03149    654067.08146  21407542.3134   21407536.9534
     -2346.6724
   -483150.65449   -367827.38946  21702274.6334   21702270.9454
      1219.4384
 04  9  7 21  1  0.0000000  0  6G 3G 8G13G16G23G27
   -514124.56847   -391919.36043  23359784.4924   23359783.1644
      1190.2194
   -994080.48948   -754117.12243  23233095.2194   23233093.0124
      2457.6094
    -81983.53749    -65714.88247  20338061.9454   20338056.9414
       116.7664
   1331590.86646   1001959.24942  23879329.5314   23879326.0554
     -3391.2814
    907122.40849    681530.20946  21414249.4224   21414243.1564
     -2352.8914
   -501420.19849   -382063.38146  21698797.3134   21698793.8164
      1216.2344
 04  9  7 21  1 15.0000000  0  6G 3G 8G13G16G23G27
   -531913.63748   -405780.94043  23356399.0314   23356397.8714
      1181.7664
  -1030919.20448   -782822.62443  23226084.3674   23226082.7814
      2454.3594
    -83676.14749    -67033.80947  20337739.5394   20337735.2464
       109.0474
   1382495.77247   1041625.36842  23889015.3674   23889012.5004
     -3395.9534
    942467.10249    709071.49746  21420975.0004   21420969.5824
     -2359.6724
   -519633.86349   -396255.85546  21695331.9924   21695328.2544
      1212.3754
 04  9  7 21  1 30.0000000  0  6G 3G 8G13G16G23G27
   -549582.54447   -419548.91743  23353036.7664   23353035.8754
      1174.0474
  -1067713.14148   -811493.18644  23219083.1254   23219080.5744
      2451.5784
    -85258.61149    -68266.90147  20337438.4614   20337433.8524
       101.9694
   1433464.43147   1081341.20842  23898714.4844   23898711.3954
     -3399.9224
    977907.48249    736687.35047  21427719.0234   21427713.5904
     -2365.7194
   -537796.05649   -410408.19747  21691875.8984   21691872.2344
      1209.2504
 04  9  7 21  1 45.0000000  0  6G 3G 8G13G16G23G27
   -567131.97946   -433223.77243  23349697.9774   23349695.9264
      1165.8444
  -1104463.43548   -840129.76644  23212089.4454   23212087.7234
      2448.3754
    -86731.82849    -69414.86747  20337158.4224   20337153.4104
        94.4534
   1484495.37947   1121105.54242  23908425.4534   23908422.6414
     -3404.2664
   1013442.50149    764376.95847  21434481.2974   21434475.4384
     -2372.2344
   -555907.90849   -424521.32347  21688428.6804   21688425.4264
      1205.6724
 04  9  7 21  2  0.0000000  0  6G 3G 8G13G16G23G27
   -584561.51446   -446805.18243  23346381.1174   23346378.9414
      1157.7664
  -1141169.86848   -868732.16144  23205104.6724   23205102.7154
      2445.4694
    -88095.56949    -70477.52847  20336898.7664   20336893.6054
        87.1094
   1535588.48047   1160918.31642  23918148.0004   23918146.0394
     -3408.4694
   1049072.21449    792140.34147  21441261.6094   21441255.8594
     -2378.6724
   -573969.24549   -438595.08047  21684992.0944   21684989.0904
      1202.2194
 04  9  7 21  2 15.0000000  0  6G 3G 8G13G16G23G27
   -601867.20747   -460290.11143  23343087.3834   23343085.7074
      1150.0314
  -1177828.53048   -897297.33944  23198128.7664   23198126.9344
      2442.7034
    -89345.77649    -71451.71947  20336660.4304   20336655.7814
        80.0474
   1586747.19447   1200782.22342  23927883.4384   23927880.0354
     -3412.3284
   1084800.30349    819980.39047  21448060.5784   21448054.5084
     -2384.6724
   -591976.30349   -452626.54547  21681565.6484   21681561.9654
      1199.1414
 04  9  7 21  2 30.0000000  0  6G 3G 8G13G16G23G27
   -619051.21048   -473680.21043  23339818.4614   23339815.5124
      1141.2814
  -1214441.66048   -925827.05044  23191161.0784   23191159.2774
      2439.1414
    -90484.90849    -72339.36447  20336443.9144   20336439.2384
        71.9384
   1637968.69346   1240695.05042  23937630.6484   23937627.8364
     -3417.1414
   1120624.25949    847895.13547  21454877.5864   21454871.7814
     -2391.6874
   -609931.73449   -466617.78747  21678148.6564   21678145.1684
      1195.0474
 04  9  7 21  2 45.0000000  0  6G 3G 8G13G16G23G27
   -636109.64448   -486972.46943  23336571.2504   23336569.1994
      1133.3134
  -1251005.92748   -954318.65144  23184203.3594   23184201.5044
      2436.2034
    -91509.22849    -73137.54847  20336249.0164   20336244.3204
        64.6884
   1689256.35747   1280659.39642  23947390.5314   23947386.8364
     -3421.1414
   1156547.63249    875887.34447  21461713.2194   21461707.9694
     -2398.0314
   -627831.85149   -480565.92347  21674742.2424   21674738.8524
      1191.7034
 04  9  7 21  3  0.0000000  0  6G 3G 8G13G16G23G27
   -653049.09948   -500172.03843  23333348.2734   23333345.9144
      1124.9694
  -1287528.15048   -982777.52544  23177253.2194   23177251.1214
      2433.0314
    -92425.54049    -73851.55947  20336074.7114   20336070.4414
        57.1414
   1740602.81446   1320669.63242  23957160.9534   23957158.3634
     -3425.3284
   1192563.25249    903951.44547  21468566.9774   21468560.9264
     -2404.4374
   -645683.65949   -494476.42047  21671345.1334   21671341.9734
      1188.1884
 04  9  7 21  3 15.0000000  0  6G 3G 8G13G16G23G27
   -669862.28346   -513273.20743  23330148.7664   23330146.3444
      1116.5474
  -1324001.39048  -1011198.21044  23170312.1884   23170310.9384
      2429.7664
    -93226.56049    -74475.74547  20335922.2034   20335917.6844
        49.4384
   1792014.89546   1360730.90942  23966944.9924   23966941.4454
     -3429.7664
   1228678.24049    932092.96347  21475439.7814   21475433.5784
     -2411.1094
   -663479.95749   -508343.65747  21667958.6644   21667955.3914
      1184.4534
 04  9  7 21  3 30.0000000  0  6G 3G 8G13G16G23G27
   -686551.69947   -526277.91443  23326971.9924   23326970.0354
      1108.6724
  -1360428.22348  -1039582.73244  23163380.6334   23163378.9414
      2427.0944
    -93914.98449    -75012.18447  20335791.2344   20335786.5394
        42.3444
   1843489.47246   1400840.97242  23976739.7974   23976736.5784
     -3433.4374
   1264889.73749    960309.68347  21482330.1024   21482324.3014
     -2417.1724
   -681223.63949   -522169.88747  21664582.2664   21664578.7114
      1181.3134
 04  9  7 21  3 45.0000000  0  6G 3G 8G13G16G23G27
   -703115.17748   -539184.49143  23323820.0164   23323818.6024
      1100.4224
  -1396806.68548  -1067929.57444  23156457.9614   23156456.4574
      2423.9694
    -94488.71049    -75459.24447  20335681.9384   20335677.3714
        34.7664
   1895028.15047   1441000.93842  23986547.3674   23986544.1884
     -3437.8124
   1301199.51549    988602.99047  21489239.9224   21489233.7734
     -2423.6094
   -698912.81349   -535953.65347  21661215.8674   21661212.7704
      1177.7974
 04  9  7 21  4  0.0000000  0  6G 3G 8G13G16G23G27
   -719553.96948   -551993.93543  23320692.5944   23320690.3244
      1091.8594
  -1433138.11848  -1096239.78044  23149544.6804   23149542.9224
      2420.5944
    -94949.13749    -75818.02847  20335594.3054   20335589.7344
        27.0164
   1946629.05447   1481209.37342  23996366.5474   23996363.7854
     -3442.1094
   1337605.97749   1016971.62747  21496167.4774   21496161.3054
     -2430.2814
   -716548.94449   -549696.09047  21657860.0394   21657855.9264
      1174.0944
 04  9  7 21  4 15.0000000  0  6G 3G 8G13G16G23G27
   -735869.14148   -564707.01543  23317587.0234   23317585.3554
      1083.6254
  -1469423.72248  -1124514.24744  23142639.8134   23142637.5634
      2417.6094
    -95297.35249    -76089.36847  20335528.0474   20335523.3444
        19.4694
   1998290.60146   1521465.11742  24006197.3914   24006194.9264
     -3446.0784
   1374107.83049   1045414.60747  21503113.6094   21503107.8714
     -2436.6094
   -734133.42049   -563398.26247  21654513.4454   21654510.6644
      1170.5944
 04  9  7 21  4 30.0000000  0  6G 3G 8G13G16G23G27
   -752059.07448   -577322.54643  23314506.8834   23314504.3014
      1075.1724
  -1505662.30348  -1152752.08244  23135744.1884   23135742.1174
      2414.4534
    -95531.94549    -76272.16547  20335483.5944   20335478.8324
        11.9064
   2050013.78446   1561768.87042  24016040.0234   24016037.4104
     -3450.1414
   1410706.23749   1073932.81047  21510077.8364   21510072.5474
     -2443.0164
   -751664.92249   -577059.16947  21651177.5634   21651174.1054
      1167.0314
 04  9  7 21  4 45.0000000  0  6G 3G 8G13G16G23G27
   -768123.30548   -589840.11043  23311449.5004   23311448.0164
      1066.5784
  -1541853.60548  -1180953.06844  23128856.8834   23128854.6884
      2411.0474
    -95652.57749    -76366.17847  20335460.7504   20335455.9804
         4.0004
   2101798.44646   1602120.50842  24025895.5474   24025891.7704
     -3454.4844
   1447401.41649   1102526.42447  21517061.2114   21517055.6764
     -2449.7664
   -769143.30149   -590678.67747  21647851.5944   21647848.4304
      1163.2664
 04  9  7 21  5  0.0000000  0  6G 3G 8G13G16G23G27
   -784062.74448   -602260.43743  23308416.7584   23308414.3914
      1058.6094
  -1577998.91248  -1209118.23844  23121978.7194   23121976.4184
      2408.2344
    -95660.38949    -76372.25647  20335458.9924   20335454.6134
        -3.1724
   2153643.12347   1642518.91442  24035760.5394   24035757.8794
     -3458.2034
   1484191.97249   1131194.35647  21524062.3524   21524056.0514
     -2455.7344
   -786569.69849   -604257.68647  21644535.2034   21644532.1094
      1160.0944
 04  9  7 21  5 15.0000000  0  6G 3G 8G13G16G23G27
   -799878.31547   -614584.24843  23305406.4694   23305405.2814
      1050.4064
  -1614098.97548  -1237248.13344  23115108.9534   23115107.3324
      2405.3444
    -95556.37349    -76291.22647  20335478.8984   20335474.7304
       -10.5314
   2205546.39246   1682963.02942  24045637.7344   24045634.1524
     -3462.2034
   1521076.69549   1159935.67247  21531081.4844   21531075.3444
     -2461.8444
   -803945.28249   -617797.09447  21641228.9614   21641225.9264
      1156.8594
 04  9  7 21  5 30.0000000  0  6G 3G 8G13G16G23G27
   -815565.28447   -626807.83143  23302421.8204   23302419.8754
      1041.4534
  -1650149.61448  -1265339.50744  23108248.3134   23108246.5044
      2401.6724
    -95335.91549    -76119.43847  20335520.9774   20335516.5004
       -18.5784
   2257512.38546   1723455.97242  24055526.8754   24055522.7544
     -3466.5004
   1558060.05249   1188753.84347  21538119.0004   21538112.8634
     -2468.9064
   -821265.65349   -631293.48747  21637933.1024   21637929.8524
      1152.7974
 04  9  7 21  5 45.0000000  0  6G 3G 8G13G16G23G27
   -831126.56247   -638933.48643  23299461.0394   23299458.1684
      1033.3284
  -1686153.88848  -1293394.78844  23101397.2424   23101394.7234
      2398.8914
    -95001.94149    -75859.20547  20335583.8134   20335580.2704
       -25.9064
   2309537.47546   1763994.97642  24065426.1334   24065423.3794
     -3470.0944
   1595138.77749   1217646.33447  21545174.5314   21545168.7194
     -2475.0314
   -838533.91749   -644749.26747  21634646.8984   21634643.8524
      1149.5784
 04  9  7 21  6  0.0000000  0  6G 3G 8G13G16G23G27
   -846562.43648   -650961.44143  23296523.4454   23296521.3204
      1025.0314
  -1722112.40448  -1321414.40344  23094554.0784   23094552.2344
      2395.9064
    -94555.06549    -75510.98247  20335669.2734   20335665.0084
       -33.3444
   2361620.88747   1804579.41042  24075337.2664   24075334.1994
     -3473.9534
   1632312.02249   1246612.48347  21552248.6884   21552242.8794
     -2481.1414
   -855750.85149   -658165.05747  21631370.7504   21631367.6294
      1146.2974
 04  9  7 21  6 15.0000000  0  6G 3G 8G13G16G23G27
   -861873.30247   -662891.96143  23293610.1334   23293607.5554
      1016.3444
  -1758025.78648  -1349398.82844  23087720.6024   23087718.0864
      2392.5944
    -93995.81849    -75075.21947  20335775.6564   20335771.5044
       -41.2034
   2413761.55047   1845208.44242  24085258.5314   24085255.8364
     -3478.1724
   1669579.24349   1275651.83647  21559340.2504   21559334.5164
     -2487.7974
   -872917.03849   -671541.30547  21628103.8054   21628100.5784
      1142.4844
 04  9  7 21  6 30.0000000  0  6G 3G 8G13G16G23G27
   -877058.23547   -674724.36144  23290720.4844   23290718.0124
      1008.1564
  -1793893.21748  -1377347.45544  23080895.1254   23080893.3674
      2389.6414
    -93323.34049    -74551.20547  20335903.8134   20335899.0514
       -48.5624
   2465959.85247   1885882.44642  24095192.9384   24095189.2034
     -3481.8444
   1706940.95549   1304764.82947  21566449.7274   21566444.2234
     -2493.9224
   -890031.81249   -684877.47747  21624847.4064   21624844.0394
      1139.2814
 04  9  7 21  6 45.0000000  0  6G 3G 8G13G16G23G27
   -892114.76348   -686456.72343  23287854.8364   23287852.6804
       999.8284
  -1829712.49648  -1405258.58044  23074078.9924   23074076.9574
      2386.6884
    -92535.32749    -73937.17047  20336053.7114   20336049.7154
       -56.0164
   2518217.66046   1926602.77042  24105136.5634   24105133.3754
     -3485.5164
   1744399.31549   1333953.14747  21573578.1804   21573572.2154
     -2500.1564
   -907092.95349   -698171.86847  21621600.6414   21621597.2854
      1135.9224
 04  9  7 21  7  0.0000000  0  6G 3G 8G13G16G23G27
   -907045.28347   -698090.87943  23285013.5004   23285011.1804
       990.8444
  -1865486.19148  -1433134.16444  23067271.4384   23067268.9344
      2383.1414
    -91634.19449    -73235.00247  20336225.1174   20336220.7194
       -64.0624
   2570532.09546   1967367.23542  24115092.6484   24115089.0394
     -3489.6874
   1781951.46749   1363214.52047  21580723.6334   21580718.2304
     -2506.8284
   -924103.15049   -711426.56747  21618363.7034   21618360.1454
      1132.0634
 04  9  7 21  7 15.0000000  0  6G 3G 8G13G16G23G27
   -921845.64147   -709623.62943  23282197.2664   23282195.3914
       982.5164
  -1901210.20448  -1460971.04244  23060473.2034   23060471.1454
      2380.0784
    -90615.86949    -72441.49847  20336418.7424   20336414.1374
       -71.6724
   2622906.79146   2008178.68142  24125058.5314   24125055.4844
     -3493.5784
   1819601.40149   1392552.11447  21587888.2814   21587882.6954
     -2513.1724
   -941058.46249   -724638.48647  21615137.0394   21615133.7114
      1128.6564
 04  9  7 21  7 30.0000000  0  6G 3G 8G13G16G23G27
   -936519.84848   -721058.05043  23279405.3054   23279402.9224
       974.0784
  -1936888.73848  -1488772.49544  23053684.2584   23053682.0274
      2377.0314
    -89484.54349    -71559.94847  20336634.1884   20336629.8324
       -79.0944
   2675337.06047   2049033.43642  24135035.5234   24135032.2424
     -3497.1094
   1857344.66949   1421962.41947  21595070.8364   21595064.9844
     -2519.2194
   -957963.26149   -737811.06047  21611919.9844   21611916.4064
      1125.3914
 04  9  7 21  7 45.0000000  0  6G 3G 8G13G16G23G27
   -951066.24447   -732392.89843  23276636.7664   23276634.7584
       965.4384
  -1972520.42748  -1516537.44544  23046903.2664   23046901.7704
      2373.8444
    -88238.54849    -70589.04347  20336871.2504   20336866.6684
       -86.8594
   2727824.09747   2089932.38042  24145024.3754   24145020.4884
     -3501.0784
   1895182.72449   1451446.60446  21602271.4304   21602265.4104
     -2525.7194
   -974815.98549   -750943.04247  21608713.5474   21608710.1564
      1121.7974
 04  9  7 21  8  0.0000000  0  6G 3G 8G13G16G23G27
   -965483.95347   -743627.46743  23273893.0944   23273891.4454
       957.0634
  -2008104.54948  -1544265.31144  23040132.0004   23040130.0744
      2370.9224
    -86877.27049    -69528.31347  20337130.4144   20337125.6644
       -94.3444
   2780368.12646   2130875.76642  24155022.6024   24155019.5514
     -3504.5004
   1933115.87549   1481004.87147  21609489.8984   21609483.8984
     -2531.8284
   -991616.08649   -764034.01947  21605516.2814   21605512.7344
      1118.4844
 04  9  7 21  8 15.0000000  0  6G 3G 8G13G16G23G27
   -979774.16847   -754762.69543  23271173.8834   23271171.6884
       948.0944
  -2043642.64348  -1571957.30844  23033369.3204   23033367.0474
      2367.3444
    -85402.12849    -68378.85847  20337411.2814   20337406.8524
      -102.4064
   2832967.40447   2171862.19742  24165032.7814   24165028.8954
     -3508.7194
   1971142.65149   1510636.09647  21616725.7504   21616720.1254
     -2538.5474
  -1008365.14849   -777085.23447  21602329.2504   21602325.4774
      1114.5784
 04  9  7 21  8 30.0000000  0  7G19G 3G 8G13G16G23G27
    -82567.63456    -53461.67452  24311609.5084   24311605.6764
      2458.5164
   -993935.01247   -765797.10943  23268478.6174   23268476.7584
       939.8594
  -2079133.04248  -1599612.15144  23026615.7814   23026613.5784
      2364.4224
    -83811.19749    -67139.17947  20337714.2274   20337709.3634
      -109.9064
   2885623.33347   2212892.76342  24175052.9064   24175049.3014
     -3512.3124
   2009264.73349   1540341.58647  21623980.7504   21623974.7194
     -2544.6414
  -1025061.33949   -790095.24747  21599151.8054   21599148.4144
      1111.2814
 04  9  7 21  8 45.0000000  0  7G19G 3G 8G13G16G23G27
   -119426.51446    -82182.84143  24304594.9384   24304591.6724
      2455.7974
  -1007968.70447   -776732.45043  23265809.0394   23265806.9224
       931.2194
  -2114577.96248  -1627231.55344  23019870.8134   23019868.4844
      2361.3754
    -82106.79649    -65811.08147  20338038.5864   20338033.7234
      -117.5004
   2938332.98946   2253965.18542  24185082.6954   24185079.9734
     -3515.8124
   2047479.52749   1570119.32447  21631252.7894   21631246.8754
     -2550.7974
  -1041707.28449   -803066.10747  21595983.9614   21595980.9024
      1107.9844
 04  9  7 21  9  0.0000000  0  7G19G 3G 8G13G16G23G27
   -156242.14446   -110870.29243  24297589.7974   24297586.9494
      2452.8444
  -1021874.99247   -787568.49943  23263162.7664   23263160.4924
       922.6884
  -2149977.61548  -1654815.68444  23013134.4144   23013131.8204
      2358.2504
    -80288.77449    -64394.44347  20338384.2814   20338379.8634
      -125.1724
   2991096.17647   2295079.30842  24195122.8364   24195120.3244
     -3519.6094
   2085786.95449   1599969.24247  21638542.2274   21638536.3204
     -2557.0624
  -1058302.90149   -815997.75247  21592826.4144   21592823.1174
      1104.5314
 04  9  7 21  9 15.0000000  0  7G19G 3G 8G13G16G23G27
   -193012.96946   -139522.77943  24290592.7664   24290589.4494
      2450.0314
  -1035652.31547   -798304.05543  23260540.7584   23260538.8164
       914.2194
  -2185330.31748  -1682363.21644  23006407.0004   23006404.2274
      2355.3444
    -78355.84449    -62888.26447  20338752.2274   20338747.5084
      -132.5944
   3043913.77746   2336235.80942  24205174.2814   24205171.7344
     -3523.0004
   2124188.06749   1629892.16047  21645849.8524   21645843.9494
     -2563.0944
  -1074846.93949   -828889.19547  21589678.2344   21589674.7424
      1101.3444
 04  9  7 21  9 30.0000000  0  7G19G 3G 8G13G16G23G27
   -229738.39546   -168139.95342  24283603.4304   24283600.5664
      2446.9224
  -1049300.40947   -808938.93643  23257944.0554   23257941.7894
       905.6564
  -2220636.31748  -1709874.37444  22999688.4304   22999685.9064
      2352.2344
    -76307.71949    -61292.33847  20339141.8914   20339137.1644
      -140.2814
   3096785.73246   2377434.70542  24215235.3674   24215232.7734
     -3526.5474
   2162683.01449   1659888.19146  21653175.0084   21653169.4494
     -2569.4064
  -1091339.40449   -841740.46247  21586539.5234   21586536.2464
      1097.8444
 04  9  7 21  9 45.0000000  0  7G19G 3G 8G13G16G23G27
   -266415.17446   -196719.20243  24276625.1414   24276621.4414
      2443.4064
  -1062815.90447   -819470.46343  23255372.0084   23255369.1914
       896.5004
  -2255892.51248  -1737346.71144  22992979.1884   22992977.4064
      2348.6884
    -74141.26749    -59604.18947  20339554.2274   20339549.7584
      -148.4374
   3149714.69546   2418678.03742  24225308.1024   24225304.3204
     -3530.5004
   2201274.71549   1689959.62447  21660519.2194   21660513.3204
     -2576.0004
  -1107777.24749   -854549.17147  21583411.7504   21583407.9414
      1094.0314
 04  9  7 21 10  0.0000000  0  7G19G 3G 8G13G16G23G27
   -303048.92246   -225264.93543  24269653.3364   24269650.1524
      2440.4064
  -1076204.64548   -829903.22843  23252824.6174   23252821.8244
       887.9694
  -2291104.69348  -1764784.75744  22986278.8834   22986276.5864
      2345.6094
    -71862.46749    -57828.50747  20339987.8594   20339983.4304
      -156.0474
   3202694.22446   2459960.72042  24235388.2974   24235386.0514
     -3534.0164
   2239956.96949   1720101.61847  21667879.6724   21667874.4804
     -2582.2344
  -1124166.55749   -867320.04647  21580292.6174   21580289.6804
      1090.6724
 04  9  7 21 10 15.0000000  0  7G19G 3G 8G13G16G23G27
   -339634.75346   -253773.32743  24262690.7504   24262688.2894
      2437.4844
  -1089461.87047   -840233.52643  23250301.1334   23250298.8204
       879.5004
  -2326268.42848  -1792185.05344  22979587.1884   22979585.1454
      2342.6254
    -69466.58049    -55961.59147  20340443.7664   20340439.4574
      -163.6414
   3255728.59647   2501286.18642  24245480.9454   24245478.5124
     -3537.3914
   2278734.29849   1750317.69847  21675259.1334   21675253.3014
     -2588.2664
  -1140502.73649   -880049.54447  21577184.3134   21577180.9774
      1087.3134
 04  9  7 21 10 30.0000000  0  7G19G 3G 8G13G16G23G27
   -376171.92546   -282243.79443  24255738.2194   24255735.7424
      2434.0314
  -1102587.09147   -850460.96643  23247802.8754   23247800.7664
       870.4534
  -2361383.30348  -1819547.26244  22972904.8674   22972903.3794
      2339.2664
    -66953.28849    -54003.18847  20340921.8754   20340917.5004
      -171.5944
   3308817.62147   2542654.23642  24255584.1094   24255581.2814
     -3541.1874
   2317606.82449   1780607.95847  21682655.9064   21682650.0984
     -2594.7974
  -1156785.60749   -892737.48047  21574085.4224   21574081.9734
      1083.6724
 04  9  7 21 10 45.0000000  0  7G19G 3G 8G13G16G23G27
   -412662.18746   -310677.71743  24248794.3364   24248791.8874
      2431.3444
  -1115582.04346   -860586.89143  23245330.4384   23245328.3324
       862.1414
  -2396451.44648  -1846873.05344  22966231.3204   22966229.0394
      2336.5474
    -64324.46949    -51954.75747  20341422.4694   20341418.0944
      -178.9064
   3361959.08146   2584063.12842  24265696.0474   24265693.0274
     -3544.2974
   2356572.36649   1810970.69747  21690070.7424   21690065.2074
     -2600.5314
  -1173017.24649   -905385.51547  21570997.0004   21570993.5664
      1080.5784
 04  9  7 21 11  0.0000000  0  7G19G 3G 8G13G16G23G27
   -449107.46646   -339076.55643  24241858.8054   24241856.3444
      2427.8594
  -1128448.90447   -870613.00043  23242882.0864   23242880.0314
       853.1414
  -2431475.00048  -1874164.11744  22959566.7814   22959564.1294
      2333.0944
    -61582.28249    -49817.99347  20341944.0004   20341939.9804
      -187.0474
   3415150.28347   2625510.82242  24275817.8204   24275815.2114
     -3548.1564
   2395628.46349   1841404.00747  21697503.3284   21697497.3244
     -2607.1094
  -1189199.94349   -917995.40147  21567917.1564   21567914.0124
      1076.8134
 04  9  7 21 11 15.0000000  0  7G19G 3G 8G13G16G23G27
   -485506.19946   -367439.16843  24234931.9924   24234929.9224
      2425.0004
  -1141186.13748   -880538.09643  23240458.2894   23240455.9654
       844.7974
  -2466452.79748  -1901419.52944  22952910.8914   22952908.3484
      2330.3754
    -58725.33949    -47591.80647  20342487.7504   20342483.2544
      -194.2344
   3468392.27546   2666998.06142  24285949.6334   24285946.7464
     -3551.1094
   2434776.29849   1871908.78647  21704952.5864   21704947.3014
     -2612.8284
  -1205332.40249   -930566.14847  21564847.3674   21564843.8204
      1073.8134
 04  9  7 21 11 30.0000000  0  7G19G 3G 8G13G16G23G27
   -521855.47746   -395763.20543  24228015.3054   24228013.1024
      2421.6724
  -1153791.07547   -890360.11143  23238060.0634   23238057.6214
       835.8914
  -2501382.44048  -1928637.40144  22946264.0474   22946262.2464
      2327.0474
    -55751.10749    -45274.22847  20343053.9144   20343049.4694
      -202.1874
   3521686.97746   2708526.32142  24296091.5784   24296088.2424
     -3554.6254
   2474018.22349   1902486.88647  21712420.3674   21712414.5204
     -2619.2344
  -1221412.28849   -943095.91847  21561787.5394   21561784.0594
      1070.2974
 04  9  7 21 11 45.0000000  0  7G19G 3G 8G13G16G23G27
   -558157.59047   -424050.52743  24221107.2034   24221105.5824
      2418.6094
  -1166266.10747   -900080.90343  23235685.0784   23235683.3164
       827.3284
  -2536266.29948  -1955819.61044  22939625.9614   22939623.7424
      2324.0164
    -52662.20549    -42867.30547  20343641.6724   20343637.0084
      -209.7034
   3575031.62246   2750093.59242  24306241.6644   24306239.3834
     -3557.9534
   2513351.46949   1933136.13747  21719905.2344   21719899.6214
     -2625.2504
  -1237442.28149   -955586.82247  21558736.7274   21558733.6334
      1067.0004
 04  9  7 21 12  0.0000000  0  7G19G 3G 8G13G16G23G27
   -594412.30347   -452300.88743  24214207.6804   24214206.5124
      2415.7344
  -1178611.18547   -909700.43643  23233336.3134   23233334.3524
       819.0004
  -2571104.27348  -1982966.06544  22932996.4454   22932994.1134
      2321.3754
    -49458.57149    -40370.96847  20344250.9844   20344246.2304
      -217.0314
   3628425.60146   2791699.28142  24316403.4384   24316400.0314
     -3560.8444
   2552775.87249   1963856.43047  21727408.0474   21727402.2664
     -2630.9694
  -1253422.42149   -968038.87947  21555695.9144   21555692.6054
      1064.0474
 04  9  7 21 12 15.0000000  0  7G19G 3G 8G13G16G23G27
   -630619.33546   -480514.11243  24207318.5554   24207315.9494
      2411.9694
  -1190826.06847   -919218.49743  23231011.8914   23231009.9384
       809.7814
  -2605896.80048  -2010077.10344  22926375.8284   22926373.5984
      2317.8594
    -46140.16149    -37785.20347  20344882.5164   20344878.0784
      -225.2664
   3681868.74146   2833343.20642  24326571.9454   24326569.9574
     -3564.7974
   2592291.26449   1994647.61447  21734926.9614   21734921.3284
     -2637.6094
  -1269352.91049   -980452.24747  21552664.6644   21552661.4024
      1060.1564
 04  9  7 21 12 30.0000000  0  7G19G 3G 8G13G16G23G27
   -666774.29247   -508686.75343  24200437.7344   24200435.3794
      2408.2814
  -1202906.59147   -928631.86943  23228712.8914   23228711.3874
       800.6414
  -2640639.97448  -2037149.66944  22919764.5164   22919761.5984
      2314.3754
    -42702.82949    -35106.76347  20345536.9144   20345532.5124
      -233.3594
   3735364.62146   2875028.30042  24336752.4304   24336749.8634
     -3568.3444
   2631901.57449   2025512.77147  21742464.5084   21742458.9414
     -2644.0624
  -1285229.56849   -992823.66047  21549643.3524   21549639.7154
      1056.3754
 04  9  7 21 12 45.0000000  0  7G19G 3G 8G13G16G23G27
   -702880.70847   -536821.57343  24193566.8284   24193564.6684
      2405.7034
  -1214856.52547   -937943.48443  23226439.9844   23226436.9104
       792.3754
  -2675337.40348  -2064186.59144  22913161.8444   22913159.1414
      2311.7664
    -39150.46649    -32338.70047  20346212.7734   20346208.3284
      -240.5784
   3788909.00746   2916751.15842  24346941.2894   24346939.8484
     -3571.0624
   2671602.59349   2056448.60146  21750019.3284   21750013.9574
     -2649.6094
  -1301056.61849  -1005156.41247  21546631.5394   21546627.9144
      1053.6414
 04  9  7 21 13  0.0000000  0  7G19G 3G 8G13G16G23G27
   -738937.12147   -564917.43943  24186705.0634   24186703.3204
      2402.0004
  -1226674.60247   -947152.36344  23224189.4384   23224188.3754
       783.3594
  -2709987.99648  -2091187.02244  22906567.6804   22906565.2894
      2308.3594
    -35481.86449    -29480.04747  20346910.8594   20346906.3634
      -248.6254
   3842502.53746   2958512.29342  24357140.4774   24357137.4144
     -3574.5944
   2711395.39049   2087455.94147  21757591.9224   21757586.1134
     -2656.0314
  -1316832.84849  -1017449.57947  21543629.4844   21543626.1294
      1049.9064
 04  9  7 21 13 15.0000000  0  7G19G 3G 8G13G16G23G27
   -774940.94147   -592972.27043  24179854.3674   24179851.8244
      2398.7814
  -1238358.21547   -956256.45344  23221966.4454   23221965.4964
       774.7194
  -2744589.49248  -2118149.21945  22899983.0784   22899980.6804
      2305.4224
    -31694.81949    -26529.10947  20347631.8364   20347627.0234
      -256.1724
   3896147.15147   3000313.27442  24367348.8284   24367346.1414
     -3577.7504
   2751281.99649   2118536.39347  21765182.1094   21765176.2384
     -2661.9694
  -1332556.19949  -1029701.54047  21540637.4924   21540633.9614
      1046.6884
 04  9  7 21 13 30.0000000  0  7G19G 3G 8G13G16G23G27
   -810893.69247   -620987.34543  24173012.8054   24173010.2384
      2395.0004
  -1249908.98347   -965257.02944  23219768.6644   23219766.7854
       765.3754
  -2779143.84148  -2145074.65445  22893407.8204   22893405.4574
      2301.8754
    -27790.84849    -23487.05947  20348374.1174   20348369.9924
      -264.3284
   3949840.87446   3042152.51442  24377566.4304   24377563.9534
     -3581.4844
   2791260.62449   2149688.54347  21772789.4454   21772784.8324
     -2668.4534
  -1348228.36349  -1041913.61347  21537655.4064   21537651.3014
      1043.0004
 04  9  7 21 13 45.0000000  0  7G19G 3G 8G13G16G23G27
   -846792.62647   -648960.47143  24166181.0234   24166178.7424
      2391.5474
  -1261324.27648   -974152.03143  23217596.3984   23217594.8674
       756.5004
  -2813648.42548  -2171961.30645  22886842.0234   22886839.5274
      2298.6414
    -23767.35849    -20351.88047  20349140.0314   20349135.3914
      -272.1874
   4003585.78346   3084031.59942  24387793.6804   24387791.1454
     -3584.7814
   2831333.50249   2180914.13347  21780415.1024   21780409.8324
     -2674.6094
  -1363846.92249  -1054083.91447  21534683.3914   21534679.6564
      1039.5164
 04  9  7 21 14  0.0000000  0  7G19G 3G 8G13G16G23G27
   -882635.73247   -676890.10543  24159360.2584   24159357.8794
      2387.8444
  -1272602.48747   -982940.21844  23215450.2664   23215448.5354
       747.4534
  -2848101.84848  -2198808.09645  22880285.4384   22880283.0474
      2295.2974
    -19622.85349    -17122.40547  20349928.8444   20349924.0864
      -280.2344
   4057382.87947   3125951.37642  24398031.1334   24398028.6054
     -3588.1254
   2871502.02949   2212214.25046  21788059.1174   21788053.4104
     -2680.9374
  -1379410.51449  -1066211.38147  21531721.5234   21531717.6564
      1035.8594
 04  9  7 21 14 15.0000000  0  7G19G 3G 8G13G16G23G27
   -918426.13347   -704778.67843  24152549.3984   24152547.2624
      2384.2814
  -1283746.78147   -991624.06944  23213329.7194   23213327.7664
       738.5314
  -2882507.24648  -2225617.48944  22873738.1334   22873735.8134
      2292.2034
    -15360.68449    -13801.24347  20350739.7274   20350735.6134
      -288.0004
   4111228.55047   3167909.02242  24408278.0704   24408275.1604
     -3591.2664
   2911762.61449   2243586.10647  21795720.3914   21795714.4104
     -2687.0944
  -1394922.43649  -1078298.59347  21528769.7424   21528765.9534
      1032.4534
 04  9  7 21 14 30.0000000  0  6G19G 3G 8G13G23G27
   -954165.07347   -732627.13243  24145749.3754   24145746.1214
      2380.6254
  -1294758.61747  -1000204.69744  23211233.9064   23211232.2664
       729.4224
  -2916866.38648  -2252390.81145  22867199.7114   22867197.9384
      2288.8284
    -10982.40348    -10389.59547  20351572.7194   20351568.1454
      -296.0004
   2952113.56249   2275028.39146  21803399.0944   21803393.6914
     -2693.3284
  -1410384.39949  -1090346.86947  21525827.1564   21525823.8874
      1028.8754
 04  9  7 21 14 45.0000000  0  6G19G 3G 8G13G23G27
   -989850.12447   -760433.61643  24138958.1884   24138955.6954
      2376.9064
  -1305635.72148  -1008680.33744  23209164.2584   23209162.2974
       720.3134
  -2951177.21748  -2279126.49445  22860670.3134   22860668.9924
      2285.5164
     -6485.81049     -6885.76147  20352428.7274   20352424.0784
      -304.0624
   2992556.82549   2306542.59146  21811095.4774   21811090.1954
     -2699.5624
  -1425794.44749  -1102354.69647  21522895.0004   21522891.4384
      1025.3444
 04  9  7 21 15  0.0000000  0  6G19G 3G 8G13G23G27
  -1025479.06047   -788196.37543  24132178.7664   24132175.4844
      2373.2344
  -1316376.01348  -1017049.35844  23207120.5784   23207118.7194
       711.4064
  -2985437.67648  -2305822.92945  22854151.3914   22854148.9694
      2282.2974
     -1869.07249     -3288.31347  20353307.1334   20353302.8054
      -311.8444
   3033094.06949   2338130.02346  21818808.7584   21818803.6684
     -2705.7034
  -1441150.68849  -1114320.59147  21519972.9534   21519969.5314
      1021.7974
 04  9  7 21 15 15.0000000  0  6G19G 3G 8G13G23G27
  -1061051.41547   -815915.02043  24125409.6954   24125406.2734
      2369.6254
  -1326979.10447  -1025311.50344  23205102.1804   23205100.8874
       702.2974
  -3019647.61148  -2332479.98445  22847641.7734   22847639.3914
      2279.0164
      2868.33249       403.16247  20354208.5704   20354204.1564
      -319.8594
   3073725.46449   2369790.82746  21826541.0084   21826535.6024
     -2711.9064
  -1456453.00849  -1126244.47247  21517060.6024   21517057.5664
      1018.3594
 04  9  7 21 15 30.0000000  0  6G19G 3G 8G13G23G27
  -1096569.38447   -843591.28343  24118650.3914   24118647.7584
      2366.1564
  -1337447.40448  -1033468.57944  23203110.8524   23203108.4844
       693.4384
  -3053809.70848  -2359099.77045  22841140.5634   22841138.2854
      2275.9064
      7723.78149      4186.62147  20355132.7894   20355127.9804
      -327.5624
   3114448.19449   2401522.78846  21834290.4534   21834284.8164
     -2717.8124
  -1471703.98649  -1138128.34647  21514158.3134   21514155.3054
      1015.0784
 04  9  7 21 15 45.0000000  0  6G19G 3G 8G13G23G27
  -1132033.61947   -871225.68343  24111901.2664   24111898.6644
      2362.3914
  -1347781.94247  -1041521.45744  23201143.1644   23201142.0784
       684.4064
  -3087924.86948  -2385682.98545  22834647.9774   22834646.5984
      2272.5784
     12696.27649      8061.29547  20356078.5704   20356074.6374
      -335.5474
   3155261.07049   2433325.01447  21842056.9534   21842051.1094
     -2723.9844
  -1486904.78549  -1149973.12147  21511266.0474   21511262.4304
      1011.5314
 04  9  7 21 16  0.0000000  0  6G19G 3G 8G13G23G27
  -1167443.16947   -898817.47443  24105162.5634   24105160.3364
      2359.0004
  -1357981.65347  -1049469.25943  23199203.2424   23199200.6914
       675.7034
  -3121992.51848  -2412229.16345  22828165.9844   22828163.1484
      2269.8284
     17786.55349     12027.73347  20357047.4534   20357042.8134
      -343.1094
   3196164.68249   2465197.91646  21849840.9064   21849835.5004
     -2729.7504
  -1502054.73249  -1161778.26447  21508382.8364   21508379.9774
      1008.4694
 04  9  7 21 16 15.0000000  0  6G19G 3G 8G13G23G27
  -1202797.83147   -926366.48343  24098435.1094   24098432.4304
      2355.0784
  -1368046.62648  -1057312.07844  23197287.0864   23197285.5394
       666.3914
  -3156012.91648  -2438738.54445  22821691.3524   22821689.3794
      2266.4534
     22994.53749     16085.89847  20358038.4614   20358034.1094
      -351.1724
   3237158.59749   2497141.19946  21857641.8134   21857636.3634
     -2736.0474
  -1517154.01849  -1173543.95147  21505509.6484   21505506.1174
      1004.8444
 04  9  7 21 16 30.0000000  0  6G19G 3G 8G13G23G27
  -1238093.93147   -953869.89643  24091717.9844   24091715.2624
      2351.2344
  -1377973.35547  -1065047.16143  23195398.7034   23195396.2424
       657.2814
  -3189982.75448  -2465208.51545  22815227.4924   22815225.2464
      2263.0634
     28323.68349     20238.47347  20359052.8674   20359048.1024
      -359.2664
   3278246.17349   2529157.46046  21865460.0554   21865454.5394
     -2742.2344
  -1532199.43249  -1185267.64347  21502646.5394   21502643.2894
      1001.3134
 04  9  7 21 16 45.0000000  0  6G19G 3G 8G13G23G27
  -1273334.91547   -981330.31143  24085012.7114   24085009.5664
      2347.1884
  -1387765.27947  -1072677.20243  23193535.2274   23193532.6604
       647.9384
  -3223905.50048  -2491641.79045  22808771.9454   22808769.7074
      2259.5944
     33770.36849     24482.64947  20360088.8364   20360084.2854
      -367.4064
   3319423.42949   2561243.60546  21873296.1644   21873290.0664
     -2748.5314
  -1547194.63249  -1196952.20047  21499792.8834   21499789.5084
       997.6724
 04  9  7 21 17  0.0000000  0  6G19G 3G 8G13G23G27
  -1308519.69848  -1008746.99043  24078318.2274   24078314.3134
      2343.8914
  -1397421.52047  -1080201.53543  23191697.5554   23191695.0234
       639.3594
  -3257780.50248  -2518037.87345  22802325.8284   22802324.0984
      2256.8754
     39335.27749     28818.93347  20361148.4304   20361143.9064
      -374.7974
   3360691.04949   2593400.17446  21881149.0004   21881143.7704
     -2754.0164
  -1562139.00349  -1208597.17347  21496949.0084   21496946.1024
       994.7034
 04  9  7 21 17 15.0000000  0  6G19G 3G 8G13G23G27
  -1343647.74248  -1036119.43643  24071633.8284   24071629.9844
      2340.0474
  -1406941.82947  -1087619.94043  23189886.1484   23189883.2194
       630.1884
  -3291607.83048  -2544396.80245  22795888.7114   22795886.1954
      2253.5314
     45018.71349     33247.56647  20362229.7894   20362225.2894
      -382.7814
   3402049.02349   2625627.12846  21889019.2664   21889013.7504
     -2760.1564
  -1577032.40049  -1220202.40947  21494114.7584   21494111.9574
       991.2664
 04  9  7 21 17 30.0000000  0  6G19G 3G 8G13G23G27
  -1378716.99647  -1063446.05843  24064958.7194   24064956.0474
      2336.3914
  -1416324.25347  -1094930.89143  23188100.7114   23188098.4804
       621.2974
  -3325385.53948  -2570717.06345  22789461.4384   22789459.3364
      2250.5474
     50822.39749     37769.91947  20363333.9454   20363329.5904
      -390.5784
   3443498.76549   2657925.60846  21896906.8984   21896901.2974
     -2766.0474
  -1591873.24749  -1231766.69247  21491290.7974   21491287.7344
       988.0164
 04  9  7 21 17 45.0000000  0  6G19G 3G 8G13G23G27
  -1413728.11848  -1090727.37343  24058297.4534   24058293.3204
      2332.1414
  -1425569.75747  -1102135.16844  23186342.0394   23186339.3014
       611.8284
  -3359114.60148  -2596999.42545  22783042.1484   22783040.0864
      2246.9844
     56745.33849     42385.19047  20364461.2664   20364456.6294
      -398.8444
   3485039.13649   2690294.70046  21904811.9224   21904806.1764
     -2772.3284
  -1606662.45449  -1243290.75147  21488476.5864   21488473.1954
       984.2034
 04  9  7 21 18  0.0000000  0  6G19G 3G 8G13G23G27
  -1448682.11348  -1117964.18343  24051644.8674   24051641.9224
      2328.4224
  -1434679.38147  -1109233.56044  23184607.7664   23184605.3204
       602.9224
  -3392796.41748  -2623244.97045  22776633.4454   22776630.8754
      2243.9844
     62786.46449     47092.56247  20365611.2114   20365606.1454
      -406.6094
   3526668.70848   2722733.30846  21912733.8834   21912727.7544
     -2778.1724
  -1621401.54949  -1254775.77147  21485672.0554   21485668.9104
       981.0784
 04  9  7 21 18 15.0010000  0  6G19G 3G 8G13G23G27
  -1483583.00847  -1145159.63543  24045002.7714   24045000.3534
      2324.6094
  -1443655.63447  -1116228.03044  23182899.2314   23182896.9114
       593.7814
  -3426435.01748  -2649456.84345  22770232.4034   22770230.1924
      2240.8444
     68944.16549     51890.77047  20366782.3024   20366777.6064
      -414.3594
   3568388.24449   2755242.00446  21920672.4814   21920667.1304
     -2784.0944
  -1636093.46449  -1266224.01647  21482876.5054   21482872.7474
       977.6724
 04  9  7 21 18 30.0010000  0  6G19G 3G 8G13G23G27
  -1518422.05248  -1172306.89643  24038373.7944   24038370.4234
      2320.8754
  -1452493.36947  -1123114.57243  23181217.5754   23181214.9894
       584.7974
  -3460022.37948  -2675628.77445  22763840.7474   22763838.2744
      2237.7664
     75221.45249     56782.14747  20367976.9354   20367972.6264
      -422.2504
   3610195.68849   2787819.19546  21928628.3104   21928622.6534
     -2789.9224
  -1650732.45749  -1277631.01647  21480090.6534   21480087.0174
       974.5004
 04  9  7 21 18 45.0010000  0  6G19G 3G 8G13G23G27
  -1553202.86548  -1199408.75643  24031755.3724   24031751.8804
      2316.8444
  -1461194.77747  -1129894.88244  23179562.2244   23179559.7004
       575.6414
  -3493562.41248  -2701763.84445  22757457.8024   22757455.7164
      2234.5634
     81616.90249     61765.62047  20369194.2554   20369189.5054
      -430.2504
   3652091.93349   2820465.61046  21936600.6384   21936595.0914
     -2795.9694
  -1665321.38149  -1288999.01047  21477314.0284   21477310.7864
       971.0004
 04  9  7 21 19  0.0010000  0  6G19G 3G 8G13G23G27
  -1587920.70048  -1226461.55443  24025148.9274   24025144.7714
      2312.1724
  -1469755.21747  -1136565.33944  23177933.2004   23177930.8454
       565.8134
  -3527050.60748  -2727858.51245  22751085.3564   22751082.8844
      2230.6414
     88135.19349     66844.79647  20370434.4664   20370429.1884
      -438.8444
   3694081.22449   2853184.50346  21944591.1144   21944585.6264
     -2802.5944
  -1679855.90449  -1300324.61147  21474548.5284   21474544.8804
       966.9844
 04  9  7 21 19 15.0010000  0  6G19G 3G 8G13G23G27
  -1622576.01948  -1253465.64443  24018554.7084   24018550.8644
      2308.6884
  -1478175.25447  -1143126.41243  23176330.6384   23176328.6814
       557.0164
  -3560487.89448  -2753913.52945  22744722.7164   22744719.9664
      2227.8444
     94775.64449     72019.17347  20371698.0994   20371693.2864
      -446.3284
   3736162.64649   2885975.18646  21952598.8724   21952593.1424
     -2808.1094
  -1694336.80949  -1311608.42647  21471793.2164   21471789.1104
       964.0004
 04  9  7 21 19 30.0010000  0  6G19G 3G 8G13G23G27
  -1657172.65747  -1280424.01243  24011970.4194   24011967.0404
      2304.3444
  -1486459.02147  -1149581.28944  23174754.1614   23174752.7004
       547.6724
  -3593878.45848  -2779932.12945  22738368.3804   22738366.4744
      2224.3444
    101534.10549     77285.49947  20372984.3644   20372979.5714
      -454.5944
   3778331.83749   2918834.28346  21960623.1144   21960617.8964
     -2814.3124
  -1708768.27149  -1322853.72147  21469046.6064   21469043.4154
       960.3284
 04  9  7 21 19 45.0010000  0  6G19G 3G 8G13G23G27
  -1691708.63847  -1307335.12643  24005398.2474   24005394.8334
      2300.2344
  -1494604.67447  -1155928.55644  23173204.2634   23173202.7124
       538.3594
  -3627220.46948  -2805912.89145  22732023.6774   22732021.2514
      2221.1414
    108412.35749     82645.16147  20374293.1694   20374288.4074
      -462.6414
   3820590.45748   2951763.03646  21968664.6384   21968659.4624
     -2820.3124
  -1723148.65649  -1334059.21447  21466310.4664   21466306.5874
       956.9224
 04  9  7 21 20  0.0010000  0  6G19G 3G 8G13G23G27
  -1726179.75747  -1334195.67343  23998838.0134   23998835.4354
      2295.9224
  -1502608.28548  -1162165.11944  23171681.5994   23171678.7944
       528.8754
  -3660510.11448  -2831852.85045  22725688.7164   22725685.8064
      2217.6254
    115414.04449     88101.02147  20375625.8804   20375621.3534
      -470.8594
   3862942.11049   2984764.30946  21976724.2634   21976718.7594
     -2826.5624
  -1737474.15849  -1345221.93247  21463584.0604   21463580.5094
       953.2034
 04  9  7 21 20 15.0010000  0  6G19G 3G 8G13G23G27
  -1760587.54247  -1361006.87243  23992290.5914   23992287.8334
      2291.8134
  -1510471.50447  -1168292.30244  23170185.1144   23170182.6854
       519.5634
  -3693749.52848  -2857753.66345  22719363.4584   22719361.5284
      2214.2504
    122537.48649     93651.73747  20376980.6304   20376976.3564
      -478.9224
   3905384.73048   3017836.44146  21984801.0754   21984795.0714
     -2832.4534
  -1751746.80749  -1356343.47447  21460868.1534   21460864.3414
       949.7504
 04  9  7 21 20 30.0010000  0  6G19G 3G 8G13G23G27
  -1794931.92347  -1387768.66843  23985754.6144   23985752.6264
      2287.7194
  -1518194.39447  -1174310.13244  23168715.5214   23168713.0444
       510.4384
  -3726938.67948  -2883615.30945  22713047.8964   22713045.4544
      2211.1884
    129782.54449     99297.23947  20378359.8884   20378354.7554
      -486.7814
   3947917.91248   3050979.16446  21992894.8174   21992888.9744
     -2838.2664
  -1765966.74249  -1367423.94147  21458162.2554   21458158.4234
       946.5004
 04  9  7 21 20 45.0010000  0  6G19G 3G 8G13G23G27
  -1829214.06247  -1414481.97143  23979231.4194   23979228.4784
      2283.3284
  -1525778.33847  -1180219.70444  23167272.4504   23167269.9854
       500.8914
  -3760078.98248  -2909438.90045  22706741.1614   22706738.8564
      2207.6724
    137147.77249    105036.37647  20379760.9974   20379756.4154
      -495.0624
   3990540.09849   3084191.22846  22001005.1924   22000999.6034
     -2844.5004
  -1780135.65549  -1378464.65047  21455465.6304   21455462.2554
       942.8284
 04  9  7 21 21  0.0010000  0  6G19G 3G 8G13G23G27
  -1863433.79947  -1441146.67443  23972719.2784   23972716.2434
      2279.1564
  -1533223.40647  -1186021.05144  23165855.5834   23165852.6574
       491.6094
  -3793170.75948  -2935224.68645  22700444.5444   22700441.7004
      2204.5474
    144633.04749    110869.04547  20381185.7784   20381181.0674
      -503.0164
   4033250.83749   3117472.30146  22009133.3804   22009127.5794
     -2850.3444
  -1794253.73449  -1389465.74547  21452779.3804   21452775.8214
       939.4844
 04  9  7 21 21 15.0010000  0  6G19G 3G 8G13G23G27
  -1897593.01747  -1467764.17943  23966219.2944   23966215.7514
      2275.2344
  -1540531.59948  -1191715.75144  23164464.9664   23164462.2634
       482.5784
  -3826216.16548  -2960974.32145  22694155.4974   22694153.0444
      2201.3594
    152236.29549    116793.66347  20382632.6144   20382627.9504
      -510.9224
   4076047.74849   3150820.52146  22017277.0134   22017271.4154
     -2856.0004
  -1808323.08249  -1400428.86547  21450102.1464   21450098.5134
       936.2034
 04  9  7 21 21 30.0010000  0  6G19G 3G 8G13G23G27
  -1931690.75047  -1494333.80243  23959730.1304   23959727.1734
      2271.1884
  -1547702.26547  -1197303.26644  23163100.3494   23163098.0174
       473.5164
  -3859214.64948  -2986687.39245  22687876.4424   22687874.1224
      2198.4064
    159958.05449    122810.62147  20384101.8414   20384097.5834
      -518.7194
   4118931.29149   3184236.24246  22025438.0284   22025432.0284
     -2861.7344
  -1822343.34449  -1411353.73947  21447434.1534   21447430.3644
       933.0634
 04  9  7 21 21 45.0010000  0  6G19G 3G 8G13G23G27
  -1965723.75147  -1520852.99443  23953254.4274   23953251.2714
      2266.9844
  -1554732.36047  -1202781.27244  23161761.9034   23161760.4354
       464.4384
  -3892163.17348  -3012361.55445  22681606.5364   22681603.7394
      2195.2664
    167801.26549    128922.19547  20385594.4664   20385589.8804
      -526.6094
   4161904.12349   3217721.53646  22033615.4744   22033609.5214
     -2867.4374
  -1836311.60249  -1422238.09547  21444776.1304   21444772.3374
       929.7974
 04  9  7 21 22  0.0010000  0  6G19G 3G 8G13G23G27
  -1999693.04147  -1547322.54143  23946790.7474   23946786.6814
      2262.5784
  -1561623.11747  -1208150.68044  23160451.1304   23160448.6854
       454.8754
  -3925063.31248  -3037998.00745  22675345.7714   22675343.1924
      2191.8444
    175764.64049    135127.40647  20387109.5214   20387105.1734
      -534.7814
   4204964.79049   3251275.26446  22041809.6304   22041803.8964
     -2873.5314
  -1850229.40549  -1433083.13947  21442127.6384   21442123.9114
       926.2814
 04  9  7 21 22 15.0010000  0  6G19G 3G 8G13G23G27
  -2033599.64046  -1573743.21043  23940337.2314   23940334.6384
      2258.4384
  -1568375.64147  -1213412.40843  23159166.7474   23159163.3494
       445.5784
  -3957916.35248  -3063597.75845  22669094.0134   22669091.2674
      2188.6414
    183846.94649    141425.32047  20388647.4894   20388643.2124
      -542.8124
   4248111.88949   3284896.35546  22050020.1064   22050014.6184
     -2879.3284
  -1864097.87149  -1443889.71547  21439488.5604   21439485.0174
       922.9694
 04  9  7 21 22 30.0010000  0  6G19G 3G 8G13G23G27
  -2067440.42447  -1600112.62143  23933898.1534   23933895.3414
      2254.0944
  -1574987.00847  -1218564.09444  23157908.1774   23157905.5634
       436.3444
  -3990719.36248  -3089158.51945  22662851.7244   22662849.1774
      2185.4844
    192051.03149    147818.10347  20390208.6614   20390204.4704
      -550.7034
   4291348.05649   3318586.85346  22058248.1384   22058242.0564
     -2885.1564
  -1877914.35949  -1454655.81047  21436859.5524   21436855.5914
       919.6254
 04  9  7 21 22 45.0010000  0  6G19G 3G 8G13G23G27
  -2101215.05747  -1626430.47043  23927470.6064   23927467.8294
      2249.2814
  -1581456.95547  -1223605.64043  23156677.1064   23156674.2284
       426.4224
  -4023472.35148  -3114680.30445  22656619.1924   22656616.8134
      2181.7664
    200377.01849    154305.87747  20391793.3804   20391788.6774
      -559.3124
   4334673.14449   3352346.63246  22066492.1694   22066486.3994
     -2891.4694
  -1891678.82749  -1465381.36647  21434240.1534   21434236.7004
       915.7814
 04  9  7 21 23  0.0010000  0  6G19G 3G 8G13G23G27
  -2134922.82147  -1652696.24443  23921056.6534   23921052.9934
      2244.9694
  -1587785.09747  -1228536.65243  23155472.9814   23155470.3294
       417.3134
  -4056175.07149  -3140162.91845  22650395.7714   22650393.1884
      2178.5634
    208825.26749    160888.91647  20393401.2714   20393396.7394
      -567.2344
   4378087.29449   3386175.80646  22074754.1534   22074748.6034
     -2897.2194
  -1905390.97749  -1476066.16047  21431630.7394   21431627.1534
       912.4694
 04  9  7 21 23 15.0010000  0  6G19G 3G 8G13G23G27
  -2168563.85147  -1678909.98243  23914654.5444   23914651.0714
      2240.5474
  -1593971.87447  -1233357.52744  23154295.3104   23154293.2164
       407.7814
  -4088827.95548  -3165606.68845  22644182.4034   22644179.6064
      2175.2344
    217395.24349    167566.82347  20395032.0444   20395027.6924
      -575.3754
   4421589.77349   3420073.81246  22083031.7554   22083026.6184
     -2903.0624
  -1919051.49849  -1486710.70947  21429031.0364   21429027.6574
       909.0314
 04  9  7 21 23 30.0010000  0  6G19G 3G 8G13G23G27
  -2202139.65847  -1705072.90343  23908265.4584   23908262.3534
      2236.2664
  -1600018.90147  -1238069.48144  23153145.0134   23153141.9464
       398.5784
  -4121432.83648  -3191013.06645  22637977.6854   22637975.0994
      2172.1254
    226085.22549    174338.21847  20396685.5214   20396681.0954
      -583.2194
   4465178.65249   3454039.12546  22091326.1304   22091321.3214
     -2908.7034
  -1932662.11149  -1497316.38047  21426441.2944   21426437.8684
       905.7664
 04  9  7 21 23 45.0010000  0  6G19G 3G 8G13G23G27
  -2235645.55247  -1731181.36543  23901889.8804   23901886.3024
      2231.0634
  -1605921.59348  -1242668.98744  23152021.3884   23152019.4854
       388.3284
  -4153985.28149  -3216378.58445  22631783.1384   22631780.6464
      2168.1094
    234899.69249    181206.63247  20398362.6924   20398358.0484
      -592.0784
   4508858.18449   3488075.09946  22099637.9744   22099633.1384
     -2915.2814
  -1946218.54849  -1507879.84047  21423861.3884   21423857.7204
       901.6254
 04  9  7 21 24  0.0010000  0  6G19G 3G 8G13G23G27
  -2269084.64647  -1757237.76443  23895527.0674   23895522.5634
      2227.2194
  -1611683.37347  -1247158.66444  23150924.5834   23150922.5794
       379.5634
  -4186488.72248  -3241705.90845  22625597.8414   22625594.7244
      2165.3754
    243834.97649    188169.18547  20400063.2784   20400058.9464
      -599.5474
   4552624.68949   3522178.83746  22107966.8174   22107961.5244
     -2920.5944
  -1959724.24549  -1518403.75447  21421291.0364   21421287.8884
       898.8594
 04  9  7 21 24 15.0010000  0  6G19G 3G 8G13G23G27
  -2302455.63447  -1783241.10443  23889176.2474   23889171.9664
      2222.3444
  -1617303.15547  -1251537.70444  23149855.4894   23149853.6854
       369.9384
  -4218942.25449  -3266994.34345  22619422.4034   22619419.8414
      2161.9534
    252892.32849    195226.86147  20401786.7554   20401782.5914
      -607.8594
   4596478.96149   3556350.96946  22116311.9354   22116306.8254
     -2926.5624
  -1973178.42549  -1528887.52547  21418731.1534   21418727.5714
       895.1414
 04  9  7 21 24 30.0010000  0  6G19G 3G 8G13G23G27
  -2335755.97847  -1809189.38443  23882839.3024   23882835.1774
      2217.6724
  -1622778.57647  -1255804.25344  23148813.3804   23148811.9464
       360.1254
  -4251343.71148  -3292242.21545  22613256.3174   22613253.5834
      2158.3284
    262074.07849    202381.46247  20403533.8724   20403529.3454
      -616.2974
   4640423.11149   3590593.13746  22124674.3414   22124668.9504
     -2932.6094
  -1986578.87749  -1539329.43347  21416181.1144   21416177.5914
       891.5474
 04  9  7 21 24 45.0010000  0  6G19G 3G 8G13G23G27
  -2368986.78846  -1835083.50743  23876515.3334   23876512.5994
      2213.1254
  -1628110.99147  -1259959.37344  23147798.8564   23147796.5954
       350.7974
  -4283694.46848  -3317450.56745  22607099.9354   22607098.2204
      2155.1094
    271378.63249    209631.75447  20405304.4274   20405300.1144
      -624.2664
   4684455.40749   3624903.97546  22133053.7084   22133048.3564
     -2938.2814
  -1999927.11949  -1549730.65547  21413640.7944   21413637.3964
       888.2974
 04  9  7 21 25  0.0010000  0  6G19G 3G 8G13G23G27
  -2402149.45446  -1860924.50643  23870205.2714   23870201.3804
      2208.3134
  -1633301.80247  -1264004.17044  23146811.6144   23146809.4424
       341.0944
  -4315995.92148  -3342620.50645  22600953.3414   22600950.9194
      2151.4844
    280804.66749    216976.72047  20407098.1924   20407093.9194
      -632.7194
   4728574.18549   3659282.23146  22141448.9274   22141443.8684
     -2944.3754
  -2013224.53549  -1560092.28647  21411110.7714   21411106.7714
       884.5314
 04  9  7 21 25 15.0010000  0  6G19G 3G 8G13G23G27
  -2435241.99647  -1886710.86544  23863906.9504   23863904.7244
      2203.9384
  -1638349.47148  -1267937.40244  23145850.0604   23145848.4624
       331.8914
  -4348247.04948  -3367751.23345  22594815.9584   22594813.9544
      2148.5004
    290353.57849    224417.41347  20408915.4354   20408910.3374
      -640.5944
   4772780.71349   3693728.82746  22149861.4814   22149855.6614
     -2949.9844
  -2026469.89949  -1570413.33847  21408590.3414   21408586.6424
       881.3914
 04  9  7 21 25 30.0010000  0  6G19G 3G 8G13G23G27
  -2468262.41047  -1912441.02743  23857624.4504   23857620.7244
      2199.1094
  -1643252.22748  -1271757.73144  23144918.1924   23144915.6344
       322.2504
  -4380446.04148  -3392841.32845  22588689.1924   22588686.7314
      2145.0314
    300027.07049    231955.19547  20410756.5054   20410751.6304
      -648.9064
   4817076.51749   3728244.99846  22158290.4274   22158285.2354
     -2955.8444
  -2039661.59449  -1580692.56447  21406080.0054   21406076.2904
       877.8594
 04  9  7 21 25 45.0010000  0  6G19G 3G 8G13G23G27
  -2501214.85147  -1938118.20644  23851353.5914   23851349.9194
      2194.2504
  -1648014.42648  -1275468.53644  23144011.3174   23144009.4504
       312.5314
  -4412597.31949  -3417894.24245  22582570.5754   22582568.0324
      2141.5784
    309820.59649    239586.51047  20412619.7944   20412614.7864
      -657.1724
   4861456.90049   3762827.09846  22166735.7474   22166730.2864
     -2961.7504
  -2052804.04949  -1590933.44447  21403578.6854   21403575.4274
       874.2664
 04  9  7 21 26  0.0010000  0  6G19G 3G 8G13G23G27
  -2534095.88146  -1963739.76243  23845096.5994   23845093.2124
      2189.5164
  -1652632.66447  -1279067.16444  23143131.9424   23143130.4814
       302.9844
  -4444697.44048  -3442907.29845  22576462.3564   22576460.2284
      2138.1724
    319737.44049    247313.90647  20414506.9814   20414502.1734
      -665.3754
   4905924.88649   3797477.43746  22175197.8174   22175192.8684
     -2967.5314
  -2065894.26249  -1601133.60547  21401087.7314   21401083.9584
       870.8284
 04  9  7 21 26 15.0010000  0  6G19G 3G 8G13G23G27
  -2566902.90547  -1989303.63943  23838853.5604   23838850.2514
      2184.4694
  -1657104.54648  -1282551.72044  23142280.8494   23142279.5524
       292.9694
  -4476744.34248  -3467878.89145  22570364.5524   22570361.7594
      2134.3754
    329780.03849    255139.29847  20416418.4664   20416413.2714
      -674.0004
   4950482.62549   3832197.71246  22183677.5674   22183671.6064
     -2973.8284
  -2078929.90449  -1611291.26047  21398606.9744   21398603.6424
       867.0004
 04  9  7 21 26 30.0010000  0  6G19G 3G 8G13G23G27
  -2599633.11448  -2014807.65143  23832625.0604   23832620.8994
      2179.3914
  -1661427.60547  -1285920.34644  23141458.8724   23141456.7514
       283.1724
  -4508735.68149  -3492807.18545  22564276.3174   22564274.1574
      2130.7344
    339950.72049    263064.50647  20418353.6224   20418348.4354
      -682.4064
   4995132.21749   3866989.57646  22192173.5364   22192168.2634
     -2979.7974
  -2091908.60149  -1621404.51047  21396137.4744   21396133.9624
       863.2814
 04  9  7 21 26 45.0010000  0  6G19G 3G 8G13G23G27
  -2632289.60148  -2040254.23443  23826410.6464   23826407.1104
      2174.7974
  -1665605.21248  -1289175.60944  23140663.7474   23140662.4154
       273.7504
  -4540674.88049  -3517694.84045  22558198.7474   22558196.4784
      2127.6884
    350246.13849    271086.89847  20420312.6384   20420308.2354
      -690.4374
   5039870.21449   3901850.31246  22200686.8024   22200681.8374
     -2985.3444
  -2104833.91549  -1631476.18047  21393677.6384   21393674.2984
       860.0314
 04  9  7 21 27  0.0010000  0  6G19G 3G 8G13G23G27
  -2664870.11248  -2065641.61543  23820210.8644   23820206.8294
      2169.4384
  -1669635.18848  -1292315.84544  23139896.5284   23139894.6264
       263.7504
  -4572559.88649  -3542540.28345  22552131.0284   22552128.0094
      2123.7974
    360668.23749    279208.01247  20422295.7084   20422291.1574
      -699.0784
   5084698.41349   3936781.33846  22209217.1694   22209212.0754
     -2991.5944
  -2117703.70249  -1641504.58947  21391228.7714   21391225.2514
       856.0784
 04  9  7 21 27 15.0010000  0  6G19G 3G 8G13G23G27
  -2697378.95548  -2090973.14943  23814024.7164   23814021.0794
      2164.7344
  -1673522.22848  -1295344.68444  23139157.3334   23139155.4154
       254.3284
  -4604395.48149  -3567347.22145  22546072.7314   22546069.7164
      2120.6414
    371212.38249    287424.20847  20424302.5284   20424297.8604
      -707.0944
   5129611.78949   3971778.74046  22217763.8024   22217759.0214
     -2997.1414
  -2130522.91949  -1651493.59447  21388789.0914   21388785.3644
       852.8594
 04  9  7 21 27 30.0010000  0  6G19G 3G 8G13G23G27
  -2729812.53648  -2116246.03143  23807852.5914   23807849.3214
      2159.6254
  -1677262.83247  -1298259.44544  23138445.2474   23138442.9664
       244.4064
  -4636178.04249  -3592112.82345  22540024.7714   22540021.4974
      2117.0474
    381882.02949    295738.22047  20426332.5834   20426327.9894
      -715.6254
   5174613.62349   4006845.05846  22226327.5214   22226323.0634
     -3003.1414
  -2143288.20649  -1661440.55347  21386359.9664   21386356.2084
       849.1414
 04  9  7 21 27 45.0010000  0  6G19G 3G 8G13G23G27
  -2762168.80948  -2141458.63744  23801695.0834   23801692.0324
      2154.5314
  -1680855.24848  -1301058.71144  23137762.2714   23137759.7904
       234.5314
  -4667906.19849  -3616836.03745  22533987.5524   22533984.3534
      2113.4064
    392678.81449    304151.28847  20428387.1384   20428382.4934
      -723.9694
   5219705.36549   4041981.43746  22234908.6534   22234903.6654
     -3009.0624
  -2155997.93249  -1671344.22747  21383941.3334   21383937.7554
       845.4384
 04  9  7 21 28  0.0010000  0  6G19G 3G 8G13G23G27
  -2794449.07748  -2166612.07544  23795552.6384   23795549.1884
      2149.5634
  -1684300.97847  -1303743.67644  23137107.2314   23137103.9814
       224.9224
  -4699581.52649  -3641518.09745  22527959.7784   22527956.7714
      2110.0164
    403601.17249    312662.20847  20430465.7394   20430461.0834
      -732.2194
   5264885.18349   4077186.46146  22243505.4114   22243500.9894
     -3014.7194
  -2168653.90549  -1681206.01947  21381533.1144   21381529.2474
       842.0784
 04  9  7 21 28 15.0010000  0  6G19G 3G 8G13G23G27
  -2826655.62548  -2191708.03543  23789424.2944   23789420.0914
      2144.5634
  -1687602.53748  -1306316.30844  23136477.7714   23136475.5014
       215.3594
  -4731206.57549  -3666160.95445  22521941.1614   22521938.2044
      2106.6884
    414646.45349    321268.91847  20432567.6774   20432563.6924
      -740.4844
   5310150.38849   4112458.01646  22252119.5214   22252114.2674
     -3020.5314
  -2181258.63149  -1691027.88647  21379134.4744   21379130.7514
       838.5314
 04  9  7 21 28 30.0010000  0  6G19G 3G 8G13G23G27
  -2858784.68948  -2216743.62244  23783309.2634   23783306.4074
      2139.0164
  -1690756.39748  -1308773.83344  23135878.4194   23135876.0014
       205.0314
  -4762777.96249  -3690762.01145  22515933.3964   22515930.9934
      2102.6254
    425818.14549    329974.11447  20434693.3724   20434689.3884
      -749.2504
   5355504.20149   4147798.59546  22260750.4664   22260745.2164
     -3026.7974
  -2193808.66749  -1700807.12347  21376746.4424   21376742.4544
       834.5004
 04  9  7 21 28 45.0010000  0  6G19G 3G 8G13G23G27
  -2890834.41348  -2241717.38544  23777210.5834   23777207.5524
      2133.9844
  -1693760.97048  -1311115.05344  23135305.7314   23135303.6034
       195.3754
  -4794294.22049  -3715320.11245  22509935.9194   22509932.9194
      2099.2664
    437117.87749    338779.10447  20436843.5134   20436839.7904
      -757.6094
   5400947.92349   4183209.27346  22269397.7164   22269392.7784
     -3032.5474
  -2206302.57749  -1710542.63447  21374368.8724   21374364.6614
       831.0944
 04  9  7 21 29  0.0010000  0  6G19G 3G 8G13G23G27
  -2922808.31947  -2266632.06943  23771125.9974   23771122.9424
      2129.1254
  -1696619.89247  -1313342.76644  23134761.6534   23134759.6734
       185.7504
  -4825758.92949  -3739838.05245  22503948.4424   22503945.7284
      2096.0004
    448541.87649    347680.91847  20439017.4974   20439013.4504
      -765.6564
   5446477.68349   4218686.96646  22278062.1144   22278056.6734
     -3038.1414
  -2218744.25649  -1720237.44347  21372001.0284   21371997.3414
       827.8134
 04  9  7 21 29 15.0010000  0  6G19G 3G 8G13G23G27
  -2954704.98147  -2291486.55743  23765055.7474   23765053.1304
      2124.0004
  -1699332.12448  -1315456.15444  23134245.8024   23134243.1884
       176.1094
  -4857171.05948  -3764315.00545  22497970.9664   22497968.1924
      2092.5474
    460091.23249    356680.40147  20441215.1774   20441211.1344
      -774.0164
   5492094.21549   4254232.27446  22286742.5834   22286737.4854
     -3043.8754
  -2231132.67049  -1729890.73847  21369644.1224   21369640.0244
       824.2974
 04  9  7 21 29 30.0010000  0  6G19G 3G 8G13G23G27
  -2986522.08948  -2316279.05644  23759001.9114   23758998.3454
      2118.2194
  -1701895.42748  -1317453.52844  23133758.4424   23133755.3024
       165.6884
  -4888528.75548  -3788749.53045  22492003.4814   22492001.3964
      2088.4534
    471767.87749    365779.08347  20443437.3024   20443433.0604
      -782.9694
   5537799.36449   4289846.65446  22295439.6464   22295434.8254
     -3050.1874
  -2243465.82249  -1739500.97947  21367296.7944   21367293.0994
       820.1094
 04  9  7 21 29 45.0010000  0  6G19G 3G 8G13G23G27
  -3018257.76648  -2341008.10344  23752962.6534   23752959.1384
      2112.9384
  -1704308.18448  -1319333.61044  23133298.4664   23133296.4744
       155.7974
  -4919830.46648  -3813140.46645  22486047.1774   22486044.8214
      2084.8284
    483573.36949    374978.15847  20445683.6614   20445679.4274
      -791.3594
   5583594.51749   4325531.14446  22304154.4894   22304149.6774
     -3056.0004
  -2255742.21149  -1749066.99447  21364960.8724   21364957.5134
       816.4534
 04  9  7 21 30  0.0010000  0  6G19G 3G 8G13G23G27
  -3049912.90548  -2365674.38144  23746938.8964   23746935.3254
      2107.4534
  -1706571.62947  -1321097.30944  23132867.7474   23132865.7204
       145.7974
  -4951077.24749  -3837488.57845  22480101.3644   22480098.8104
      2081.1094
    495506.60549    384276.78047  20447954.7634   20447950.0174
      -799.9224
   5629478.25249   4361284.64946  22312886.3804   22312880.4894
     -3062.0474
  -2267963.14049  -1758589.78247  21362635.1614   21362631.5214
       812.7194
 04  9  7 21 30 15.0010000  0  6G19G 3G 8G13G23G27
  -3081486.89648  -2390277.43744  23740930.4744   23740927.4624
      2102.0784
  -1708685.29247  -1322744.30544  23132466.1224   23132463.4814
       135.7194
  -4982268.85348  -3861793.69145  22474165.6614   22474163.0484
      2077.4534
    507567.85449    393675.14647  20450249.6464   20450245.3104
      -808.4694
   5675450.67849   4397107.28646  22321634.8174   22321629.4624
     -3067.9224
  -2280128.33349  -1768069.15047  21360320.2714   21360316.1104
       808.9844
 04  9  7 21 30 30.0010000  0  6G19G 3G 8G13G23G27
  -3112980.08648  -2414817.54944  23734937.7864   23734934.0404
      2096.8594
  -1710649.76647  -1324275.04844  23132091.5604   23132089.6224
       125.9224
  -5013406.19049  -3886056.53045  22468240.4034   22468237.6494
      2074.0004
    519756.40249    403172.71347  20452569.4974   20452564.9624
      -816.7814
   5721511.03449   4432998.43446  22330399.6854   22330394.2004
     -3073.6564
  -2292238.55249  -1777505.68547  21358015.7084   21358012.1144
       805.4844
 04  9  7 21 30 45.0010000  0  6G19G 3G 8G13G23G27
  -3144392.37148  -2439294.58144  23728960.5754   23728956.9974
      2091.7034
  -1712465.12047  -1325689.60644  23131746.9424   23131744.8294
       116.2504
  -5044489.46748  -3910277.23845  22462325.3334   22462322.6224
      2070.6884
    532072.24849    412769.46147  20454912.8644   20454908.4114
      -825.0314
   5767658.76149   4468957.65646  22339181.4974   22339176.1264
     -3079.1254
  -2304294.05349  -1786899.57847  21355721.3644   21355718.0134
       802.1724
 04  9  7 21 31  0.0010000  0  6G19G 3G 8G13G23G27
  -3175722.59348  -2463707.69644  23722998.2634   23722995.2394
      2085.7814
  -1714130.45347  -1326987.24843  23131429.1144   23131427.3174
       105.8444
  -5075517.52448  -3934454.92445  22456420.9034   22456417.9074
      2066.5314
    544516.05249    422465.92447  20457280.9814   20457276.5364
      -834.0164
   5813894.70548   4504985.61846  22347979.3334   22347974.4504
     -3085.5004
  -2316293.94049  -1796250.13247  21353438.3564   21353434.4544
       798.0314
 04  9  7 21 31 15.0010000  0  6G19G 3G 8G13G23G27
  -3206969.93348  -2488056.22244  23717051.9584   23717048.4504
      2080.6414
  -1715645.35147  -1328167.67244  23131141.2474   23131138.4784
        96.2814
  -5106490.14249  -3958589.41145  22450527.2474   22450523.6734
      2063.3284
    557088.35049    432262.52147  20459673.2634   20459668.8644
      -842.1564
   5860219.04849   4541082.48846  22356795.0834   22356789.8844
     -3090.9064
  -2328237.86549  -1805557.07447  21351165.0674   21351161.5484
       794.6254
 04  9  7 21 31 30.0010000  0  6G19G 3G 8G13G23G27
  -3238136.25448  -2512341.60844  23711121.7314   23711117.4194
      2074.9534
  -1717011.66847  -1329232.31544  23130880.8334   23130878.8964
        86.0164
  -5137409.57449  -3982682.43845  22444643.3494   22444639.9814
      2059.4534
    569787.12949    442157.65447  20462089.8564   20462085.3844
      -850.9374
   5906629.45449   4577246.38146  22365626.1924   22365620.8994
     -3096.9694
  -2340127.99949  -1814822.11447  21348902.6304   21348899.3334
       790.7664
 04  9  7 21 31 45.0010000  0  6G19G 3G 8G13G23G27
  -3269217.52648  -2536560.73444  23705206.7784   23705203.0054
      2069.5784
  -1718225.71647  -1330178.32044  23130649.8334   23130647.6774
        76.1884
  -5168271.77448  -4006730.87845  22438770.5604   22438767.8214
      2055.8754
    582615.98149    452154.15347  20464531.2634   20464526.8294
      -859.3594
   5953129.34149   4613480.01746  22374475.3254   22374470.0634
     -3102.7034
  -2351960.65849  -1824042.36547  21346651.0754   21346647.2164
       787.2814
 04  9  7 21 32  0.0010000  0  6G19G 3G 8G13G23G27
  -3300216.27848  -2560715.55144  23699307.4894   23699304.2984
      2064.1094
  -1719290.29748  -1331007.84744  23130447.7084   23130445.1774
        66.2504
  -5199079.84448  -4030737.15645  22432908.0444   22432904.9314
      2052.2664
    595572.21549    462249.92447  20466996.9034   20466992.3064
      -867.7504
   5999715.70548   4649781.06346  22383340.4814   22383334.8064
     -3108.4534
  -2363738.80349  -1833220.14047  21344409.7784   21344405.7714
       783.5784
 04  9  7 21 32 15.0010000  0  6G19G 3G 8G13G23G27
  -3331131.13948  -2584804.99444  23693425.4744   23693421.2634
      2058.1254
  -1720204.32148  -1331720.07644  23130274.5914   23130271.3454
        55.8754
  -5229832.53849  -4054700.27445  22427055.6614   22427052.3844
      2048.2814
    608656.66249    472445.58747  20469486.5054   20469481.8104
      -876.6414
   6046389.44549   4686150.15946  22392221.7084   22392216.9934
     -3114.4844
  -2375461.41749  -1842354.63647  21342179.0214   21342175.2784
       779.5784
 04  9  7 21 32 30.0010000  0  6G19G 3G 8G13G23G27
  -3361962.32847  -2608829.25244  23687557.6614   23687554.5214
      2052.6254
  -1720968.11548  -1332315.22344  23130129.0134   23130126.3374
        45.8134
  -5260530.45448  -4078620.69545  22421213.8024   22421211.1464
      2044.7974
    621868.93449    482740.85447  20472000.8964   20471996.3494
      -885.1094
   6093149.94249   4722586.87346  22401120.4194   22401114.9274
     -3120.2814
  -2387129.03249  -1851446.27547  21339958.6694   21339955.1734
       776.0474
 04  9  7 21 32 45.0010000  0  6G19G 3G 8G13G23G27
  -3392707.05248  -2632786.14044  23681707.7864   23681703.4034
      2046.8444
  -1721579.22848  -1332791.40644  23130011.9194   23130009.7284
        35.7194
  -5291171.23348  -4102496.62245  22415383.5134   22415380.4544
      2040.8914
    635211.50949    493137.66347  20474539.7474   20474535.3254
      -893.6874
   6139999.38449   4759092.89645  22410035.5834   22410029.4784
     -3126.1564
  -2398739.17349  -1860493.14147  21337749.5674   21337745.8804
       772.2194
 04  9  7 21 33  0.0010000  0  6G19G 3G 8G13G23G27
  -3423366.31947  -2656676.41344  23675872.7394   23675868.6734
      2041.1254
  -1722038.88448  -1333149.56044  23129924.5364   23129922.1304
        25.6564
  -5321756.17649  -4126329.02845  22409563.0604   22409560.4744
      2037.1884
    648683.10449    503635.01347  20477102.9974   20477098.7004
      -902.3914
   6186936.22849   4795667.02946  22418966.6774   22418962.0134
     -3131.9844
  -2410293.28249  -1869496.33247  21335550.7784   21335546.9744
       768.4384
 04  9  7 21 33 15.0010000  0  6G19G 3G 8G13G23G27
  -3453939.72247  -2680499.80544  23670054.6774   23670050.7394
      2035.3914
  -1722346.93547  -1333389.59544  23129865.9354   23129863.4354
        15.5164
  -5352285.23548  -4150117.86845  22403753.9664   22403751.9464
      2033.5314
    662283.74449    514232.89847  20479691.2554   20479686.9114
      -911.0004
   6233960.40649   4832309.21146  22427915.4194   22427910.7634
     -3137.7814
  -2421791.33849  -1878455.84947  21333362.7474   21333358.4114
       764.7034
 04  9  7 21 33 30.0010000  0  6G19G 3G 8G13G23G27
  -3484427.85547  -2704256.72444  23664253.2084   23664249.2394
      2029.7344
  -1722504.33947  -1333512.23844  23129836.2004   23129833.7204
         5.4384
  -5382759.34848  -4173863.91145  22397954.6384   22397951.6424
      2029.7194
    676012.66349    524930.76047  20482304.0284   20482299.2554
      -919.5474
   6281070.77349   4869018.55046  22436880.4194   22436875.2944
     -3143.5944
  -2433234.29649  -1887372.43647  21331185.0364   21331181.2864
       760.9844
 04  9  7 21 33 45.0010000  0  6G19G 3G 8G13G23G27
  -3514830.45047  -2727947.02344  23658468.1224   23658463.9354
      2023.7504
  -1722511.02748  -1333517.43343  23129834.7244   23129831.8724
        -4.6564
  -5413178.37848  -4197567.01845  22392165.8254   22392163.5214
      2026.0784
    689869.81949    535728.54247  20484940.6694   20484936.1884
      -928.2034
   6328267.09549   4905794.86746  22445861.1064   22445856.5914
     -3149.3444
  -2444622.19149  -1896246.10847  21329018.3024   21329014.6774
       757.2344
 04  9  7 21 34  0.0010000  0  6G19G 3G 8G13G23G27
  -3545147.18947  -2751570.41044  23652698.9274   23652694.6344
      2018.2664
  -1722366.85447  -1333405.09144  23129862.3884   23129859.2554
       -14.6414
  -5443542.43448  -4221227.31446  22386387.8334   22386385.1614
      2022.4534
    703855.09549    546626.14447  20487601.9114   20487597.2474
      -936.6724
   6375549.24549   4942638.05345  22454858.7864   22454854.1344
     -3155.0164
  -2455954.97349  -1905076.84147  21326861.3414   21326857.4154
       753.7664
 04  9  7 21 34 15.0010000  0  6G19G 3G 8G13G23G27
  -3575375.34347  -2775124.77544  23646947.0754   23646942.5444
      2012.3284
  -1722069.39247  -1333173.30644  23129918.6464   23129916.3564
       -24.9374
  -5473849.11948  -4244842.88546  22380620.3024   22380618.5604
      2018.6094
    717970.78748    557625.37947  20490288.5284   20490283.4194
      -945.3284
   6422919.26649   4979549.72845  22463873.3644   22463868.2434
     -3160.8124
  -2467230.49749  -1913862.96247  21324716.1614   21324712.3294
       749.8754
 04  9  7 21 34 30.0010000  0  6G19G 3G 8G13G23G27
  -3605515.44747  -2798610.54444  23641210.8494   23641206.9784
      2006.4694
  -1721619.52147  -1332822.73744  23130004.5524   23130002.2514
       -35.0474
  -5504099.29548  -4268414.43346  22374863.9974   22374861.5054
      2014.8134
    732216.22649    568725.72547  20492999.3884   20492994.9544
      -954.0004
   6470376.20949   5016529.12845  22472903.8724   22472899.4384
     -3166.6254
  -2478449.65849  -1922605.15847  21322581.0444   21322577.2554
       746.0944
 04  9  7 21 34 45.0010000  0  6G19G 3G 8G13G23G27
  -3635568.51647  -2822028.45444  23635491.7714   23635488.4584
      2000.7344
  -1721018.36547  -1332354.30044  23130118.6064   23130116.6884
       -44.9064
  -5534294.29348  -4291942.97846  22369117.8724   22369115.7044
      2011.3444
    746590.01049    579926.06847  20495734.0054   20495729.3844
      -962.3444
   6517918.52248   5053575.04245  22481951.4114   22481945.8494
     -3172.1254
  -2489613.66949  -1931304.38347  21320456.5364   21320452.9544
       742.6414
 04  9  7 21 35  0.0010000  0  6G19G 3G 8G13G23G27
  -3665534.56147  -2845378.59444  23629789.1384   23629785.5484
      1994.7664
  -1720266.27147  -1331768.22344  23130261.5214   23130259.5444
       -55.0944
  -5564434.32948  -4315428.70946  22363382.9584   22363380.5994
      2007.5314
    761091.85149    591226.19447  20498494.2554   20498489.7634
      -971.0314
   6565545.81948   5090687.17946  22491013.9424   22491008.7714
     -3177.9844
  -2500722.85249  -1939960.88247  21318342.4194   21318338.8174
       738.7664
 04  9  7 21 35 15.0010000  0  6G19G 3G 8G13G23G27
  -3695412.80546  -2868660.29344  23624103.6694   23624099.9154
      1988.5634
  -1719362.63247  -1331064.08844  23130433.6064   23130431.3924
       -65.6254
  -5594518.94148  -4338871.23646  22357657.8724   22357655.6654
      2003.5164
    775722.26549    602626.50747  20501277.8644   20501273.2314
      -979.9534
   6613258.25248   5127865.65445  22500094.0364   22500088.2904
     -3184.0004
  -2511776.88349  -1948574.40347  21316238.9974   21316235.3764
       734.7194
 04  9  7 21 35 30.0010000  0  6G19G 3G 8G13G23G27
  -3725200.91847  -2891871.77144  23618435.4664   23618431.4234
      1982.8444
  -1718305.31747  -1330240.19944  23130634.7314   23130632.5954
       -75.6094
  -5624546.26348  -4362269.14045  22351943.9354   22351940.5214
      1999.8914
    790483.31349    614128.61347  20504087.1534   20504082.7474
      -988.4374
   6661057.77849   5165111.98945  22509189.5054   22509184.9854
     -3189.5944
  -2522773.74549  -1957143.39147  21314146.2004   21314142.4584
       731.1414
 04  9  7 21 35 45.0010000  0  6G19G 3G 8G13G23G27
  -3754899.40147  -2915013.40344  23612783.6614   23612779.5524
      1976.9384
  -1717095.15248  -1329297.19044  23130864.8494   23130862.5954
       -85.6724
  -5654516.95248  -4385622.89945  22346240.7164   22346237.9584
      1996.2814
    805374.19549    625731.89747  20506920.4274   20506916.1534
      -997.0314
   6708943.35549   5202425.40545  22518301.9894   22518296.7904
     -3195.1564
  -2533714.21349  -1965668.42447  21312064.4034   21312060.6064
       727.5004
 04  9  7 21 36  0.0010000  0  6G19G 3G 8G13G23G27
  -3784510.49447  -2938086.93944  23607148.6694   23607144.9354
      1971.0004
  -1715734.62448  -1328237.03344  23131124.3804   23131121.7314
       -95.7974
  -5684433.69948  -4408934.63545  22340547.3964   22340545.2514
      1992.5314
    820392.28549    637434.30047  20509778.4194   20509774.1774
     -1005.5164
   6756912.06148   5239803.57345  22527429.9354   22527425.0874
     -3200.6874
  -2544601.00849  -1974151.62947  21309992.5754   21309989.1344
       723.8444
 04  9  7 21 36 15.0010000  0  7G19G 3G 8G13G10G23G27
  -3814031.81847  -2961090.54444  23601531.4274   23601527.2474
      1965.2034
  -1714221.72148  -1327058.16144  23131412.3104   23131409.8104
      -105.7974
  -5714294.30149  -4432202.61145  22334865.1774   22334862.2554
      1988.9534
    835539.48649    649237.30547  20512661.0364   20512656.7904
     -1014.0314
    -79557.87756    -57622.67452  24341536.4814   24341533.5214
      2016.6094
   6804965.78948   5277248.00145  22536574.2004   22536569.2314
     -3206.2504
  -2555432.13049  -1982591.47447  21307931.5914   21307927.7864
       720.3134
 04  9  7 21 36 30.0010000  0  7G19G 3G 8G13G10G23G27
  -3843461.06347  -2984022.38744  23595931.1924   23595927.2744
      1958.7814
  -1712554.36848  -1325758.90944  23131729.2634   23131726.8104
      -116.3914
  -5744096.88548  -4455425.38246  22329193.7004   22329191.5134
      1984.8134
    850817.93449    661142.57547  20515568.3724   20515563.8534
     -1023.0784
   -109743.17645    -81143.69342  24335792.9894   24335790.1264
      2008.1414
   6853106.37748   5314760.11445  22545735.2084   22545730.0794
     -3212.3594
  -2566205.56549  -1990986.34247  21305881.2164   21305877.6224
       716.1564
 04  9  7 21 36 45.0010000  0  7G19G 3G 8G13G10G23G27
  -3872804.62147  -3006887.44344  23590346.6384   23590343.2284
      1953.4224
  -1710739.18648  -1324344.45544  23132074.7864   23132072.6734
      -125.9224
  -5773848.35948  -4478608.33146  22323532.1924   22323530.2314
      1981.6564
    866220.94849    673144.91847  20518499.0214   20518494.6104
     -1030.9064
   -139810.86145   -104573.03942  24330071.1304   24330068.2984
      2000.7194
   6901326.94948   5352334.54645  22554911.2944   22554906.0714
     -3217.2974
  -2576927.99449  -1999341.48047  21303840.9114   21303837.4314
       713.1724
 04  9  7 21 37  0.0010000  0  7G19G 3G 8G13G10G23G27
  -3902061.06747  -3029684.63344  23584778.9424   23584775.7784
      1947.8594
  -1708774.98148  -1322813.89644  23132448.2864   23132446.2004
      -135.6874
  -5803547.12248  -4501750.19646  22317881.2084   22317878.5244
      1978.4224
    881749.70249    685245.22847  20521454.4194   20521450.0604
     -1039.2034
   -169759.47845   -127909.63242  24324371.7164   24324369.0604
      1992.7814
   6949628.43448   5389972.01045  22564103.3564   22564097.7314
     -3222.5314
  -2587598.43549  -2007656.10447  21301810.5914   21301807.1344
       709.9384
 04  9  7 21 37 15.0010000  0  7G19G 3G 8G13G10G23G27
  -3931227.63247  -3052411.79744  23579229.2474   23579225.6814
      1941.3444
  -1706659.20548  -1321165.23144  23132851.6304   23132848.8294
      -146.0944
  -5833190.87248  -4524849.19946  22312240.1694   22312236.9974
      1974.4064
    897406.57449    697445.37947  20524433.5604   20524429.2554
     -1048.0784
   -199586.50345   -151151.42842  24318695.2164   24318692.9384
      1984.3134
   6998013.04748   5427674.27345  22573309.8334   22573305.1854
     -3228.4374
  -2598214.51349  -2015928.37047  21299790.3564   21299786.7124
       705.8754
 04  9  7 21 37 30.0010000  0  7G19G 3G 8G13G10G23G27
  -3960303.27548  -3075068.09944  23573696.2864   23573693.1144
      1935.4224
  -1704391.15048  -1319397.90644  23133283.1064   23133280.4154
      -156.2194
  -5862778.88648  -4547904.76946  22306609.5754   22306607.2674
      1970.7504
    913192.32549    709745.95147  20527437.7864   20527433.1344
     -1056.6414
   -229290.80645   -174297.63742  24313042.4424   24313040.4034
      1976.1724
   7046481.33248   5465441.71045  22582533.7784   22582528.6654
     -3233.9224
  -2608775.42549  -2024157.64447  21297780.5134   21297777.1464
       702.2664
 04  9  7 21 37 45.0010000  0  7G19G 3G 8G13G10G23G27
  -3989289.82947  -3097654.99244  23568180.8334   23568177.0754
      1929.5634
  -1701973.15248  -1317513.73944  23133743.0834   23133740.2744
      -166.0944
  -5892313.70048  -4570918.88946  22300989.2554   22300985.9934
      1967.2974
    929104.77549    722145.26447  20530465.8644   20530461.5094
     -1065.0314
   -258874.36645   -197349.71942  24307412.7634   24307411.1654
      1968.1254
   7095030.82548   5503272.44745  22591772.3414   22591767.1774
     -3239.2814
  -2619283.45149  -2032345.71447  21295781.0444   21295777.5404
       698.8284
 04  9  7 21 38  0.0010000  0  7G19G 3G 8G13G10G23G27
  -4018187.03047  -3120172.23644  23562681.0674   23562677.7084
      1923.5784
  -1699405.01148  -1315512.58544  23134231.3644   23134228.7204
      -176.1414
  -5921795.21948  -4593891.48046  22295379.1924   22295376.1104
      1963.7814
    945143.85649    734643.23447  20533518.0834   20533513.7594
     -1073.4224
   -288336.93545   -220307.55942  24301807.5914   24301804.9234
      1960.1094
   7143661.44948   5541166.40445  22601026.2394   22601021.3564
     -3244.6414
  -2629738.53649  -2040492.54147  21293791.2164   21293788.0714
       695.2814
 04  9  7 21 38 15.0010000  0  7G19G 3G 8G13G10G23G27
  -4046993.82947  -3142619.07044  23557199.7554   23557196.1304
      1917.5314
  -1696685.91948  -1313393.80543  23134748.6224   23134746.2554
      -186.1414
  -5951222.20548  -4616821.57746  22289779.4814   22289776.6924
      1960.1724
    961310.36549    747240.50647  20536594.2164   20536590.0214
     -1081.8444
   -317677.60245   -243170.41142  24296223.0674   24296222.0484
      1952.1414
   7192373.66148   5579123.93245  22610295.3804   22610290.6464
     -3250.0474
  -2640140.05149  -2048597.59447  21291811.7394   21291808.9504
       691.8444
 04  9  7 21 38 30.0010000  0  7G19G 3G 8G13G10G23G27
  -4075708.39246  -3164994.00944  23551735.2244   23551731.9784
      1911.2504
  -1693814.31447  -1311156.17044  23135295.1694   23135292.7984
      -196.4534
  -5980593.41948  -4639708.21246  22284189.8964   22284187.2314
      1956.2974
    977605.76949    759938.22747  20539695.2244   20539690.9624
     -1090.6414
   -346894.54645   -265936.86142  24290663.5604   24290661.7824
      1943.7664
   7241168.94248   5617146.19245  22619581.2314   22619576.2004
     -3255.7504
  -2650486.44849  -2056659.72047  21289842.8494   21289839.6694
       687.9224
 04  9  7 21 38 45.0010000  0  7G19G 3G 8G13G10G23G27
  -4104332.45447  -3187298.43444  23546288.3884   23546284.7594
      1905.2194
  -1690792.28048  -1308801.33143  23135869.6304   23135867.8644
      -206.5004
  -6009911.20248  -4662553.21946  22278611.4034   22278608.8334
      1952.7194
    994027.90649    772734.68347  20542820.2004   20542815.6574
     -1099.0164
   -375989.76145   -288608.37842  24285126.9274   24285125.3294
      1935.6254
   7290044.85948   5655231.27445  22628882.3494   22628877.5094
     -3261.1094
  -2660779.88849  -2064680.58247  21287884.1064   21287880.7244
       684.4224
 04  9  7 21 39  0.0010000  0  7G19G 3G 8G13G10G23G27
  -4132863.26547  -3209530.20344  23540858.5754   23540855.3104
      1898.5634
  -1687617.17348  -1306327.23144  23136474.1854   23136471.9154
      -217.0784
  -6039172.83948  -4685354.48046  22273043.0914   22273040.2744
      1948.6564
   1010579.42749    785631.96947  20545970.0834   20545965.6184
     -1108.0474
   -404960.48345   -311182.95442  24279614.1694   24279612.5404
      1926.9224
   7339003.85348   5693381.09545  22638198.9424   22638194.4974
     -3267.0164
  -2671017.85449  -2072658.22847  21285936.4274   21285932.6264
       680.3914
 04  9  7 21 39 15.0010000  0  7G19G 3G 8G13G10G23G27
  -4161305.59346  -3231693.02144  23535446.7554   23535442.9974
      1893.0944
  -1684294.12347  -1303737.81944  23137106.7244   23137104.1464
      -226.6254
  -6068383.16648  -4708115.74546  22267484.4274   22267481.5014
      1945.5164
   1027255.19649    798626.07947  20549142.9664   20549138.9664
     -1116.0004
   -433811.41245   -333664.19142  24274123.7314   24274122.0484
      1919.1414
   7388040.50348   5731591.44745  22647530.3334   22647525.6574
     -3271.8754
  -2681205.56749  -2080596.68347  21283997.2944   21283993.9894
       677.3914
 04  9  7 21 39 30.0010000  0  7G19G 3G 8G13G10G23G27
  -4189653.02147  -3253781.87944  23530052.0054   23530048.5244
      1886.9694
  -1680817.10547  -1301028.44244  23137768.0674   23137765.9814
      -236.5624
  -6097536.37548  -4730832.50546  22261936.6064   22261933.8294
      1941.9694
   1044061.08249    811721.56847  20552341.3644   20552336.7714
     -1124.3594
   -462536.46246   -356047.32642  24268657.8254   24268655.6774
      1911.0634
   7437160.63348   5769866.83045  22656877.6694   22656872.8374
     -3277.1564
  -2691337.00849  -2088491.30747  21282069.4664   21282065.7864
       673.9384
 04  9  7 21 39 45.0010000  0  7G19G 3G 8G13G10G23G27
  -4217912.75146  -3275802.41744  23524674.1854   23524670.8174
      1880.6884
  -1677193.42948  -1298204.79444  23138458.0754   23138455.9784
      -246.8124
  -6126639.81848  -4753510.49146  22256398.3494   22256395.5174
      1938.2194
   1060989.93149    824912.86747  20555562.7084   20555558.5674
     -1133.0314
   -491142.77146   -378337.96142  24263213.9424   24263212.0284
      1902.7344
   7486356.57648   5808201.30445  22666239.5364   22666234.7084
     -3282.5944
  -2701419.55749  -2096347.83947  21280151.1064   21280146.9384
       670.2034
 04  9  7 21 40  0.0010000  0  7G19G 3G 8G13G10G23G27
  -4246080.77846  -3297751.48944  23519314.3564   23519310.8924
      1874.7974
  -1673419.39347  -1295263.98544  23139175.9744   23139173.9974
      -256.6414
  -6155690.03149  -4776147.00846  22250870.7004   22250867.4114
      1934.9224
   1078045.29749    838202.75647  20558808.6144   20558804.1064
     -1141.2194
   -519626.48846   -400533.01142  24257794.2084   24257790.9854
      1894.8284
   7535631.91048   5846597.62945  22675615.9354   22675611.4424
     -3287.6094
  -2711449.63449  -2104163.48347  21278242.4584   21278238.8604
       666.9694
 04  9  7 21 40 15.0010000  0  7G19G 3G 8G13G10G23G27
  -4274153.01946  -3319625.93344  23513972.6534   23513968.9314
      1868.4064
  -1669491.30947  -1292203.12344  23139923.6924   23139921.7474
      -266.8124
  -6184683.23948  -4798739.07546  22245353.0444   22245350.3374
      1931.1724
   1095230.88149    851594.10947  20562078.6064   20562074.5604
     -1149.8594
   -547983.66446   -422629.51742  24252397.3804   24252395.1304
      1886.4534
   7584990.17148   5885058.56545  22685008.5754   22685003.9354
     -3293.1414
  -2721423.56549  -2111935.37247  21276344.0914   21276340.7354
       663.3134
 04  9  7 21 40 30.0010000  0  7G19G 3G 8G13G10G23G27
  -4302133.91547  -3341429.19244  23508647.6144   23508644.4114
      1862.3914
  -1665413.94347  -1289025.96444  23140699.3564   23140697.2284
      -276.6874
  -6213624.05049  -4821290.34446  22239845.7314   22239842.1494
      1927.7814
   1112541.86848    865083.16747  20565372.6384   20565368.2714
     -1158.0784
   -576218.74746   -444630.86642  24247023.5674   24247022.4034
      1878.4844
   7634426.23648   5923580.13345  22694416.4974   22694411.2084
     -3298.1874
  -2731346.07349  -2119667.19547  21274455.9034   21274452.3104
       659.9064
 04  9  7 21 40 45.0010000  0  7G19G 3G 8G13G10G23G27
  -4330020.59846  -3363159.03644  23503341.2164   23503337.3534
      1856.1094
  -1661184.61348  -1285730.39143  23141504.8254   23141502.2674
      -286.9374
  -6242509.83349  -4843798.71546  22234349.0754   22234346.3994
      1924.0164
   1129980.83049    878671.97547  20568691.1464   20568686.7204
     -1166.7664
   -604328.80246   -466534.79742  24241675.8254   24241672.9744
      1869.8444
   7683942.62348   5962164.30245  22703838.7634   22703834.0634
     -3303.6414
  -2741214.55149  -2127356.90847  21272578.3884   21272574.9744
       656.2034
 04  9  7 21 41  0.0010000  0  7G19G 3G 8G13G10G23G27
  -4357812.32646  -3384814.86944  23498052.8104   23498048.9624
      1849.6724
  -1656802.83748  -1282315.99244  23142337.9194   23142335.8104
      -297.0314
  -6271340.23548  -4866263.93546  22228862.6694   22228859.5484
      1920.3594
   1147548.22149    892360.84147  20572034.1064   20572030.0794
     -1175.3444
   -632313.35247   -488340.94642  24236350.1854   24236348.3924
      1861.5634
   7733539.65248   6000811.29645  22713276.8494   22713272.1494
     -3309.0474
  -2751028.64249  -2135004.25147  21270710.6614   21270706.5834
       652.5944
 04  9  7 21 41 15.0010000  0  7G19G 3G 8G13G10G23G27
  -4385510.18846  -3406397.59744  23492781.5284   23492778.1104
      1843.6564
  -1652269.95747  -1278783.88244  23143200.5914   23143198.4274
      -306.9534
  -6300116.60348  -4888687.06546  22223386.6144   22223383.8494
      1916.9224
   1165242.66049    906148.69847  20575401.2004   20575396.9314
     -1183.5474
   -660173.57845   -510050.17542  24231048.2314   24231046.4114
      1853.4844
   7783215.70948   6039519.86245  22722730.4814   22722725.1854
     -3314.1094
  -2760789.81449  -2142610.35647  21268852.9664   21268849.5094
       649.2344
 04  9  7 21 41 30.0010000  0  7G19G 3G 8G13G10G23G27
  -4413115.00347  -3427907.79444  23487528.2634   23487524.8884
      1837.2034
  -1647587.08847  -1275134.88643  23144091.3724   23144088.8964
      -317.2974
  -6328840.06248  -4911068.95046  22217920.4974   22217917.5134
      1913.1564
   1183062.99849    920034.67947  20578792.6464   20578788.2674
     -1192.2504
   -687910.32446   -531663.18842  24225770.6464   24225769.1264
      1845.0164
   7832969.33848   6078288.88545  22732197.7554   22732193.4384
     -3319.5474
  -2770499.23349  -2150176.13747  21267005.4974   21267002.1814
       645.4844
 04  9  7 21 41 45.0010000  0  7G19G 3G 8G13G10G23G27
  -4440625.19947  -3449344.27844  23482293.8494   23482289.8884
      1830.8914
  -1642752.97747  -1271368.03243  23145012.1534   23145009.1654
      -327.2194
  -6357509.30849  -4933408.61446  22212465.1464   22212461.9154
      1909.5634
   1201010.46649    934019.71347  20582207.6144   20582203.2084
     -1200.7194
   -715522.17347   -553178.87542  24220516.2864   24220513.5214
      1836.6724
   7882801.56848   6117119.17145  22741680.2634   22741675.6304
     -3324.6564
  -2780155.60949  -2157700.58447  21265168.0214   21265164.2314
       642.0634
 04  9  7 21 42  0.0010000  0  7G19G 3G 8G13G10G23G27
  -4468041.61047  -3470707.67444  23477076.9974   23477073.1184
      1824.6254
  -1637768.76048  -1267484.23544  23145960.8964   23145957.4384
      -337.2974
  -6386125.61649  -4955707.00846  22207019.5364   22207017.0214
      1906.0164
   1219083.88649    948102.89247  20585646.8254   20585642.5914
     -1209.1094
   -743010.12446   -574598.04242  24215285.6144   24215283.3764
      1828.4844
   7932711.10048   6156009.67745  22751177.7084   22751173.5604
     -3329.8594
  -2789760.18149  -2165184.65547  21263339.9744   21263336.2284
       638.5784
 04  9  7 21 42 15.0010000  0  7G19G 3G 8G13G10G23G27
  -4495360.00447  -3491994.67744  23471878.3174   23471874.2124
      1818.2974
  -1632630.37247  -1263480.31344  23146937.7554   23146935.6304
      -347.3914
  -6414684.94749  -4977961.01246  22201585.2314   22201581.7634
      1902.3594
   1237287.23749    962287.30147  20589110.8494   20589106.6424
     -1217.6414
   -770369.79947   -595917.28642  24210079.7554   24210076.5834
      1820.0164
   7982701.70948   6194963.34145  22760690.9974   22760686.3684
     -3335.0624
  -2799308.92649  -2172625.23447  21261523.0524   21261519.5014
       634.9694
 04  9  7 21 42 30.0010000  0  7G19G 3G 8G13G10G23G27
  -4522584.86147  -3513208.83444  23466697.4814   23466692.6774
      1811.5314
  -1627342.78047  -1259360.09444  23147943.8024   23147941.5674
      -357.7664
  -6443192.15549  -5000174.40346  22196160.7474   22196156.7784
      1898.4844
   1255615.63449    976569.17047  20592598.8174   20592594.4934
     -1226.3594
   -797605.89947   -617140.20342  24204896.6144   24204893.9194
      1811.4224
   8032768.31148   6233976.24545  22770217.8104   22770213.8764
     -3340.5944
  -2808806.68849  -2180026.08447  21259715.9354   21259711.8104
       631.2034
 04  9  7 21 42 45.0010000  0  7G19G 3G 8G13G10G23G27
  -4549713.87147  -3534348.25844  23461534.4194   23461530.3064
      1805.3134
  -1621903.84347  -1255121.96444  23148979.4814   23148977.0634
      -367.7504
  -6471645.42049  -5022345.75946  22190745.8964   22190742.6924
      1895.0004
   1274071.05749    990950.00747  20596110.9894   20596106.9974
     -1234.6564
   -824716.31746   -638265.13542  24199737.2164   24199734.3994
      1803.1094
   8082912.64448   6273049.71645  22779760.5754   22779755.6924
     -3345.6094
  -2818251.64949  -2187385.79247  21257918.3964   21257914.6104
       627.7664
 04  9  7 21 43  0.0010000  0  7G19G 3G 8G13G10G23G27
  -4576744.73647  -3555411.23244  23456391.0214   23456386.3414
      1798.9694
  -1616311.51347  -1250764.29444  23150043.4664   23150040.9784
      -377.8124
  -6500042.21549  -5044473.11046  22185342.6464   22185338.7824
      1891.4844
   1292655.72549   1005431.54947  20599647.4354   20599642.9934
     -1243.0944
   -851698.66046   -659290.40542  24194602.5754   24194600.4814
      1794.7034
   8133136.72148   6312185.32345  22789317.6694   22789313.4934
     -3350.7344
  -2827641.58849  -2194702.62047  21256130.8104   21256128.0484
       624.3444
 04  9  7 21 43 15.0010000  0  7G19G 3G 8G13G10G23G27
  -4603681.99947  -3576401.29344  23451265.3804   23451260.8254
      1792.1884
  -1610570.58247  -1246290.84743  23151135.8884   23151133.5874
      -388.2664
  -6528387.85349  -5066560.60146  22179947.9974   22179944.9784
      1887.4694
   1311364.48549   1020009.77547  20603207.3414   20603203.7084
     -1251.9064
   -878557.59446   -680219.39142  24189491.7394   24189488.8684
      1785.9694
   8183435.44648   6351379.09145  22798889.0914   22798885.0054
     -3356.2974
  -2836981.56949  -2201980.53347  21254353.9664   21254350.7714
       620.5474
 04  9  7 21 43 30.0010000  0  7G19G 3G 8G13G10G23G27
  -4630520.99347  -3597314.73344  23446157.7164   23446153.5954
      1786.3444
  -1604676.76547  -1241698.25844  23152256.9744   23152255.4074
      -397.6564
  -6556677.78549  -5088604.67146  22174564.8564   22174561.4664
      1884.4844
   1330201.67349   1034688.09847  20606792.1924   20606788.1654
     -1259.7504
   -905288.55546   -701048.67942  24184404.9424   24184401.9314
      1778.1254
   8233812.91048   6390634.21645  22808476.1534   22808471.0134
     -3360.7194
  -2846267.11049  -2209216.00347  21252587.4274   21252583.4894
       617.5314
 04  9  7 21 43 45.0010000  0  7G19G 3G 8G13G10G23G27
  -4657266.86547  -3618155.63344  23441068.4894   23441063.8534
      1779.8134
  -1598635.54647  -1236990.82144  23153406.7474   23153404.6854
      -407.7034
  -6584917.41149  -5110609.57846  22169190.3724   22169187.8564
      1880.8914
   1349161.88549   1049462.28547  20610400.3414   20610396.0994
     -1268.1724
   -931896.84746   -721782.40142  24179341.2784   24179338.9234
      1769.6884
   8284263.36848   6429946.23545  22818076.2004   22818071.2474
     -3365.8284
  -2855503.93049  -2216413.54047  21250829.5444   21250825.8924
       614.0634
 04  9  7 21 44  0.0010000  0  7G19G 3G 8G13G10G23G27
  -4683911.22647  -3638917.43544  23435997.6854   23435993.7164
      1773.1414
  -1592438.65747  -1232162.08244  23154586.4354   23154583.5954
      -418.1094
  -6613098.71049  -5132569.00346  22163828.0054   22163825.1654
      1877.0164
   1368253.31449   1064338.71747  20614033.1924   20614028.7474
     -1276.9844
   -958374.01146   -742413.96142  24174302.1614   24174300.9974
      1760.9534
   8334794.81848   6469321.36045  22827692.1694   22827687.3454
     -3371.2814
  -2864683.73749  -2223566.63247  21249082.8254   21249079.3724
       610.3134
 04  9  7 21 44 15.0010000  0  7G19G 3G 8G13G10G23G27
  -4710456.10647  -3659601.72044  23430946.0054   23430942.1224
      1766.3134
  -1586088.58047  -1227213.97744  23155794.7784   23155791.8764
      -428.5164
  -6641223.90949  -5154484.72846  22158475.4584   22158472.5994
      1873.0944
   1387473.50149   1079315.46747  20617690.5524   20617685.9314
     -1285.7194
   -984722.26846   -762945.04742  24169288.7004   24169286.5994
      1752.1254
   8385404.64948   6508757.54045  22837323.6384   22837318.2204
     -3376.5944
  -2873808.96049  -2230677.18647  21247346.6064   21247342.7744
       606.4534
 04  9  7 21 44 30.0010000  0  7G19G 3G 8G13G10G23G27
  -4736903.76847  -3680210.25144  23425913.6464   23425909.2164
      1759.8594
  -1579587.89747  -1222148.52044  23157032.2164   23157029.0174
      -438.4844
  -6669295.60849  -5176358.75446  22153134.1534   22153131.2164
      1869.5164
   1406819.75249   1094390.46347  20621372.0524   20621367.6304
     -1294.0944
  -1010943.92045   -783377.47142  24164299.0674   24164296.5014
      1743.7034
   8436090.17948   6548252.72545  22846968.8804   22846963.1034
     -3381.6564
  -2882882.15849  -2237747.21047  21245619.4584   21245615.6464
       603.0474
 04  9  7 21 44 45.0010000  0  7G19G 3G 8G13G10G23G27
  -4763261.55048  -3700748.73044  23420897.6694   23420893.4934
      1754.0314
  -1572944.16747  -1216971.57744  23158295.9814   23158293.6064
      -447.8444
  -6697321.41649  -5198197.02746  22147800.6854   22147797.8684
      1866.7034
   1426284.47449   1109557.76347  20625076.2084   20625071.3374
     -1301.7504
  -1037046.34446   -803717.03142  24159331.7394   24159329.5284
      1736.0944
   8486843.46148   6587800.69645  22856626.1534   22856621.1034
     -3385.9374
  -2891911.09649  -2244782.74247  21243901.4664   21243897.5174
       600.2504
 04  9  7 21 45  0.0010000  0  7G19G 3G 8G13G10G23G27
  -4789520.73547  -3721210.40044  23415900.7164   23415896.1034
      1747.5944
  -1566148.95447  -1211676.59244  23159588.7714   23159587.2044
      -457.7814
  -6725292.95349  -5219993.02846  22142477.9354   22142474.6304
      1863.2504
   1445876.18449   1124824.02447  20628804.1774   20628799.8764
     -1310.1724
  -1063021.04645   -823957.03942  24154388.8644   24154386.9274
      1727.6254
   8537672.74948   6627407.89945  22866298.4504   22866293.8804
     -3390.9224
  -2900887.30749  -2251777.19547  21242193.3884   21242189.7554
       596.8914
 04  9  7 21 45 15.0010000  0  7G19G 3G 8G13G10G23G27
  -4815678.45547  -3741593.00444  23410923.0524   23410918.7434
      1740.7344
  -1559199.69048  -1206261.58844  23160911.6304   23160909.6654
      -468.2814
  -6753207.61349  -5241744.68746  22137165.8724   22137163.2204
      1859.3444
   1465597.31849   1140191.12647  20632557.0604   20632552.4234
     -1318.7504
  -1088865.20345   -844095.33342  24149470.7714   24149468.7394
      1718.8594
   8588580.39148   6667076.15045  22875986.1144   22875981.2864
     -3396.2194
  -2909808.18749  -2258728.51747  21240495.8494   21240492.2984
       593.1414
 04  9  7 21 45 30.0010000  0  7G19G 3G 8G13G10G23G27
  -4841738.15348  -3761899.23344  23405964.2864   23405959.5674
      1733.9534
  -1552100.19748  -1200729.51844  23162262.0524   23162260.2004
      -478.3914
  -6781069.33849  -5263455.09346  22131863.8564   22131861.2984
      1855.5944
   1485444.14349   1155656.18747  20636333.8254   20636329.1774
     -1327.3284
  -1114582.38346   -864134.68742  24144576.7784   24144575.1304
      1710.2504
   8639562.42648   6706802.36245  22885687.8804   22885682.9504
     -3401.3444
  -2918677.66349  -2265639.79747  21238808.3254   21238804.4664
       589.4844
 04  9  7 21 45 45.0010000  0  7G19G 3G 8G13G10G23G27
  -4867695.71648  -3782125.86744  23401024.3414   23401020.2944
      1727.1254
  -1544846.64148  -1195077.40144  23163642.7084   23163640.1614
      -488.6094
  -6808874.14549  -5285121.16046  22126573.1694   22126570.0404
      1851.7814
   1505420.34649   1171222.04647  20640135.3174   20640130.5324
     -1335.9534
  -1140168.57746   -884071.93742  24139708.3644   24139706.1424
      1701.3594
   8690622.38348   6746589.30345  22895404.1224   22895399.7714
     -3406.5944
  -2927491.88649  -2272508.01747  21237130.7864   21237127.0954
       585.8134
 04  9  7 21 46  0.0010000  0  7G19G 3G 8G13G10G23G27
  -4893556.08848  -3802276.76844  23396103.4034   23396099.2394
      1720.6414
  -1537444.24748  -1189309.29344  23165051.1774   23165049.4584
      -498.5944
  -6836627.14449  -5306746.86146  22121291.6854   22121288.5794
      1848.4384
   1525520.79249   1186884.71547  20643960.3024   20643955.9704
     -1344.2194
  -1165628.82546   -903911.10642  24134863.2714   24134860.8214
      1693.0634
   8741754.84348   6786432.74045  22905134.6384   22905129.9704
     -3411.2504
  -2936255.97249  -2279337.17147  21235462.8884   21235459.2594
       582.4694
 04  9  7 21 46 15.0010000  0  7G19G 3G 8G13G10G23G27
  -4919317.53948  -3822350.59844  23391201.5914   23391197.2284
      1714.0944
  -1529891.53548  -1183424.06544  23166488.4114   23166486.7474
      -508.5314
  -6864326.89649  -5328331.05746  22116021.0134   22116018.0404
      1844.9224
   1545746.84249   1202645.25947  20647808.8174   20647804.7474
     -1352.6254
  -1190961.34346   -923650.72142  24130042.7554   24130039.5364
      1684.6094
   8792961.20048   6826333.75344  22914878.7554   22914874.3494
     -3416.2344
  -2944968.65948  -2286126.27447  21233805.1774   21233801.3214
       579.1094
 04  9  7 21 46 30.0010000  0  7G19G 3G 8G13G10G23G27
  -4944975.47448  -3842343.77444  23386319.0214   23386314.5834
      1707.1884
  -1522184.23248  -1177418.38444  23167955.5364   23167952.9934
      -518.8914
  -6891969.15949  -5349870.47346  22110760.6144   22110757.8884
      1841.0634
   1566102.76949   1218507.02047  20651682.7864   20651677.9464
     -1361.2344
  -1216161.75146   -943287.39442  24125247.4814   24125244.6304
      1675.7814
   8844245.38548   6866295.41945  22924637.8254   22924633.7554
     -3421.4064
  -2953625.62649  -2292871.95947  21232157.6924   21232154.4234
       575.4224
 04  9  7 21 46 45.0010000  0  7G19G 3G 8G13G10G23G27
  -4970532.95748  -3862258.66544  23381454.4584   23381451.1494
      1700.4224
  -1514325.77848  -1171294.90844  23169450.4504   23169448.5244
      -529.0004
  -6919557.49849  -5371367.85846  22105510.6464   22105507.9584
      1837.3914
   1586585.09749   1234467.28347  20655580.3884   20655575.9194
     -1369.7344
  -1241233.27046   -962823.61942  24120476.7634   24120473.9744
      1667.0784
   8895603.79848   6906314.90945  22934411.0834   22934406.2634
     -3426.3914
  -2962230.23148  -2299576.84247  21230520.3254   21230516.7514
       571.8444
 04  9  7 21 47  0.0010000  0  7G19G 3G 8G13G10G23G27
  -4995990.11148  -3882095.37544  23376610.7314   23376607.2594
      1694.1724
  -1506316.67548  -1165054.01944  23170974.9354   23170972.8254
      -538.5624
  -6947092.20749  -5392823.45846  22100271.1534   22100268.5564
      1834.1254
   1607193.31649   1250525.61947  20659501.9034   20659497.4664
     -1377.7504
  -1266176.06547   -982259.58542  24115730.1064   24115727.3334
      1658.9224
   8947035.82148   6946391.76745  22944198.1614   22944193.8604
     -3430.9064
  -2970783.03549  -2306241.35047  21228892.9274   21228889.3994
       568.8284
 04  9  7 21 47 15.0010000  0  7G19G 3G 8G13G10G23G27
  -5021350.46248  -3901856.65944  23371784.8414   23371780.8684
      1687.3134
  -1498160.64348  -1158698.69044  23172527.4194   23172524.5914
      -548.6414
  -6974576.89749  -5414240.09246  22095040.4974   22095037.6494
      1830.5164
   1627923.67749   1266679.15147  20663446.8884   20663442.2634
     -1386.1414
  -1290993.67347  -1001597.95142  24111007.2634   24111004.4504
      1650.2194
   8998537.54048   6986522.93545  22953998.5604   22953994.3254
     -3435.8594
  -2979287.71248  -2312868.38447  21227274.1144   21227270.4814
       565.2664
 04  9  7 21 47 30.0010000  0  7G19G 3G 8G13G10G23G27
  -5046610.98848  -3921540.14844  23366977.1614   23366974.2554
      1680.3914
  -1489854.83848  -1152226.61644  23174106.8414   23174104.7944
      -559.0164
  -7002008.73249  -5435615.51546  22089820.9974   22089817.7514
      1826.7034
   1648778.91648   1282929.97247  20667415.1924   20667411.1654
     -1394.8284
  -1315683.10446  -1020836.45042  24106308.7474   24106306.3534
      1641.2504
   9050111.45648   7026710.36845  22963812.6854   22963808.0014
     -3440.9694
  -2987741.61448  -2319455.81847  21225665.5754   21225661.9784
       561.6414
 04  9  7 21 47 45.0010000  0  7G19G 3G 8G13G10G23G27
  -5071770.21048  -3941144.72344  23362190.6694   23362186.6064
      1673.9534
  -1481398.29848  -1145637.10344  23175716.6694   23175713.9504
      -568.7344
  -7029386.76349  -5456949.03746  22084610.5994   22084607.3214
      1823.5634
   1669760.09048   1299278.91947  20671408.1854   20671403.5914
     -1402.8444
  -1340243.02846  -1039974.03143  24101635.8414   24101632.5524
      1633.0944
   9101758.43747   7066954.71545  22973640.9424   22973636.3454
     -3445.4694
  -2996143.60048  -2326002.81947  21224066.3334   21224063.1264
       558.5474
 04  9  7 21 48  0.0010000  0  7G19G 3G 8G13G10G23G27
  -5096828.81848  -3960670.86244  23357421.5134   23357418.0524
      1667.1094
  -1472791.93948  -1138930.84544  23177354.4894   23177351.5524
      -578.9064
  -7056712.01449  -5478241.41846  22079410.6854   22079408.5094
      1819.8914
   1690866.31749   1315725.31947  20675424.4814   20675420.1734
     -1411.3444
  -1364674.25446  -1059011.34542  24096986.5284   24096983.0954
      1624.3914
   9153477.32148   7107255.09444  22983482.8254   22983478.5754
     -3450.5004
  -3004494.60448  -2332510.09147  21222477.5914   21222473.9664
       554.9224
 04  9  7 21 48 15.0010000  0  7G19G 3G 8G13G10G23G27
  -5121785.89448  -3980117.91644  23352672.4424   23352668.7864
      1660.3754
  -1464035.10348  -1132107.34144  23179020.5604   23179017.4274
      -588.8444
  -7083983.92149  -5499492.24046  22074221.4034   22074217.9934
      1816.3134
   1712098.10949   1332269.56147  20679464.6064   20679460.0244
     -1419.7034
  -1388976.00647  -1077947.74343  24092362.1924   24092359.2594
      1615.7504
   9205268.43048   7147611.78544  22993338.3104   22993333.6654
     -3455.1414
  -3012794.09148  -2338977.21747  21220897.9664   21220894.2944
       551.5314
 04  9  7 21 48 30.0010000  0  7G19G 3G 8G13G10G23G27
  -5146643.00248  -3999487.06644  23347942.2714   23347938.6034
      1653.8134
  -1455129.67148  -1125168.03044  23180715.0834   23180712.8214
      -598.6874
  -7111204.03649  -5520702.69446  22069041.3254   22069038.5954
      1812.9384
   1733453.59649   1348910.18847  20683528.5134   20683524.2474
     -1427.8124
  -1413149.89646  -1096784.54742  24087761.5444   24087759.0444
      1607.3134
   9257129.83748   7188023.20444  23003207.6694   23003202.9704
     -3459.7664
  -3021043.96848  -2345405.68647  21219328.3414   21219324.5134
       548.3594
 04  9  7 21 48 45.0010000  0  7G19G 3G 8G13G10G23G27
  -5171396.16148  -4018775.21544  23343231.6774   23343228.2084
      1646.7974
  -1446071.95048  -1118110.07144  23182439.3804   23182436.4934
      -608.8914
  -7138368.70649  -5541869.94946  22063872.3104   22063869.5484
      1809.1724
   1754936.39149   1365650.02847  20687616.6854   20687612.3564
     -1436.3754
  -1437192.07046  -1115518.69943  24083186.7554   24083184.2284
      1598.5004
   9309064.89948   7228492.04245  23013090.7004   23013085.6854
     -3464.7344
  -3029240.44749  -2351792.55347  21217768.6854   21217765.0364
       544.7034
 04  9  7 21 49  0.0010000  0  7G19G 3G 8G13G10G23G27
  -5196041.99248  -4037979.73144  23338541.5674   23338538.1064
      1639.5164
  -1436858.84048  -1110931.02344  23184192.3494   23184190.0874
      -619.3284
  -7165474.90949  -5562991.64846  22058713.9114   22058711.1464
      1805.1414
   1776549.54449   1382491.43347  20691729.7554   20691725.2394
     -1445.2034
  -1461099.36846  -1134147.74942  24078636.6144   24078634.4194
      1589.2814
   9361076.54848   7269020.56044  23022988.2314   23022983.2004
     -3469.9374
  -3037380.49148  -2358135.43947  21216219.6304   21216216.1304
       540.7974
 04  9  7 21 49 15.0010000  0  8G19G 3G 8G13G10G23G27G28
  -5220586.14848  -4057105.00044  23333871.4354   23333867.2084
      1633.5004
  -1427496.37248  -1103635.59144  23185973.7634   23185971.5714
      -628.4374
  -7192528.67549  -5584072.47646  22053565.8254   22053562.9424
      1802.4694
   1798287.12149   1399429.79047  20695866.0134   20695861.4934
     -1452.6874
  -1484877.37646  -1152676.05742  24074112.2554   24074109.8684
      1581.4694
   9413158.73748   7309604.04344  23032898.9424   23032894.3494
     -3473.8444
  -3045470.11949  -2364439.03147  21214680.2244   21214676.6184
       538.2504
   -108158.79457    -80420.05052  24496853.5754   24496853.8294
      3070.2194
 04  9  7 21 49 30.0010000  0  8G19G 3G 8G13G10G23G27G28
  -5245028.29748  -4076150.81544  23329220.1614   23329216.1464
      1626.0474
  -1417984.58548  -1096223.82244  23187783.8804   23187781.8924
      -639.0004
  -7219530.04649  -5605112.50746  22048427.7944   22048424.8604
      1798.4064
   1820148.98649   1416465.00347  20700025.9424   20700021.7514
     -1461.5164
  -1508525.95746  -1171103.48543  24069612.4974   24069609.2784
      1572.3284
   9465311.08747   7350242.19544  23042822.8494   23042818.7084
     -3479.1414
  -3053509.29249  -2370703.33247  21213150.3724   21213146.7124
       534.2814
   -154182.07447   -116282.24942  24488095.9894   24488096.5174
      3066.8594
 04  9  7 21 49 45.0010000  0  8G19G 3G 8G13G10G23G27G28
  -5269371.09448  -4095119.20544  23324587.7394   23324583.7594
      1619.4844
  -1408326.24048  -1088697.83944  23189621.8724   23189619.7314
      -648.8754
  -7246481.64949  -5626113.73246  22043298.9354   22043295.7244
      1795.0314
   1842132.42449   1433594.93147  20704209.5444   20704205.3254
     -1469.6254
  -1532047.65746  -1189432.06542  24065135.7864   24065132.9894
      1563.8284
   9517530.59047   7390932.65744  23052759.4974   23052755.4384
     -3483.5004
  -3061500.95649  -2376930.60047  21211629.4584   21211625.7634
       531.1094
   -200167.47247   -152114.99742  24479345.4034   24479345.3844
      3064.4224
 04  9  7 21 50  0.0010000  0  8G19G 3G 8G13G10G23G27G28
  -5293608.89448  -4114005.75744  23319975.7244   23319971.0754
      1612.1564
  -1398516.27348  -1081053.69944  23191488.7084   23191486.6534
      -659.2034
  -7273378.36249  -5647072.19746  22038180.3884   22038177.8104
      1791.1094
   1864242.44349   1450823.51147  20708416.9274   20708412.5564
     -1478.3754
  -1555437.11946  -1207657.66043  24060684.7164   24060683.0564
      1554.7194
   9569822.22247   7431679.35045  23062711.2554   23062706.6304
     -3488.6724
  -3069439.85449  -2383116.75047  21210119.1064   21210114.7314
       527.3444
   -246109.60047   -187913.93942  24470602.9974   24470602.8604
      3061.2034
 04  9  7 21 50 15.0010000  0  8G19G 3G 8G13G10G23G27G28
  -5317743.78348  -4132812.12444  23315382.3884   23315378.1854
      1605.8284
  -1388557.10948  -1073293.30544  23193383.2244   23193381.6884
      -668.6564
  -7300222.38449  -5667989.58646  22033072.4424   22033069.7554
      1788.1094
   1886476.71649   1468148.89347  20712647.7634   20712643.7554
     -1486.1414
  -1578696.60746  -1225781.86742  24056259.2474   24056256.1854
      1546.5784
   9622183.49947   7472480.30044  23072674.7784   23072671.0834
     -3492.7504
  -3077328.33849  -2389263.61047  21208617.6774   21208614.5014
       524.4844
   -292010.65247   -223680.93542  24461867.3644   24461867.8564
      3058.9534
 04  9  7 21 50 30.0010000  0  8G19G 3G 8G13G10G23G27G28
  -5341778.98648  -4151540.83044  23310809.3254   23310804.3884
      1599.2664
  -1378451.99448  -1065419.18144  23195307.0914   23195304.6384
      -678.2974
  -7327017.34249  -5688868.75346  22027973.3174   22027970.4114
      1784.8754
   1908831.84649   1485568.47247  20716902.1224   20716897.5914
     -1494.1414
  -1601829.22046  -1243807.25942  24051857.1614   24051854.9074
      1538.0944
   9674610.72647   7513332.63344  23082651.7004   23082647.0014
     -3497.0944
  -3085169.85049  -2395373.87447  21207125.4424   21207122.1694
       521.3914
   -337873.86947   -259418.39142  24453140.2714   24453140.8994
      3056.5634
 04  9  7 21 50 45.0010000  0  8G19G 3G 8G13G10G23G27G28
  -5365714.46448  -4170191.83044  23306254.5914   23306250.2904
      1592.2974
  -1368201.41048  -1057431.72344  23197257.6614   23197255.5994
      -688.2344
  -7353763.37949  -5709709.81746  22022883.6694   22022880.5524
      1781.3914
   1931307.29348   1503081.80747  20721179.1464   20721174.7244
     -1502.4374
  -1624835.22846  -1261734.02542  24047479.4194   24047476.8024
      1529.4844
   9727103.41247   7554235.99045  23092640.6064   23092636.3964
     -3501.7034
  -3092964.71948  -2401447.80947  21205642.1064   21205638.7284
       518.0474
   -383699.36447   -295126.48042  24444419.0364   24444420.1964
      3053.7344
 04  9  7 21 51  0.0010000  0  8G19G 3G 8G13G10G23G27G28
  -5389547.30148  -4188762.82844  23301718.9194   23301714.7744
      1585.4534
  -1357802.84548  -1049328.93544  23199236.0054   23199233.9814
      -698.0944
  -7380458.03849  -5730510.81646  22017803.9504   22017801.0714
      1778.0314
   1953905.59649   1520690.86347  20725479.1854   20725475.4624
     -1510.5784
  -1647711.62346  -1279559.79442  24043125.6694   24043123.3174
      1520.9064
   9779663.89748   7595192.16544  23102642.7314   23102638.4274
     -3506.1874
  -3100710.44848  -2407483.42747  21204168.2394   21204164.7004
       514.7814
   -429484.33847   -330802.98942  24435707.3174   24435707.6344
      3051.0474
 04  9  7 21 51 15.0010000  0  8G19G 3G 8G13G10G23G27G28
  -5413277.89348  -4207254.15844  23297203.1614   23297199.1264
      1578.0944
  -1347256.95648  -1041111.35444  23201243.3174   23201240.9544
      -708.4534
  -7407101.77549  -5751272.17146  22012733.8414   22012730.9424
      1774.0314
   1976626.16349   1538395.20247  20729802.9034   20729798.7284
     -1519.2974
  -1670459.00146  -1297285.01243  24038797.6304   24038794.9034
      1511.7344
   9832291.22847   7636200.44644  23112657.5054   23112652.5604
     -3511.1874
  -3108407.53248  -2413481.16147  21202703.6064   21202700.0634
       511.0004
   -475229.43347   -366448.42542  24427002.2314   24427001.9504
      3047.7814
 04  9  7 21 51 30.0010000  0  8G19G 3G 8G13G10G23G27G28
  -5436903.18348  -4225663.44844  23292707.3104   23292703.3564
      1571.5164
  -1336560.80548  -1032776.69044  23203277.7714   23203276.2004
      -718.0164
  -7433691.83449  -5771991.66846  22007673.8494   22007670.9384
      1770.9224
   1999471.89949   1556197.06547  20734150.3564   20734146.0244
     -1527.1414
  -1693074.17346  -1314907.22642  24034494.6534   24034490.9814
      1503.2814
   9884988.18247   7677262.95744  23122685.2314   23122680.5834
     -3515.4064
  -3116053.15248  -2419438.78347  21201248.7084   21201245.0244
       508.0784
   -520931.48147   -402060.31542  24418305.2944   24418304.8564
      3045.4694
 04  9  7 21 51 45.0010000  0  8G19G 3G 8G13G10G23G27G28
  -5460420.80948  -4243988.82444  23288232.0524   23288227.6384
      1564.3284
  -1325712.52248  -1024323.48044  23205343.0674   23205340.3254
      -728.1874
  -7460225.94749  -5792667.58346  22002624.5674   22002621.6924
      1767.1724
   2022444.73048   1574097.93747  20738522.0364   20738517.8214
     -1535.6094
  -1715555.03846  -1332424.75942  24030216.7004   24030213.5524
      1494.3284
   9937756.59947   7718381.15944  23132726.4504   23132722.5954
     -3520.1254
  -3123645.34648  -2425354.77047  21199803.9894   21199800.6224
       504.4844
   -566588.24247   -437636.96442  24409616.7164   24409616.6104
      3042.3594
 04  9  7 21 52  0.0010000  0  8G19G 3G 8G13G10G23G27G28
  -5483832.89548  -4262231.98844  23283776.8494   23283773.0324
      1557.2664
  -1314714.57948  -1015753.64944  23207436.0994   23207433.1064
      -738.1724
  -7486706.64749  -5813301.86946  21997585.2714   21997582.5754
      1763.6564
   2045542.01349   1592095.80947  20742917.0524   20742912.7944
     -1543.9224
  -1737903.92746  -1349839.46243  24025962.4504   24025959.8764
      1485.5164
   9990593.66748   7759552.85944  23142780.9504   23142776.9664
     -3524.6874
  -3131186.67048  -2431231.12347  21198368.6384   21198365.3064
       501.0474
   -612202.11747   -473180.15142  24400936.3964   24400936.5874
      3039.4844
 04  9  7 21 52 15.0010000  0  8G19G 3G 8G13G10G23G27G28
  -5507140.57547  -4280393.77444  23279341.0604   23279337.0094
      1550.5634
  -1303568.32048  -1007068.23344  23209556.3334   23209554.0604
      -747.7344
  -7513135.38949  -5833895.68346  21992556.4584   21992553.8064
      1760.4694
   2068762.47148   1610189.65747  20747335.9194   20747331.6464
     -1551.8754
  -1760122.05046  -1367152.24143  24021734.4974   24021732.7124
      1477.0314
  10043497.84947   7800776.83744  23152848.5284   23152844.5174
     -3528.8754
  -3138678.42548  -2437068.85447  21196943.1854   21196939.7824
       498.1414
   -657774.37647   -508690.92242  24392264.5524   24392264.2474
      3037.0474
 04  9  7 21 52 30.0010000  0  8G19G 3G 8G13G10G23G27G28
  -5530346.74747  -4298476.46844  23274925.6224   23274921.5094
      1543.6564
  -1292277.08248   -998269.87744  23211704.9424   23211702.9854
      -757.6414
  -7539515.46349  -5854451.55946  21987536.4034   21987533.5284
      1757.0164
   2092102.77348   1628376.91547  20751777.3174   20751773.3644
     -1560.0164
  -1782212.44046  -1384365.55242  24017531.2944   24017529.2354
      1468.4064
  10096465.70447   7842050.44644  23162927.6924   23162924.1264
     -3533.3754
  -3146123.87648  -2442870.49947  21195526.0754   21195522.7164
       494.8594
   -703307.91047   -544171.52542  24383600.2244   24383599.7864
      3034.2814
 04  9  7 21 52 45.0010000  0  8G19G 3G 8G13G10G23G27G28
  -5553443.39948  -4316473.84044  23270530.1384   23270525.8604
      1536.2194
  -1280833.19548   -989352.54744  23213883.3104   23213880.8724
      -767.8444
  -7565839.07549  -5874963.44546  21982526.8024   21982523.9784
      1753.2344
   2115570.65949   1646663.58247  20756243.1144   20756239.0014
     -1568.5944
  -1804167.04646  -1401473.01742  24013353.1144   24013350.8064
      1459.2034
  10149504.78947   7883379.57844  23173021.0524   23173017.2394
     -3538.1564
  -3153515.24749  -2448630.00847  21194119.9354   21194116.3724
       491.1254
   -748794.83847   -579615.76542  24374944.2164   24374943.7864
      3030.9694
 04  9  7 21 53  0.0010000  0  8G19G 3G 8G13G10G23G27G28
  -5576435.92448  -4334390.06444  23266154.4584   23266150.2984
      1529.2664
  -1269242.36048   -980320.73144  23216088.4354   23216086.0174
      -777.8124
  -7592111.90049  -5895435.77646  21977527.2474   21977524.1654
      1749.7034
   2139160.35249   1665045.15647  20760732.2314   20760728.0134
     -1576.8444
  -1825991.48446  -1418479.08142  24009199.9814   24009197.3564
      1450.4694
  10202609.03747   7924759.46344  23183126.3964   23183121.9354
     -3542.5784
  -3160858.29549  -2454351.86747  21192722.3414   21192719.3134
       487.7504
   -794240.74947   -615028.09442  24366295.7634   24366294.9154
      3028.2974
 04  9  7 21 53 15.0010000  0  8G19G 3G 8G13G10G23G27G28
  -5599324.49848  -4352225.26244  23261799.4424   23261795.2514
      1522.3284
  -1257504.98148   -971174.72944  23218321.6224   23218319.8374
      -787.4224
  -7618334.12949  -5915868.64946  21972537.4894   21972534.8064
      1746.3594
   2162871.45849   1683521.33747  20765243.9194   20765239.6924
     -1584.8754
  -1847685.96347  -1435383.84543  24005072.8804   24005069.5794
      1441.8284
  10255777.87447   7966189.67344  23193244.1384   23193240.7044
     -3546.8124
  -3168153.36448  -2460036.32947  21191334.0444   21191330.6884
       484.6094
   -839645.80847   -650408.62142  24357655.7244   24357654.5874
      3025.6254
 04  9  7 21 53 30.0010000  0  8G19G 3G 8G13G10G23G27G28
  -5622107.04748  -4369977.86245  23257463.6144   23257459.7744
      1515.8284
  -1245619.28248   -961913.13044  23220583.2944   23220580.9784
      -796.8444
  -7644504.13649  -5936260.85446  21967557.5364   21967554.1654
      1743.5004
   2186705.64449   1702093.41247  20769779.7084   20769775.4314
     -1592.5474
  -1869248.45547  -1452185.76943  24000969.3174   24000966.5794
      1433.6094
  10309012.97548   8007671.52944  23203374.8964   23203370.5404
     -3550.6564
  -3175398.65349  -2465682.00947  21189955.3414   21189951.9424
       481.9224
   -885008.06447   -685755.76442  24349023.9504   24349023.1534
      3023.2664
 04  9  7 21 53 45.0010000  0  8G19G 3G 8G13G10G23G27G28
  -5644780.81248  -4387645.71045  23253149.1854   23253145.2044
      1507.7504
  -1233582.97648   -952534.19144  23222873.9194   23222871.8804
      -807.7504
  -7670619.46349  -5956610.44146  21962588.1534   21962585.0754
      1738.9694
   2210665.09249   1720763.09747  20774339.0914   20774334.8684
     -1601.6564
  -1890676.50046  -1468882.94642  23996891.0364   23996887.4934
      1423.9064
  10362316.50447   8049206.71444  23213517.8104   23213513.6384
     -3556.0164
  -3182591.91849  -2471287.14747  21188586.8494   21188583.2904
       477.5634
   -930324.92046   -721067.53042  24340399.2474   24340398.6814
      3019.3594
 04  9  7 21 54  0.0010000  0  8G19G 3G 8G13G10G23G27G28
  -5667340.84548  -4405224.93145  23248855.9274   23248851.8374
      1500.3754
  -1221391.37248   -943034.23843  23225194.0214   23225192.0754
      -817.7814
  -7696675.46749  -5976913.80646  21957629.3964   21957626.2244
      1735.2034
   2234754.53449   1739534.07347  20778923.0134   20778918.5874
     -1610.1724
  -1911965.18446  -1485471.52143  23992839.8494   23992836.8334
      1414.7974
  10415692.82247   8090798.57944  23223675.4354   23223671.4624
     -3560.7504
  -3189728.38549  -2476848.02247  21187228.7784   21187225.3174
       474.0474
   -975591.53747   -756340.12842  24331784.8564   24331784.4664
      3016.2344
 04  9  7 21 54 15.0010000  0  8G19G 3G 8G13G10G23G27G28
  -5689796.94648  -4422723.14945  23244583.1304   23244578.3374
      1493.8594
  -1209054.56248   -933421.13944  23227541.6064   23227539.3134
      -827.0164
  -7722682.00349  -5997178.62046  21952680.9034   21952677.6304
      1732.4384
   2258963.95749   1758398.52947  20783529.8644   20783525.4034
     -1617.6564
  -1933124.23746  -1501959.07842  23988813.4584   23988809.9704
      1406.6254
  10469131.86547   8132439.34844  23233843.9814   23233840.5284
     -3564.3914
  -3196818.03749  -2482372.42147  21185879.4974   21185875.6384
       471.3754
  -1020817.75847   -791581.25142  24323179.3724   24323178.4974
      3013.9694
 04  9  7 21 54 30.0010000  0  8G19G 3G 8G13G10G23G27G28
  -5712152.40548  -4440142.96544  23240329.0364   23240324.4744
      1487.2814
  -1196576.24648   -923697.78644  23229916.0834   23229914.3994
      -836.3914
  -7748642.85549  -6017407.83647  21947740.7944   21947737.4194
      1729.4224
   2283289.65949   1777353.60947  20788159.1384   20788154.9504
     -1625.3914
  -1954157.11646  -1518348.33542  23984811.0444   23984807.7434
      1398.1254
  10522629.61047   8174125.87644  23244024.1304   23244020.2284
     -3568.2194
  -3203864.59249  -2487863.24047  21184538.4274   21184535.3604
       468.5314
  -1066006.98847   -826793.60042  24314580.0444   24314579.5874
      3011.5634
 04  9  7 21 54 45.0010000  0  8G19G 3G 8G13G10G23G27G28
  -5734401.17447  -4457479.64045  23236095.2394   23236091.3374
      1479.6254
  -1183950.68948   -913859.66243  23232318.9974   23232316.8684
      -846.7664
  -7774552.00549  -6037596.76646  21942810.7164   21942806.9664
      1725.4384
   2307737.53349   1796403.89047  20792811.4894   20792807.0324
     -1634.0784
  -1975057.96845  -1534634.69042  23980832.9354   23980830.0874
      1388.8594
  10576191.73747   8215862.55444  23254217.0914   23254213.0674
     -3573.0164
  -3210862.18249  -2493315.91447  21183207.2164   21183203.1814
       464.7034
  -1111153.38747   -861972.51242  24305989.1774   24305988.1854
      3008.2504
 04  9  7 21 55  0.0010000  0  8G19G 3G 8G13G10G23G27G28
  -5756539.68647  -4474730.39445  23231882.3724   23231877.9584
      1472.2664
  -1171174.58148   -903904.24944  23234749.6304   23234747.7164
      -856.6724
  -7800406.26549  -6057742.92647  21937890.4354   21937887.2944
      1721.9064
   2332310.73249   1815551.84147  20797487.4974   20797482.8724
     -1642.2974
  -1995823.20746  -1550815.43042  23976882.7474   23976879.0914
      1379.9064
  10629821.36047   8257651.81844  23264422.4424   23264418.2904
     -3577.4694
  -3217807.44449  -2498727.80047  21181885.2554   21181881.4114
       461.3444
  -1156253.38647   -897115.27542  24297406.7784   24297405.4704
      3005.1254
 04  9  7 21 55 15.0010000  0  8G19G 3G 8G13G10G23G27G28
  -5778566.19147  -4491893.87744  23227690.4894   23227686.2394
      1464.7974
  -1158246.55048   -893830.45744  23237210.4194   23237208.6614
      -866.9224
  -7826204.06049  -6077845.08847  21932981.4034   21932978.3064
      1718.0944
   2357010.65749   1834798.51747  20802187.7314   20802183.2984
     -1650.8284
  -2016451.27246  -1566889.20843  23972956.4034   23972954.5444
      1370.7194
  10683519.74147   8299494.66844  23274640.7314   23274637.2354
     -3582.1414
  -3224699.08549  -2504097.90747  21180573.9894   21180570.2284
       457.7344
  -1201305.29747   -932220.63242  24288834.3884   24288832.5014
      3001.9064
 04  9  7 21 55 30.0010000  0  8G19G 3G 8G13G10G23G27G28
  -5800478.73448  -4508968.54045  23223519.8964   23223516.9464
      1457.2974
  -1145164.98148   -883637.02944  23239699.4354   23239697.4784
      -877.0164
  -7851943.83449  -6097902.04247  21928082.9114   21928079.7474
      1714.2664
   2381838.75049   1854145.07147  20806912.2394   20806908.1574
     -1659.2344
  -2036940.24446  -1582854.65643  23969058.5444   23969054.9704
      1361.3754
  10737288.29547   8341392.17844  23284873.0134   23284868.9354
     -3586.7504
  -3231535.33949  -2509424.85547  21179272.9504   21179269.2864
       454.1564
  -1246307.38547   -967287.09042  24280270.6384   24280268.8174
      2998.6414
 04  9  7 21 55 45.0010000  0  8G19G 3G 8G13G10G23G27G28
  -5822285.00948  -4525960.42045  23219371.8414   23219366.7284
      1449.7194
  -1131937.86948   -873330.17344  23242216.4034   23242214.5994
      -887.1254
  -7877633.46949  -6117919.92447  21923194.7084   21923191.7904
      1710.4534
   2406787.10849   1873585.33947  20811660.3254   20811656.1654
     -1667.6724
  -2057297.99246  -1598717.82543  23965184.4424   23965182.0134
      1352.3914
  10791118.76247   8383337.97544  23295116.0994   23295112.3844
     -3591.2034
  -3238324.22649  -2514714.88947  21177981.3334   21177977.8104
       450.6254
  -1291267.40447  -1002320.78142  24271713.9744   24271713.3724
      2995.4534
 04  9  7 21 56  0.0010000  0  8G19G 3G 8G13G10G23G27G28
  -5843980.51648  -4542865.99245  23215242.6924   23215238.2044
      1442.6724
  -1118561.00048   -862906.62843  23244762.1854   23244759.4544
      -896.7664
  -7903268.60949  -6137895.34747  21918316.3104   21918313.0054
      1707.2344
   2431859.88749   1893122.55447  20816431.0284   20816426.6464
     -1675.6564
  -2077520.12347  -1614475.31743  23961336.0134   23961333.9814
      1343.6254
  10845015.19747   8425335.12644  23305372.7714   23305368.2904
     -3595.2504
  -3245061.54049  -2519964.74847  21176698.6924   21176695.2514
       447.4534
  -1336180.99847  -1037318.30942  24263167.6924   24263166.9354
      2992.7344
 04  9  7 21 56 15.0010000  0  8G19G 3G 8G13G10G23G27G28
  -5865568.40847  -4559687.68545  23211134.7474   23211130.0994
      1435.5314
  -1105038.01248   -852369.22344  23247336.0444   23247333.0524
      -906.4694
  -7928852.70549  -6157830.98146  21913447.8644   21913444.4544
      1703.8284
   2457053.50049   1912753.93447  20821225.0754   20821221.3534
     -1683.6874
  -2097609.81647  -1630129.59743  23957513.8024   23957510.6144
      1334.8444
  10898973.83947   8467380.78944  23315640.2944   23315636.1494
     -3599.4694
  -3251750.64449  -2525177.02247  21175426.1384   21175422.4424
       444.3444
  -1381051.39847  -1072282.19142  24254628.2714   24254628.0834
      2989.8284
 04  9  7 21 56 30.0010000  0  8G19G 3G 8G13G10G23G27G28
  -5887042.25648  -4576420.51445  23207048.7004   23207043.8844
      1428.0164
  -1091362.76448   -841713.19844  23249937.6694   23249935.0014
      -916.5164
  -7954379.75149  -6177722.17246  21908590.0364   21908586.8764
      1700.1724
   2482374.10549   1932484.26847  20826043.5364   20826039.6064
     -1691.9694
  -2117560.79346  -1645675.80143  23953716.7714   23953714.0284
      1325.7194
  10953000.64347   8509479.53944  23325921.0134   23325917.6104
     -3603.7664
  -3258385.53549  -2530347.06647  21174163.3724   21174160.0634
       440.8134
  -1425872.35047  -1107207.56242  24246099.5054   24246098.7474
      2986.7034
 04  9  7 21 56 45.0010000  0  8G19G 3G 8G13G10G23G27G28
  -5908404.21947  -4593066.18245  23202983.2944   23202978.4974
      1419.9384
  -1077537.79748   -830940.49343  23252568.8254   23252565.8644
      -927.0004
  -7979852.09149  -6197570.73546  21903742.7554   21903739.1424
      1695.9844
   2507819.26849   1952311.65147  20830885.3024   20830881.8494
     -1700.8284
  -2137375.39547  -1661115.73443  23949946.3254   23949943.1304
      1316.0634
  11007093.07347   8551629.43844  23336215.3964   23336211.0364
     -3608.7504
  -3264968.52449  -2535476.66047  21172911.0284   21172907.5444
       436.7664
  -1470646.15047  -1142096.18842  24237578.9504   24237578.3024
      2982.9384
 04  9  7 21 57  0.0010000  0  8G19G 3G 8G13G10G23G27G28
  -5929656.59348  -4609626.43345  23198939.0754   23198934.4544
      1413.2344
  -1063565.66348   -820053.10244  23255227.2784   23255225.1494
      -936.3124
  -8005272.23449  -6217378.62046  21898905.3564   21898902.9584
      1693.0004
   2533386.52949   1972234.19447  20835751.0134   20835746.7634
     -1708.4694
  -2157055.84647  -1676451.11643  23946200.5834   23946198.1064
      1307.5784
  11061248.33547   8593828.29544  23346521.3804   23346516.6034
     -3612.2974
  -3271502.15449  -2540567.78947  21171667.6304   21171663.6774
       434.0004
  -1515375.00947  -1176949.72442  24229067.4894   24229067.8334
      2980.5944
 04  9  7 21 57 15.0010000  0  8G19G 3G 8G13G10G23G27G28
  -5950796.68448  -4626099.20445  23194915.7474   23194911.5954
      1405.6094
  -1049444.10748   -809049.27244  23257914.1534   23257911.9114
      -946.4374
  -8030637.67349  -6237143.89746  21894078.7084   21894075.3884
      1689.1724
   2559078.04749   1992253.56147  20840639.8564   20840635.3964
     -1716.9694
  -2176599.73746  -1691680.15343  23942481.5054   23942479.4424
      1298.3914
  11115468.54547   8636077.76644  23356837.9744   23356834.1774
     -3616.8594
  -3277984.13249  -2545618.69147  21170433.9974   21170430.6694
       430.4224
  -1560056.42347  -1211766.35042  24220565.1614   24220564.3214
      2977.1094
 04  9  7 21 57 30.0010000  0  8G19G 3G 8G13G10G23G27G28
  -5971826.99347  -4642486.42345  23190913.9504   23190909.4034
      1398.3914
  -1035175.81248   -797931.12544  23260630.1464   23260627.5834
      -956.1094
  -8055951.33649  -6256868.80846  21889261.2944   21889258.4154
      1686.0164
   2584890.85949   2012367.42047  20845551.8414   20845547.6224
     -1724.8914
  -2196009.78547  -1706804.85943  23938787.6774   23938785.0324
      1289.5634
  11169750.72647   8678375.50244  23367167.5834   23367164.2864
     -3620.8284
  -3284417.18148  -2550631.44147  21169209.8024   21169206.0284
       427.3134
  -1604693.05747  -1246548.06042  24212070.8414   24212070.4584
      2974.3134
 04  9  7 21 57 45.0010000  0  8G19G 3G 8G13G10G23G27G28
  -5992746.86347  -4658787.60345  23186933.0834   23186928.5674
      1390.9534
  -1020760.40348   -786698.34043  23263373.4194   23263370.3494
      -965.9064
  -8081212.46349  -6276552.79046  21884454.4034   21884451.5214
      1682.3444
   2610825.43649   2032576.17747  20850487.3104   20850482.9624
     -1733.0164
  -2215285.13347  -1721824.62043  23935120.4504   23935117.2244
      1280.4844
  11224095.09747   8720721.72244  23377509.4894   23377505.5914
     -3625.0474
  -3290800.75948  -2555605.65747  21167995.3254   21167991.4354
       423.9384
  -1649284.21247  -1281294.32542  24203585.8804   24203584.8564
      2971.2504
 04  9  7 21 58  0.0010000  0  8G19G 3G 8G13G10G23G27G28
  -6013557.32248  -4675003.52045  23182973.0994   23182969.0054
      1383.7194
  -1006199.35348   -775352.03943  23266143.9974   23266141.5874
      -975.5314
  -8106422.65749  -6296197.07747  21879656.9504   21879654.4114
      1678.9844
   2636880.32849   2052878.67747  20855445.0284   20855440.7124
     -1740.9844
  -2234427.16547  -1736740.47043  23931477.8024   23931474.6344
      1271.6884
  11278500.01647   8763115.09744  23387862.5754   23387858.0444
     -3628.9844
  -3297136.32449  -2560542.46047  21166789.8104   21166786.2164
       420.8284
  -1693831.25947  -1316006.24642  24195108.9274   24195107.6034
      2968.4064
 04  9  7 21 58 15.0010000  0  8G19G 3G 8G13G10G23G27G28
  -6034255.38348  -4691131.83645  23179033.9504   23179029.9114
      1375.9064
   -991489.86548   -763890.10643  23268943.1534   23268941.0364
      -985.7814
  -8131578.89849  -6315799.33347  21874869.6694   21874866.7004
      1675.0784
   2663058.24349   2073277.04147  20860426.6774   20860422.3924
     -1749.5164
  -2253432.77346  -1751550.03443  23927861.1854   23927858.2084
      1262.3594
  11332968.12747   8805557.75444  23398228.0834   23398223.6884
     -3633.5624
  -3303421.12949  -2565439.70047  21165593.5364   21165590.1304
       417.0474
  -1738331.03547  -1350681.31742  24186640.3174   24186639.7124
      2964.8284
 04  9  7 21 58 30.0010000  0  8G19G 3G 8G13G10G23G27G28
  -6054838.19848  -4707170.36345  23175117.8104   23175112.9074
      1368.0004
   -976629.58448   -752310.64344  23271770.4744   23271768.5754
      -996.0164
  -8156678.69349  -6335357.60446  21870093.4424   21870090.4704
      1671.1094
   2689361.69149   2093773.22147  20865432.0284   20865428.0444
     -1758.1414
  -2272299.23547  -1766251.15143  23924270.8494   23924268.2864
      1252.7664
  11387501.76248   8848051.42944  23408604.1224   23408600.8494
     -3638.0314
  -3309652.57549  -2570295.36647  21164407.8644   21164403.9854
       413.2814
  -1782780.87047  -1385317.46242  24178182.1774   24178181.0324
      2961.2974
 04  9  7 21 58 45.0010000  0  8G19G 3G 8G13G10G23G27G28
  -6075309.29148  -4723121.84245  23171221.7004   23171217.3724
      1360.9844
   -961622.42748   -740616.75044  23274626.6774   23274624.2354
     -1005.4224
  -8181725.91149  -6354874.90446  21865327.3334   21865323.9544
      1668.0944
   2715786.83749   2114364.23247  20870460.7244   20870456.3064
     -1765.7504
  -2291030.24046  -1780846.73043  23920706.2394   23920703.9544
      1244.2194
  11442096.75347   8890592.91444  23418993.6384   23418990.1264
     -3641.7194
  -3315834.47749  -2575112.43347  21163231.4354   21163227.7284
       410.4224
  -1827184.46347  -1419917.58342  24169731.8804   24169730.9894
      2958.6094
 04  9  7 21 59  0.0010000  0  8G19G 3G 8G13G10G23G27G28
  -6095666.09248  -4738984.25645  23167347.7784   23167343.9274
      1353.0944
   -946466.11248   -728806.64844  23277510.8334   23277508.8414
     -1015.5784
  -8206718.22249  -6374349.42146  21860571.7714   21860568.4934
      1664.1564
   2742335.78149   2135051.70447  20875512.6854   20875508.8604
     -1774.2814
  -2309623.33846  -1795334.87043  23917168.4744   23917165.5674
      1234.7034
  11496755.27947   8933183.92544  23429394.7314   23429391.2864
     -3646.2344
  -3321964.50949  -2579889.07847  21162064.7474   21162061.5214
       406.7194
  -1871539.37147  -1454479.81242  24161292.3414   24161290.8494
      2955.0944
 04  9  7 21 59 15.0010000  0  8G19G 3G 8G13G10G23G27G28
  -6115912.68348  -4754760.78445  23163495.7244   23163490.9624
      1346.1884
   -931165.03748   -716883.72344  23280422.0214   23280420.5444
     -1024.8444
  -8231659.76649  -6393784.36747  21855825.3104   21855822.0404
      1661.1254
   2769004.31949   2155832.37147  20880587.7474   20880583.2984
     -1781.9064
  -2328082.61047  -1809718.71543  23913655.4354   23913653.0054
      1226.2034
  11551472.84948   8975820.94744  23439807.5754   23439804.2314
     -3649.7034
  -3328046.89949  -2584628.59247  21160907.5834   21160904.0954
       404.0474
  -1915849.63547  -1489007.20142  24152859.7944   24152858.6884
      2952.5634
 04  9  7 21 59 30.0010000  0  8G19G 3G 8G13G10G23G27G28
  -6136048.50948  -4770451.00045  23159663.2784   23159659.1424
      1338.8914
   -915718.99548   -704847.83544  23283361.0364   23283360.0054
     -1034.4224
  -8256550.49149  -6413179.73347  21851088.7244   21851085.7864
      1657.8444
   2795792.59149   2176706.33547  20885684.8334   20885680.7204
     -1789.7344
  -2346407.83446  -1823998.07643  23910167.6534   23910165.4974
      1217.4064
  11606249.45347   9018503.95144  23450231.0284   23450227.3684
     -3653.6564
  -3334081.62549  -2589330.97647  21159759.0834   21159755.3334
       400.8914
  -1960114.89147  -1523499.54043  24144436.3884   24144434.8964
      2949.6724
 04  9  7 21 59 45.0010000  0  8G19G 3G 8G13G10G23G27G28
  -6156070.39948  -4786052.45645  23155853.7474   23155848.7714
      1330.8134
   -900125.23148   -692696.84644  23286329.2394   23286326.7674
     -1044.6874
  -8281387.41549  -6432533.16247  21846362.6774   21846358.8684
      1653.9064
   2822703.31949   2197675.73047  20890806.1144   20890801.8174
     -1798.2504
  -2364595.90447  -1838170.59243  23906707.0364   23906704.3964
      1207.9224
  11661087.67148   9061234.98344  23460667.5444   23460663.3644
     -3658.0624
  -3340065.65149  -2593993.85147  21158620.3024   21158617.0324
       397.1094
  -2004332.10447  -1557954.44042  24136022.0674   24136020.6494
      2946.0474
 04  9  7 22  0  0.0010000  0  8G19G 3G 8G13G10G23G27G28
  -6175978.64548  -4801565.33845  23152065.1064   23152060.6064
      1323.4694
   -884384.44048   -680431.27344  23289324.2784   23289322.5324
     -1054.2344
  -8306170.95249  -6451845.00146  21841646.2634   21841642.8604
      1650.4534
   2849735.82549   2218740.00047  20895950.0214   20895945.9154
     -1806.2034
  -2382647.20847  -1852236.55143  23903272.7394   23903269.1184
      1198.9064
  11715986.81247   9104013.47644  23471113.6924   23471110.0214
     -3661.9224
  -3345999.55249  -2598617.66647  21157491.3254   21157487.7244
       393.9694
  -2048501.66148  -1592372.21542  24127617.5674   24127615.7594
      2943.1414
 04  9  7 22  0 15.0010000  0  8G19G 3G 8G13G10G23G27G28
  -6195772.93148  -4816989.43845  23148298.1694   23148293.3964
      1315.9534
   -868496.47248   -668051.05244  23292348.3964   23292346.3764
     -1064.0004
  -8330901.06949  -6471115.20546  21836940.3494   21836936.8254
      1647.0164
   2876890.22749   2239899.26947  20901117.5914   20901113.4384
     -1814.2504
  -2400561.50347  -1866195.72943  23899864.3804   23899859.8214
      1189.8134
  11770946.65647   9146839.29244  23481572.6144   23481568.3104
     -3665.8914
  -3351883.23649  -2603202.35047  21156371.8334   21156367.9784
       390.6884
  -2092623.18748  -1626752.54442  24119220.7714   24119219.5174
      2939.9384
 04  9  7 22  0 30.0010000  0  8G19G 3G 8G13G10G23G27G28
  -6215454.74648  -4832325.89145  23144552.9974   23144548.0994
      1308.5784
   -852463.31348   -655557.67144  23295398.7714   23295397.2314
     -1073.5004
  -8355579.48249  -6490345.11447  21832243.9354   21832240.6614
      1643.6884
   2904164.90349   2261152.23947  20906307.6774   20906303.6774
     -1822.1094
  -2418340.43047  -1880049.44743  23896480.8964   23896477.9314
      1180.9694
  11825965.22347   9189710.83044  23492042.0674   23492038.4504
     -3669.6724
  -3357718.47649  -2607749.28547  21155261.4354   21155257.1774
       387.5784
  -2136698.41248  -1661096.80342  24110833.3884   24110832.6494
      2937.0164
 04  9  7 22  0 45.0010000  0  8G19G 3G 8G13G10G23G27G28
  -6235021.65648  -4847572.79545  23140829.4974   23140825.0714
      1300.2194
   -836282.84848   -642949.52444  23298478.0834   23298475.8644
     -1084.0314
  -8380203.98249  -6509533.03047  21827558.0754   21827555.2554
      1639.3914
   2931561.54649   2282500.27247  20911521.3644   20911517.2744
     -1830.9064
  -2435981.62246  -1893795.80943  23893123.0364   23893120.7244
      1171.0634
  11881044.54447   9232629.73644  23502523.5604   23502519.3724
     -3674.4224
  -3363503.02749  -2612256.71647  21154160.3724   21154156.5874
       383.5474
  -2180724.92548  -1695403.10143  24102455.7084   24102454.5754
      2933.0164
 04  9  7 22  1  0.0010000  0  8G19G 3G 8G13G10G23G27G28
  -6254471.08448  -4862728.16545  23137128.3494   23137123.4814
      1292.8594
   -819952.71848   -630224.74644  23301585.4114   23301582.9074
     -1093.5314
  -8404772.36049  -6528677.20347  21822882.9424   21822879.6034
      1636.1564
   2959082.53749   2303945.19347  20916758.5054   20916754.3174
     -1838.7814
  -2453482.49746  -1907432.86343  23889792.3644   23889789.5014
      1162.0944
  11936186.76247   9275597.64444  23513017.3024   23513012.2044
     -3678.0784
  -3369234.52549  -2616722.81947  21153069.9354   21153065.9584
       380.4844
  -2224700.29047  -1729669.55043  24094087.2864   24094086.3454
      2930.1564
 04  9  7 22  1 15.0010000  0  8G19G 3G 8G13G10G23G27G28
  -6273808.69948  -4877796.41145  23133448.7084   23133443.6774
      1285.5944
   -803479.00048   -617388.07444  23304720.1614   23304718.1964
     -1103.0164
  -8429290.42349  -6547782.17447  21818217.2784   21818214.2394
      1632.9694
   2986721.92649   2325482.38847  20922017.8024   20922013.5634
     -1846.5164
  -2470849.04346  -1920965.23443  23886487.4194   23886484.5324
      1153.4224
  11991385.68547   9318609.73844  23523520.9274   23523516.6854
     -3681.7974
  -3374918.87249  -2621152.18047  21151987.9114   21151984.0364
       377.4844
  -2268630.20847  -1763900.56142  24085727.5834   24085726.5874
      2927.2344
 04  9  7 22  1 30.0010000  0  8G19G 3G 8G13G10G23G27G28
  -6293032.35048  -4892775.85645  23129790.5284   23129785.4894
      1277.7814
   -786860.00448   -604438.21744  23307883.0754   23307880.4784
     -1112.7814
  -8453756.30549  -6566846.47447  21813561.5834   21813558.4234
      1629.2974
   3014481.39849   2347113.12647  20927300.2314   20927296.0324
     -1854.6414
  -2488079.17347  -1934391.31343  23883209.2784   23883206.3964
      1144.1254
  12046642.93547   9361667.27244  23534036.0524   23534032.1304
     -3685.7034
  -3380554.39849  -2625543.48847  21150915.5524   21150911.8534
       374.0474
  -2312512.68847  -1798094.60342  24077376.6534   24077375.4814
      2923.9064
 04  9  7 22  1 45.0010000  0  8G19G 3G 8G13G10G23G27G28
  -6312140.18348  -4907665.05045  23126154.4114   23126149.5364
      1269.8134
   -770094.02248   -591373.81144  23311073.7634   23311070.6534
     -1122.7814
  -8478168.16249  -6585868.69547  21808916.4194   21808913.0054
      1625.4694
   3042362.67549   2368838.78447  20932605.8254   20932601.5604
     -1863.0164
  -2505171.08747  -1947709.67543  23879956.4744   23879954.3414
      1134.6414
  12101959.98747   9404771.41044  23544562.6614   23544558.4194
     -3689.9374
  -3386139.33049  -2629895.38847  21149852.6854   21149848.9744
       370.4844
  -2356345.79747  -1832250.21143  24069035.9274   24069034.6574
      2920.3594
 04  9  7 22  2  0.0010000  0  8G19G 3G 8G13G10G23G27G28
  -6331134.60848  -4922465.87245  23122540.1384   23122534.9974
      1262.3444
   -753183.88248   -578197.09044  23314291.3644   23314288.6614
     -1132.3124
  -8502528.72949  -6604850.93547  21804280.6774   21804277.7904
      1622.2034
   3070362.87949   2390657.10547  20937934.4114   20937929.9704
     -1870.7814
  -2522127.41647  -1960922.38443  23876729.6144   23876727.3454
      1125.7194
  12157333.72047   9447919.72644  23555099.8884   23555095.4744
     -3693.6874
  -3391676.36949  -2634209.95547  21148798.8804   21148795.4154
       367.3594
  -2400132.23448  -1866369.46742  24060703.6224   24060702.1344
      2917.3754
 04  9  7 22  2 15.0010000  0  8G19G 3G 8G13G10G23G27G28
  -6350015.77348  -4937178.42545  23118946.5754   23118942.2044
      1254.5004
   -736130.20248   -564908.49444  23317536.5914   23317533.8374
     -1142.1094
  -8526838.49349  -6623793.57747  21799654.6694   21799651.6224
      1618.5474
   3098481.47449   2412567.68747  20943285.4034   20943281.4584
     -1878.9374
  -2538948.36146  -1974029.59143  23873527.6064   23873526.7474
      1116.3284
  12212763.53848   9491111.70344  23565648.4274   23565644.3374
     -3697.6094
  -3397166.03849  -2638487.60047  21147754.1774   21147750.8994
       363.9384
  -2443872.38847  -1900452.60643  24052379.8964   24052379.0174
      2913.9534
 04  9  7 22  2 30.0010000  0  8G19G 3G 8G13G10G23G27G28
  -6368779.27848  -4951799.30745  23115375.3724   23115371.9464
      1246.7504
   -718928.76148   -551504.77644  23320809.7474   23320807.0874
     -1151.8914
  -8551093.35749  -6642693.46947  21795038.6534   21795035.5714
      1614.9694
   3126722.67049   2434573.79647  20948659.4744   20948655.3454
     -1886.9844
  -2555629.60647  -1987027.96443  23870354.1064   23870351.7714
      1107.2034
  12268253.41647   9534350.53844  23576207.6384   23576203.0014
     -3701.5164
  -3402604.04549  -2642725.01447  21146719.7554   21146716.0404
       360.6414
  -2487561.75747  -1934496.21343  24044065.7314   24044064.9504
      2910.6564
 04  9  7 22  2 45.0010000  0  8G19G 3G 8G13G10G23G27G28
  -6387429.17248  -4966331.66445  23111826.5054   23111822.8724
      1239.3754
   -701584.12348   -537989.47244  23324110.6694   23324107.3924
     -1161.3124
  -8575297.18549  -6661553.57647  21790432.8564   21790430.5054
      1611.7664
   3155081.85649   2456671.85547  20954055.7084   20954052.0834
     -1894.7034
  -2572175.24447  -1999920.68143  23867205.7164   23867203.8724
      1098.3134
  12323798.81647   9577632.61044  23586777.4424   23586773.7474
     -3705.0314
  -3407994.72549  -2646925.54247  21145693.5674   21145690.2284
       357.6414
  -2531204.44747  -1968503.41943  24035760.7314   24035759.2554
      2907.8594
 04  9  7 22  3  0.0010000  0  8G19G 3G 8G13G10G23G27G28
  -6405965.26848  -4980775.36145  23108299.7314   23108295.6344
      1231.5784
   -684096.40548   -524362.66543  23327437.9274   23327435.3564
     -1171.0004
  -8599450.29149  -6680374.16547  21785837.1384   21785833.6464
      1608.2194
   3183559.03849   2478861.85747  20959474.9584   20959470.7284
     -1902.7344
  -2588585.20147  -2012707.64943  23864083.0914   23864080.6384
      1089.1254
  12379399.53747   9620957.79344  23597357.5364   23597353.6964
     -3708.8284
  -3413338.12249  -2651089.22347  21144677.2944   21144673.3494
       354.3284
  -2574800.26948  -2002474.09743  24027464.9974   24027463.6924
      2904.4534
 04  9  7 22  3 15.0010000  0  8G19G 3G 8G13G10G23G27G28
  -6424386.02548  -4995129.17345  23104794.4744   23104789.9894
      1223.9844
   -666464.37648   -510623.40443  23330793.1614   23330790.5484
     -1180.5164
  -8623551.26649  -6699154.12947  21781250.7554   21781247.4314
      1604.7814
   3212155.34049   2501144.68447  20964916.5834   20964912.3844
     -1910.6254
  -2604858.15247  -2025387.85243  23860986.2474   23860984.3724
      1080.1094
  12435056.57048   9664326.85844  23607948.7004   23607944.7744
     -3712.5474
  -3418632.82549  -2655214.96147  21143669.4424   21143666.0994
       351.1564
  -2618347.84948  -2036407.22343  24019178.0364   24019176.5794
      2901.3284
 04  9  7 22  3 30.0010000  0  8G19G 3G 8G13G10G23G27G28
  -6442688.89848  -5009391.13645  23101311.8884   23101306.7164
      1216.5944
   -648685.86048   -496770.03043  23334176.5134   23334173.7354
     -1189.8124
  -8647597.90749  -6717891.75947  21776674.6694   21776671.8644
      1601.6094
   3240873.06249   2523522.12447  20970381.4504   20970377.1814
     -1918.2664
  -2620991.58846  -2037959.38643  23857916.3724   23857913.9464
      1071.2664
  12490771.95848   9707741.39344  23618550.8494   23618547.9234
     -3716.0784
  -3423876.74449  -2659301.12947  21142671.4664   21142667.6144
       348.2034
  -2661844.86548  -2070300.91743  24010900.6464   24010899.1964
      2898.3754
 04  9  7 22  3 45.0010000  0  8G19G 3G 8G13G10G23G27G28
  -6460876.34348  -5023563.13445  23097850.5444   23097846.1104
      1208.7034
   -630763.69748   -482804.70343  23337587.3104   23337584.6574
     -1199.5784
  -8671592.95649  -6736589.18447  21772108.2314   21772105.3334
      1598.0164
   3269709.39549   2545991.98247  20975868.7634   20975864.5794
     -1926.3124
  -2636988.09546  -2050424.17943  23854872.5754   23854870.1064
      1061.9384
  12546542.64848   9751199.00644  23629164.5834   23629160.6344
     -3719.9064
  -3429072.55749  -2663349.81947  21141683.1614   21141679.2164
       344.7974
  -2705293.80547  -2104157.14942  24002632.3644   24002631.1144
      2895.0164
 04  9  7 22  4  0.0010000  0  8G19G 3G 8G13G10G23G27G28
  -6478947.62348  -5037644.63345  23094412.7084   23094407.6384
      1200.8914
   -612697.45648   -468727.11243  23341024.7634   23341022.0674
     -1209.2664
  -8695535.65649  -6755245.81247  21767552.4584   21767549.5134
      1594.4384
   3298664.68749   2568554.52947  20981378.7714   20981374.5754
     -1934.3284
  -2652847.03647  -2062781.81443  23851854.1854   23851852.2594
      1052.6724
  12602368.93747   9794699.96644  23639787.4274   23639784.0214
     -3723.6414
  -3434219.65049  -2667360.52747  21140703.8644   21140699.8064
       341.4844
  -2748694.00748  -2137975.41443  23994373.3024   23994372.0244
      2891.7344
 04  9  7 22  4 15.0010000  0  8G19G 3G 8G13G10G23G27G28
  -6496902.90948  -5051635.73445  23090995.4664   23090990.4814
      1193.2344
   -594487.58948   -454537.60543  23344490.0054   23344486.9354
     -1218.6414
  -8719426.60049  -6773862.11747  21763005.8804   21763002.8884
      1591.0474
   3327738.45849   2591209.40847  20986911.6924   20986907.2634
     -1942.1414
  -2668568.70847  -2075032.44443  23848863.4354   23848860.6574
      1043.5314
  12658250.30847   9838243.83944  23650421.0444   23650417.8844
     -3727.1874
  -3439318.41649  -2671333.59347  21139733.6304   21139729.3494
       338.3594
  -2792045.65948  -2171755.87643  23986123.7164   23986122.3604
      2888.6254
 04  9  7 22  4 30.0010000  0  8G19G 3G 8G13G10G23G27G28
  -6514739.23748  -5065534.14645  23087600.9974   23087596.0054
      1184.9694
   -576131.57748   -440234.23444  23347983.6064   23347980.6064
     -1228.7504
  -8743263.19149  -6792436.06447  21758469.7714   21758466.7284
      1587.1724
   3356933.35149   2613958.66247  20992467.1064   20992462.7204
     -1950.5004
  -2684150.32746  -2087173.97643  23845898.1064   23845895.3214
      1033.9224
  12714189.25847   9881832.57543  23661065.9194   23661062.6464
     -3731.2814
  -3444366.26949  -2675266.97747  21138772.9194   21138769.1384
       334.6884
  -2835345.89248  -2205496.22342  23977884.4504   23977882.6574
      2884.8134
 04  9  7 22  4 45.0010000  0  8G19G 3G 8G13G10G23G27G28
  -6532456.72848  -5079339.95845  23084229.2714   23084224.7354
      1177.1564
   -557629.92748   -425817.34243  23351503.7164   23351501.4934
     -1238.3284
  -8767045.58749  -6810967.79247  21753944.3024   21753941.6734
      1583.5474
   3386248.74949   2636801.81447  20998045.3964   20998041.1854
     -1958.4064
  -2699592.14847  -2099206.54443  23842959.8414   23842957.1064
      1024.6884
  12770185.21447   9925465.70944  23671721.8494   23671718.3724
     -3735.0004
  -3449363.48349  -2679160.91147  21137821.7004   21137817.8374
       331.4224
  -2878594.93348  -2239196.69543  23969654.7084   23969652.2984
      2881.5314
 04  9  7 22  5  0.0010000  0  8G19G 3G 8G13G10G23G27G28
  -6550060.66048  -5093057.27845  23080878.7714   23080874.7554
      1170.0164
   -538988.10848   -411291.24343  23355051.5134   23355049.1774
     -1247.2504
  -8790778.95549  -6829461.30947  21749428.4744   21749424.9704
      1580.8134
   3415679.18149   2659734.61247  21003646.1304   21003641.7984
     -1965.6414
  -2714899.48847  -2111134.31943  23840046.1614   23840044.0714
      1016.2814
  12826232.43648   9969138.82643  23682387.7474   23682384.0244
     -3737.9844
  -3454315.43249  -2683019.57047  21136879.4894   21136875.6034
       328.8284
  -2921798.11447  -2272861.46143  23961432.6224   23961430.9544
      2878.9534
 04  9  7 22  5 15.0010000  0  8G19G 3G 8G13G10G23G27G28
  -6567545.49648  -5106681.79545  23077552.1064   23077547.7904
      1161.3594
   -520200.94548   -396651.90643  23358626.5994   23358623.5324
     -1257.6724
  -8814458.14749  -6847912.60547  21744921.8884   21744918.7674
      1576.4384
   3445229.89549   2682761.12547  21009269.2474   21009265.5364
     -1974.4224
  -2730066.89246  -2122953.06243  23837159.3644   23837157.4424
      1006.1254
  12882335.90448  10012855.74943  23693063.5604   23693059.9664
     -3742.5004
  -3459216.91649  -2686838.89647  21135946.6464   21135943.1694
       324.7194
  -2964949.96747  -2306486.18843  23953221.3564   23953219.5634
      2874.6564
 04  9  7 22  5 30.0010000  0  8G19G 3G 8G13G10G23G27G28
  -6584914.93948  -5120216.41245  23074247.2944   23074241.9854
      1154.3444
   -501272.60148   -381902.55843  23362228.1534   23362225.7434
     -1266.4374
  -8838087.24549  -6866324.88747  21740425.6774   21740422.5874
      1573.7664
   3474896.71749   2705878.11747  21014914.5754   21014910.9234
     -1981.5004
  -2745098.21946  -2134665.76343  23834299.1224   23834297.1694
       997.7664
  12938491.37247  10056613.19444  23703749.8104   23703746.5754
     -3745.2504
  -3464071.98349  -2690622.07347  21135022.7714   21135019.3214
       322.2504
  -3008054.35948  -2340073.97243  23945018.6384   23945016.8494
      2872.2504
 04  9  7 22  5 45.0010000  0  8G19G 3G 8G13G10G23G27G28
  -6602169.11748  -5133661.20045  23070962.8414   23070958.5014
      1146.2194
   -482203.54848   -367043.54043  23365856.7244   23365853.9704
     -1276.1564
  -8861666.58749  -6884698.37347  21735938.5914   21735935.3994
      1570.0634
   3504679.48549   2729085.45247  21020581.8414   21020578.3024
     -1989.5624
  -2759993.62147  -2146272.56543  23831464.8964   23831462.9384
       988.2814
  12994698.38048  10100410.79344  23714445.4584   23714441.8724
     -3749.0474
  -3468880.85149  -2694369.23347  21134107.2084   21134103.8884
       318.8594
  -3051111.32547  -2373624.75443  23936824.6064   23936823.6304
      2868.6884
 04  9  7 22  6  0.0010000  0  8G19G 3G 8G13G10G23G27G28
  -6619302.99948  -5147012.24745  23067702.7864   23067698.0364
      1138.2504
   -462989.11348   -352071.26943  23369513.2164   23369510.7824
     -1285.8594
  -8885191.32349  -6903029.32447  21731462.0364   21731458.8684
      1566.4064
   3534582.64949   2752386.59747  21026272.2714   21026268.6184
     -1997.6414
  -2774748.39146  -2157769.77643  23828657.3334   23828655.4424
       978.9224
  13050961.38348  10144252.03344  23725152.0604   23725148.6144
     -3752.7664
  -3473638.73149  -2698076.67347  21133202.2244   21133198.6034
       315.4064
  -3094116.06748  -2407134.86943  23928641.5754   23928640.1464
      2865.2194
 04  9  7 22  6 15.0010000  0  8G19G 3G 8G13G10G23G27G28
  -6636314.23048  -5160267.73645  23064465.4814   23064461.2354
      1130.0314
   -443627.35148   -336984.18543  23373197.7784   23373195.2124
     -1295.6564
  -8908659.14149  -6921315.91947  21726996.1464   21726993.2514
      1562.7034
   3564608.17049   2775783.10547  21031986.3334   21031982.4154
     -2005.7504
  -2789360.15847  -2169155.58243  23825877.1224   23825874.8454
       969.3284
  13107282.22048  10188138.34843  23735869.8964   23735866.1534
     -3756.5944
  -3478343.62249  -2701742.81747  21132306.9274   21132303.4034
       311.9064
  -3137066.35447  -2440602.57043  23920468.1064   23920466.8334
      2861.6724
 04  9  7 22  6 30.0010000  0  8G19G 3G 8G13G10G23G27G28
  -6653205.99848  -5173430.12145  23061250.9424   23061246.6344
      1122.0474
   -424121.81548   -321785.05943  23376909.1224   23376906.8764
     -1305.2814
  -8932073.57949  -6939560.92046  21722540.4354   21722537.5674
      1559.1254
   3594752.48849   2799272.17247  21037722.2714   21037718.4624
     -2013.6874
  -2803832.24547  -2180432.51043  23823123.3414   23823120.7784
       960.0164
  13163657.20448  10232066.84443  23746597.6534   23746594.1144
     -3760.1724
  -3482998.83549  -2705370.24947  21131421.0754   21131417.3174
       308.5474
  -3179965.48848  -2474030.38743  23912304.4584   23912303.1574
      2858.1254
 04  9  7 22  6 45.0010000  0  8G19G 3G 8G13G10G23G27G28
  -6669980.60448  -5186501.22245  23058058.8724   23058054.5214
      1114.2344
   -404475.09048   -306475.91243  23380648.3724   23380645.5174
     -1314.6564
  -8955437.33649  -6957766.42947  21718094.6694   21718091.4974
      1555.6724
   3625013.12749   2822851.88247  21043481.1064   21043477.0404
     -2021.4224
  -2818167.02047  -2191602.46543  23820394.9274   23820392.3374
       950.9224
  13220083.72648  10276035.49943  23757335.1304   23757331.7004
     -3763.6254
  -3487606.84549  -2708960.90647  21130543.8644   21130540.4624
       305.4224
  -3222815.65448  -2507420.06143  23904150.2864   23904148.5714
      2854.8914
 04  9  7 22  7  0.0010000  0  8G19G 3G 8G13G10G23G27G28
  -6686634.85548  -5199478.52545  23054890.0754   23054885.5444
      1106.3444
   -384684.35048   -291054.56543  23384414.0834   23384412.2634
     -1324.1724
  -8978747.18249  -6975929.93147  21713658.9034   21713655.5714
      1552.2504
   3655392.84349   2846524.37547  21049261.7554   21049257.8764
     -2029.2344
  -2832361.51247  -2202663.10243  23817693.7634   23817691.5834
       941.7034
  13276564.38948  10320046.33044  23768083.7944   23768079.7004
     -3767.1724
  -3492164.87049  -2712512.61447  21129676.5674   21129672.8374
       302.2814
  -3265613.92548  -2540769.27143  23896006.6064   23896004.2284
      2851.4844
 04  9  7 22  7 15.0010000  0  8G19G 3G 8G13G10G23G27G28
  -6703169.88648  -5212362.94045  23051743.2714   23051738.6924
      1098.2344
   -364751.05748   -275522.13043  23388207.8724   23388205.4034
     -1333.7504
  -9002004.33249  -6994052.37647  21709233.2944   21709229.8064
      1548.6094
   3685890.20049   2870288.54347  21055065.2004   21055061.1814
     -2037.1564
  -2846416.84047  -2213615.29343  23815019.6694   23815016.3924
       932.2504
  13333097.65748  10364098.18444  23778841.6304   23778837.6854
     -3770.7664
  -3496674.13249  -2716026.32047  21128818.6144   21128814.6654
       298.8754
  -3308361.33048  -2574078.90243  23887871.7474   23887869.6534
      2848.0474
 04  9  7 22  7 30.0010000  0  8G19G 3G 8G13G10G23G27G28
  -6719583.92648  -5225153.08145  23048619.3884   23048615.2744
      1090.4064
   -344673.89848   -259877.59844  23392028.0364   23392025.4584
     -1343.0784
  -9025207.29849  -7012132.59447  21704817.5674   21704814.2284
      1545.2504
   3716506.64749   2894145.50547  21060891.4034   21060887.7904
     -2044.8594
  -2860331.48947  -2224457.87943  23812371.9814   23812368.5954
       923.1724
  13389684.73948  10408191.94244  23789609.5834   23789605.7864
     -3774.0944
  -3501133.13549  -2719500.86547  21127970.2084   21127966.4314
       295.7664
  -3351056.28947  -2607347.63243  23879746.7314   23879744.9584
      2844.7974
 04  9  7 22  7 45.0010000  0  8G19G 3G 8G13G10G23G27G28
  -6735878.43248  -5237850.06545  23045518.7944   23045514.0994
      1082.7034
   -324454.69248   -244122.36744  23395875.3254   23395873.2744
     -1352.3284
  -9048357.91349  -7030172.01647  21700412.3024   21700408.9814
      1542.0004
   3747240.36749   2918093.85547  21066739.7554   21066736.0604
     -2052.4694
  -2874107.05947  -2235192.10643  23809750.9664   23809748.0284
       914.1414
  13446323.68348  10452326.13743  23800387.7394   23800384.0174
     -3777.2974
  -3505543.58249  -2722937.56747  21127130.7004   21127127.0404
       292.7814
  -3393700.36448  -2640576.70443  23871631.8174   23871630.2864
      2841.6724
 04  9  7 22  8  0.0010000  0  8G19G 3G 8G13G10G23G27G28
  -6752053.36748  -5250453.88445  23042441.3964   23042436.4814
      1074.7664
   -304093.73948   -228256.68844  23399750.3104   23399748.2594
     -1361.7664
  -9071456.27949  -7048170.72647  21696017.0284   21696013.7594
      1538.5634
   3778090.94749   2942133.26047  21072610.5914   21072606.7824
     -2060.2194
  -2887743.53947  -2245817.91043  23807155.2554   23807152.9194
       904.9384
  13503014.05948  10496500.40643  23811175.3494   23811171.7004
     -3780.6414
  -3509905.58849  -2726336.52547  21126300.7784   21126296.9544
       289.6094
  -3436293.57648  -2673766.13643  23863526.7244   23863525.6534
      2838.2344
 04  9  7 22  8 15.0010000  0  8G19G 3G 8G13G10G23G27G28
  -6768110.30548  -5262965.76445  23039385.5134   23039380.6104
      1066.4224
   -283592.92048   -212282.02744  23403651.2944   23403648.7394
     -1371.3914
  -9094504.09749  -7066130.04747  21691630.8884   21691627.1814
      1534.7194
   3809056.60849   2966262.32647  21078503.1144   21078498.9744
     -2068.3754
  -2901242.64146  -2256336.70143  23804586.3884   23804583.9154
       895.2504
  13559753.89347  10540713.18144  23821972.2784   23821968.7514
     -3784.4224
  -3514221.00949  -2729699.19447  21125479.4504   21125475.6964
       286.0634
  -3478837.65147  -2706917.28143  23855430.2944   23855429.2474
      2834.5164
 04  9  7 22  8 30.0010000  0  8G19G 3G 8G13G10G23G27G28
  -6784047.12848  -5275384.03745  23036353.4114   23036348.1814
      1058.5474
   -262950.42348   -196196.96744  23407579.1774   23407577.0364
     -1380.8284
  -9117499.49349  -7084048.53247  21687255.1534   21687251.7474
      1531.4224
   3840139.12049   2990482.45047  21084418.2634   21084413.8214
     -2076.0164
  -2914602.30947  -2266746.81343  23802043.9814   23802042.0874
       886.0314
  13616545.05047  10584965.99543  23832778.8884   23832775.9854
     -3787.7664
  -3518487.81849  -2733023.97347  21124667.7784   21124664.2084
       282.8594
  -3521330.27848  -2740028.37943  23847344.7164   23847342.7944
      2831.2034
 04  9  7 22  8 45.0010000  0  8G19G 3G 8G13G10G23G27G28
  -6799862.26649  -5287707.49445  23033343.3494   23033338.0794
      1050.0474
   -242165.13248   -180000.62143  23411534.7714   23411532.3964
     -1390.6094
  -9140440.92849  -7101924.95247  21682889.1464   21682886.2634
      1527.4224
   3871339.65749   3014794.54347  21090355.1614   21090351.0834
     -2084.1414
  -2927821.18546  -2277047.23543  23799528.7244   23799526.7784
       876.3444
  13673388.44948  10629259.48543  23843596.2474   23843592.9034
     -3791.5314
  -3522704.68549  -2736309.83547  21123864.8564   21123861.4194
       279.2504
  -3563770.13647  -2773098.30943  23839268.6464   23839266.8844
      2827.3594
 04  9  7 22  9  0.0010000  0  8G19G 3G 8G13G10G23G27G28
  -6815554.21248  -5299934.95745  23030356.8024   23030352.5634
      1042.2664
   -221235.93948   -163692.16143  23415517.4114   23415514.9934
     -1399.7664
  -9163327.34849  -7119758.50447  21678534.2554   21678531.0174
      1524.2504
   3902659.44649   3039199.55247  21096315.5214   21096311.6104
     -2091.6724
  -2940897.81247  -2287236.80243  23797039.9974   23797038.1534
       867.2034
  13730285.01247  10673594.41143  23854424.2714   23854420.4274
     -3794.6724
  -3526870.46549  -2739555.89447  21123072.4744   21123069.6034
       276.3444
  -3606155.77947  -2806126.02343  23831202.4194   23831201.0564
      2824.0784
 04  9  7 22  9 15.0010000  0  8G19G 3G 8G13G10G23G27G28
  -6831123.48048  -5312066.83545  23027394.7004   23027389.3414
      1033.8914
   -200163.58648   -147272.16043  23419527.4584   23419524.7204
     -1409.5474
  -9186159.40749  -7137549.71547  21674189.2084   21674186.0754
      1520.3444
   3934097.69849   3063696.88047  21102297.7864   21102293.7434
     -2099.7344
  -2953832.81847  -2297316.02243  23794578.9504   23794576.0564
       857.7664
  13787233.95848  10717970.12643  23865260.9114   23865257.4354
     -3798.2504
  -3530985.67749  -2742762.54847  21122289.6534   21122285.8174
       272.7664
  -3648487.70447  -2839111.87543  23823147.0364   23823145.5174
      2820.4224
 04  9  7 22  9 30.0010000  0  8G19G 3G 8G13G10G23G27G28
  -6846571.04648  -5324103.87545  23024455.1064   23024449.7944
      1025.9384
   -178949.55747   -130741.72943  23423564.4194   23423561.4664
     -1418.9534
  -9208938.40749  -7155299.57247  21669854.7244   21669851.0014
      1516.9534
   3965653.00749   3088285.42947  21108302.5994   21108298.8454
     -2107.5004
  -2966627.27246  -2307285.71143  23792144.1384   23792141.1884
       848.3914
  13844233.84247  10762385.57743  23876107.9664   23876104.6264
     -3801.6874
  -3535051.73549  -2745930.91247  21121515.8964   21121511.9584
       269.5004
  -3690766.99748  -2872056.72243  23815101.5284   23815100.2784
      2816.9844
 04  9  7 22  9 45.0010000  0  8G19G 3G 8G13G10G23G27G28
  -6861897.71248  -5336046.70445  23021537.7864   23021533.6614
      1017.7504
   -157594.95447   -114101.76943  23427628.0674   23427624.5994
     -1428.3124
  -9231665.19149  -7173008.73947  21665530.0524   21665527.3104
      1513.3444
   3997324.21049   3112964.27547  21114329.3024   21114325.3644
     -2115.3284
  -2979282.22947  -2317146.68543  23789736.2944   23789732.9424
       838.9384
  13901283.19348  10806839.56743  23886963.6774   23886960.7714
     -3804.9374
  -3539069.41949  -2749061.56847  21120751.1224   21120747.5364
       266.2194
  -3732994.67247  -2904961.31443  23807065.7084   23807064.5014
      2813.4064
 04  9  7 22 10  0.0010000  0  8G19G 3G 8G13G10G23G27G28
  -6877096.66448  -5347890.02445  23018646.2004   23018640.7944
      1009.2974
   -136093.31148    -97347.26643  23431720.0914   23431716.4784
     -1438.0944
  -9254333.10449  -7190672.04147  21661216.5914   21661213.2824
      1509.5004
   4029117.87649   3137738.54547  21120379.8254   21120375.6264
     -2123.3284
  -2991790.82047  -2326893.64243  23787355.9744   23787352.6304
       829.2814
  13958388.61547  10851337.21643  23897830.2714   23897827.3564
     -3808.5314
  -3543032.22549  -2752149.46547  21119997.3104   21119993.7244
       262.6254
  -3775163.84347  -2937820.35543  23799041.3964   23799040.4314
      2809.5784
 04  9  7 22 10 15.0010000  0  8G19G 3G 8G13G10G23G27G28
  -6892174.04048  -5359638.59145  23015777.0364   23015771.8534
      1001.3444
   -114451.09647    -80483.19043  23435837.5134   23435835.2244
     -1447.2814
  -9276948.40349  -7208294.33947  21656912.9894   21656909.8844
      1506.2034
   4061027.55149   3162603.22047  21126451.6854   21126447.8254
     -2130.9534
  -3004159.50647  -2336531.57243  23785002.4504   23784999.2434
       820.1254
  14015543.41847  10895873.35643  23908707.4114   23908703.7204
     -3811.6874
  -3546946.49849  -2755199.54647  21119252.5524   21119248.5404
       259.5784
  -3817280.66947  -2970638.59143  23791026.7944   23791025.2314
      2806.3444
 04  9  7 22 10 30.0010000  0  8G19G 3G 8G13G10G23G27G28
  -6907126.81848  -5371290.08745  23012931.2314   23012926.9504
       992.8284
    -92665.61447    -63507.47243  23439983.1774   23439980.5284
     -1457.0474
  -9299508.30649  -7225873.46747  21652619.9424   21652616.5284
      1502.2344
   4093055.83349   3187560.30347  21132546.5444   21132542.5634
     -2139.0314
  -3016385.26847  -2346058.13943  23782675.5914   23782673.0484
       810.3754
  14072750.05947  10940449.90143  23919592.6534   23919589.7434
     -3815.4374
  -3550809.42049  -2758209.61147  21118517.4504   21118512.9114
       255.9224
  -3859342.29747  -3003413.81343  23783022.7474   23783020.4114
      2802.4064
 04  9  7 22 10 45.0010000  0  8G19G 3G 8G13G10G23G27G28
  -6921953.85448  -5382843.61145  23010109.8254   23010104.7674
       984.3134
    -70736.15947    -46419.60243  23444155.8494   23444153.4114
     -1466.6254
  -9322011.90749  -7243408.73147  21648337.6694   21648334.5324
      1498.3914
   4125203.50149   3212610.42747  21138663.7004   21138660.1464
     -2147.0784
  -3028467.11947  -2355472.56143  23780376.2864   23780373.3684
       800.7194
  14130009.29748  10985067.42643  23930489.5054   23930485.5324
     -3818.9534
  -3554620.11649  -2761178.98347  21117792.2394   21117788.1144
       252.2974
  -3901347.62147  -3036145.19043  23775029.1064   23775027.9544
      2798.5314
 04  9  7 22 11  0.0010000  0  8G19G 3G 8G13G10G23G27G28
  -6936659.25948  -5394302.33245  23007311.4744   23007306.7474
       976.2194
    -48667.30047    -29223.06243  23448355.6224   23448353.0364
     -1475.9844
  -9344463.38949  -7260903.36747  21644065.2394   21644062.3214
      1494.9694
   4157466.11249   3237750.11747  21144803.3334   21144799.4354
     -2154.7194
  -3040409.17147  -2364778.02343  23778103.4894   23778100.8994
       791.2814
  14187316.56447  11029722.37043  23941394.2864   23941390.9744
     -3822.1414
  -3558382.87949  -2764110.99147  21117076.2004   21117071.7594
       249.1414
  -3943300.77847  -3068835.90343  23767046.3254   23767044.2164
      2795.0784
 04  9  7 22 11 15.0010000  0  8G19G 3G 8G13G10G23G27G28
  -6951239.19748  -5405663.30045  23004536.9504   23004532.3534
       968.0314
    -26455.53447    -11915.19643  23452582.2634   23452580.1574
     -1485.3444
  -9366859.13349  -7278354.59047  21639803.4664   21639799.9034
      1491.3914
   4189847.18749   3262982.10647  21150965.1384   21150961.5604
     -2162.4534
  -3052207.94347  -2373971.87543  23775858.7634   23775855.6144
       781.9224
  14244675.08648  11074417.27143  23952309.1854   23952305.3964
     -3825.4224
  -3562093.94749  -2767002.73347  21116369.7634   21116366.3254
       245.9384
  -3985198.15247  -3101483.13243  23759072.9664   23759071.8724
      2791.4844
 04  9  7 22 11 30.0010000  0  8G19G 3G 8G13G10G23G27G28
  -6965692.52048  -5416925.62345  23001786.4584   23001781.3764
       959.2344
     -4100.02247      5504.68043  23456836.5444   23456833.5794
     -1495.2034
  -9389198.30949  -7295761.73447  21635552.8334   21635549.2244
      1487.2504
   4222347.46949   3288306.97847  21157150.1774   21157145.9314
     -2170.7194
  -3063862.38247  -2383053.25443  23773640.7164   23773637.4624
       772.1254
  14302085.60647  11119152.67443  23963234.1694   23963231.2314
     -3829.1874
  -3565752.63749  -2769853.66747  21115674.0054   21115669.9704
       242.0314
  -4027038.59347  -3134086.02343  23751111.3804   23751110.1884
      2787.4064
 04  9  7 22 11 45.0010000  0  8G19G 3G 8G13G10G23G27G28
  -6980022.42648  -5428091.76345  22999060.0674   22999054.5214
       951.2664
     18395.75848     23033.83443  23461117.8494   23461114.9354
     -1504.3284
  -9411484.13649  -7313127.29547  21631311.2474   21631307.9274
      1483.9694
   4254963.49649   3313722.06147  21163356.9034   21163352.6924
     -2178.2344
  -3075375.62247  -2392024.59343  23771450.2394   23771447.0324
       762.8754
  14359544.73948  11163925.95943  23974168.0524   23974165.7824
     -3832.1564
  -3569362.06049  -2772666.19347  21114986.6384   21114982.7124
       239.0944
  -4068825.33047  -3166647.02743  23743159.4504   23743158.3644
      2784.0944
 04  9  7 22 12  0.0010000  0  8G19G 3G 8G13G10G23G27G28
  -6994228.76348  -5439161.60045  22996356.0284   22996352.0794
       942.7344
     41031.52348     40672.11843  23465425.1384   23465422.2124
     -1513.8754
  -9433716.61249  -7330451.28347  21627080.8804   21627077.6494
      1480.2034
   4287695.03449   3339227.14147  21169585.0054   21169581.3924
     -2186.0784
  -3086747.64647  -2400885.91143  23769286.0834   23769283.4354
       753.2194
  14417051.91147  11208736.67643  23985111.2714   23985108.9504
     -3835.6414
  -3572922.46049  -2775440.51347  21114308.8494   21114304.8104
       235.5164
  -4110558.29747  -3199166.16143  23735217.8564   23735216.1964
      2780.2344
 04  9  7 22 12 15.0010000  0  8G19G 3G 8G13G10G23G27G28
  -7008312.15248  -5450135.65045  22993675.7554   22993671.5794
       934.3754
     63806.38648     58418.75443  23469759.2944   23469756.2044
     -1523.4374
  -9455896.62949  -7347734.40647  21622860.3884   21622856.9234
      1476.4844
   4320541.27049   3364821.59947  21175835.3804   21175831.7634
     -2194.0784
  -3097979.25447  -2409637.80243  23767149.0364   23767145.7514
       743.5784
  14474606.04647  11253583.98843  23996064.2554   23996061.1654
     -3838.9064
  -3576434.48949  -2778177.16947  21113640.7784   21113637.3414
       232.0474
  -4152238.17446  -3231643.93643  23727286.3174   23727284.5324
      2776.3754
 04  9  7 22 12 30.0010000  0  8G19G 3G 8G13G10G23G27G28
  -7022268.70948  -5461010.87145  22991020.4504   22991015.5914
       926.0474
     86723.82348     76276.50143  23474120.7084   23474117.2244
     -1532.7504
  -9478020.53749  -7364973.79647  21618649.8644   21618646.9624
      1472.9534
   4353505.77049   3390508.20547  21182108.7634   21182104.8214
     -2201.6564
  -3109066.71947  -2418277.38343  23765038.5994   23765036.4504
       734.2504
  14532210.69647  11298470.66143  24007025.4354   24007023.2784
     -3842.1414
  -3579894.50949  -2780873.28247  21112982.3414   21112978.7474
       228.8754
  -4193861.11947  -3264077.30244  23719365.7864   23719364.0174
      2772.8594
 04  9  7 22 12 45.0010000  0  8G19G 3G 8G13G10G23G27G28
  -7036097.25148  -5471786.33545  22988388.3724   22988384.4854
       917.5474
    109784.51148     94245.87543  23478508.7634   23478505.5484
     -1542.2034
  -9500087.47549  -7382168.80547  21614450.8804   21614447.6184
      1469.1094
   4386589.25449   3416287.51747  21188404.1854   21188400.4664
     -2209.5624
  -3120009.06647  -2426803.88743  23762956.2714   23762954.2204
       724.6094
  14589866.48847  11343397.17343  24017997.3804   24017994.3724
     -3845.5164
  -3583301.63549  -2783528.17947  21112334.0214   21112330.0134
       225.2814
  -4235425.98247  -3296465.46543  23711455.2864   23711454.1814
      2768.9694
 04  9  7 22 13  0.0010000  0  8G19G 3G 8G13G10G23G27G28
  -7049802.04548  -5482465.35745  22985780.9194   22985776.3254
       909.5944
    132983.85448    112323.28644  23482923.0054   23482920.5404
     -1551.1564
  -9522101.66349  -7399322.70147  21610261.7864   21610258.4154
      1465.9694
   4419787.11049   3442155.97047  21194721.2714   21194717.5954
     -2216.8594
  -3130810.62047  -2435220.67643  23760900.7944   23760898.7314
       715.4694
  14647568.80247  11388359.94343  24028977.0214   24028974.6344
     -3848.2814
  -3586660.18649  -2786145.22747  21111694.9814   21111690.8924
       222.4384
  -4276937.05147  -3328811.68143  23703556.5524   23703555.0364
      2765.6724
 04  9  7 22 13 15.0010000  0  8G19G 3G 8G13G10G23G27G28
  -7063381.40748  -5493046.66945  22983197.4354   22983192.5674
       900.9844
    156323.20348    130509.78743  23487364.5054   23487361.6574
     -1560.7974
  -9544061.58749  -7416434.32147  21606082.5604   21606079.5174
      1462.0634
   4453100.74249   3468114.62947  21201060.9894   21201057.2674
     -2224.9374
  -3141469.72347  -2443526.47143  23758873.1464   23758870.4624
       705.6884
  14705318.85647  11433359.90643  24039967.4194   24039963.9194
     -3851.7344
  -3589968.73449  -2788723.32747  21111065.2864   21111061.3764
       218.7664
  -4318392.76847  -3361114.79343  23695667.7004   23695665.9274
      2761.8134
 04  9  7 22 13 30.0010000  0  8G19G 3G 8G13G10G23G27G28
  -7076833.07448  -5503528.47145  22980637.0674   22980632.6814
       892.8754
    179804.50348    148806.90743  23491832.5364   23491830.4894
     -1569.8444
  -9565965.14049  -7433502.00547  21601914.9744   21601911.6654
      1458.7504
   4486532.05049   3494164.99147  21207422.8104   21207418.8174
     -2232.2974
  -3151984.27347  -2451719.60343  23756872.0994   23756868.8724
       696.4844
  14763118.40747  11478398.45943  24050965.6224   24050963.3494
     -3854.5944
  -3593225.13449  -2791260.77147  21110445.6534   21110442.0714
       215.6564
  -4359791.00747  -3393373.09543  23687789.3964   23687788.3294
      2758.3444
 04  9  7 22 13 45.0010000  0  8G19G 3G 8G13G10G23G27G28
  -7090161.13748  -5513913.94645  22978100.5134   22978096.2864
       883.9534
    203423.20247    167211.09343  23496326.4424   23496324.7634
     -1579.7194
  -9587816.74649  -7450529.22647  21597756.2394   21597753.4074
      1454.5314
   4520076.54249   3520303.53747  21213805.8804   21213802.2314
     -2240.6094
  -3162358.51747  -2459803.42443  23754897.3964   23754894.6264
       686.5004
  14820962.95748  11523472.07643  24061973.8104   24061970.8134
     -3858.3914
  -3596433.76249  -2793760.99547  21109834.8644   21109831.1034
       211.8444
  -4401135.91347  -3425589.83643  23679922.4974   23679920.5364
      2753.9534
 04  9  7 22 14  0.0010000  0  8G19G 3G 8G13G10G23G27G28
  -7103357.58948  -5524196.87945  22975589.7084   22975584.7244
       875.4224
    227187.08247    185728.40543  23500849.1854   23500846.9464
     -1589.1094
  -9609608.24849  -7467509.60947  21593609.5364   21593606.1854
      1450.7814
   4553741.99649   3546536.34347  21220212.2244   21220208.7474
     -2248.4224
  -3172584.58748  -2467771.79143  23752951.8564   23752948.7004
       676.7974
  14878860.13147  11568586.71343  24072991.0214   24072988.7904
     -3861.5784
  -3599586.73649  -2796217.85647  21109235.2084   21109231.4074
       208.3134
  -4442419.51847  -3457758.80743  23672065.4504   23672064.5284
      2750.2194
 04  9  7 22 14 15.0010000  0  8G19G 3G 8G13G10G23G27G28
  -7116425.06848  -5534379.31245  22973102.7714   22973097.6464
       866.8444
    251093.19447    204356.53743  23505397.9114   23505396.6144
     -1598.5314
  -9631342.52649  -7484445.39647  21589473.5834   21589470.3374
      1446.9844
   4587525.48049   3572861.11447  21226641.0834   21226637.0524
     -2256.2194
  -3182665.20247  -2475626.81343  23751033.8024   23751030.7984
       667.1414
  14936806.83547  11613739.88943  24084017.8254   24084015.3644
     -3864.7974
  -3602686.85349  -2798633.52947  21108644.9814   21108641.3804
       204.8594
  -4483644.37047  -3489882.02043  23664220.9584   23664219.7164
      2746.4224
 04  9  7 22 14 30.0010000  0  8G19G 3G 8G13G10G23G27G28
  -7129367.13748  -5544464.01145  22970640.5994   22970635.1694
       858.5634
    275137.39247    223092.27243  23509973.9814   23509971.7674
     -1607.6564
  -9653023.48049  -7501339.62747  21585347.8414   21585344.6924
      1443.5634
   4621423.05949   3599274.79747  21233091.5834   21233087.7864
     -2263.6414
  -3192604.10848  -2483371.38143  23749142.2554   23749139.2634
       657.8594
  14994798.96347  11658928.48543  24095054.1924   24095050.5094
     -3867.7034
  -3605737.86649  -2801010.93347  21108064.1464   21108060.4034
       201.7344
  -4524814.19047  -3521962.34043  23656386.3804   23656384.8994
      2742.7974
 04  9  7 22 14 45.0010000  0  8G19G 3G 8G13G10G23G27G28
  -7142181.75248  -5554449.40545  22968201.6384   22968196.0954
       850.1254
    299321.33247    241936.89243  23514575.7084   23514573.8764
     -1616.7814
  -9674649.22249  -7518190.84447  21581232.6534   21581229.3564
      1439.8914
   4655436.37349   3625778.66347  21239564.2004   21239560.5484
     -2271.3914
  -3202399.40048  -2491004.08743  23747277.4584   23747275.9664
       648.2814
  15052838.12748  11704153.72443  24106098.6774   24106094.8684
     -3870.8444
  -3608737.94249  -2803348.65347  21107493.4114   21107489.9074
       198.3914
  -4565926.93947  -3553998.19243  23648563.4744   23648561.6064
      2738.9844
 04  9  7 22 15  0.0010000  0  8G19G 3G 8G13G10G23G27G28
  -7154862.55349  -5564330.52445  22965788.3174   22965783.6464
       841.0314
    323651.15947    260895.17443  23519205.2554   23519203.6184
     -1626.7974
  -9696213.37949  -7534994.07847  21577129.3414   21577125.8334
      1435.6094
   4689571.38049   3652377.35847  21246059.5754   21246056.1694
     -2279.6724
  -3212044.85347  -2498520.02643  23745441.9974   23745440.5794
       638.0784
  15110930.20347  11749420.22743  24117152.6614   24117149.4854
     -3874.5314
  -3611680.93749  -2805641.89647  21106933.6924   21106929.8804
       194.3444
  -4606976.32246  -3585984.64143  23640751.2944   23640750.0014
      2734.5634
 04  9  7 22 15 15.0010000  0  8G19G 3G 8G13G10G23G27G28
  -7167415.66048  -5574112.15345  22963399.6924   22963394.8024
       832.7814
    348120.31647    279962.06543  23523862.7394   23523859.3374
     -1635.7194
  -9717722.40449  -7551754.35147  21573036.2634   21573032.1344
      1432.2664
   4723821.71949   3679065.91847  21252577.6144   21252573.6574
     -2287.0164
  -3221546.61047  -2505923.97843  23743634.2314   23743632.2004
       628.7974
  15169068.70648  11794722.88243  24128216.4274   24128212.5834
     -3877.2664
  -3614573.10949  -2807895.53847  21106383.3494   21106379.6034
       191.2974
  -4647968.57247  -3617926.59743  23632951.0054   23632949.1774
      2731.1094
 04  9  7 22 15 30.0010000  0  8G19G 3G 8G13G10G23G27G28
  -7179840.31148  -5583793.68045  22961035.4424   22961030.3724
       824.1094
    372729.31447    299137.90043  23528545.3644   23528542.5484
     -1645.2974
  -9739175.75949  -7568471.23147  21568953.6304   21568950.2904
      1428.4384
   4758187.95149   3705844.78147  21259117.1144   21259113.4384
     -2294.9224
  -3230904.10947  -2513215.52343  23741853.1064   23741851.2554
       619.1884
  15227254.02448  11840061.99043  24139288.8724   24139285.1034
     -3880.5314
  -3617413.86449  -2810109.11347  21105842.8804   21105839.1694
       187.7034
  -4688902.83347  -3649823.38643  23625161.7314   23625159.7864
      2727.0634
 04  9  7 22 15 45.0010000  0  8G19G 3G 8G13G10G23G27G28
  -7192136.44948  -5593375.06045  22958694.9114   22958690.7204
       815.1884
    397477.74748    318422.37943  23533255.4504   23533252.4424
     -1654.8594
  -9760573.31849  -7585144.64547  21564882.0994   21564878.0134
      1424.3594
   4792669.74049   3732713.70447  21265678.5914   21265674.7634
     -2302.9224
  -3240117.37947  -2520394.70043  23740101.0364   23740097.7674
       609.1254
  15285485.71747  11885437.28643  24150369.5674   24150366.4194
     -3883.9224
  -3620203.26249  -2812282.67047  21105312.1144   21105308.3994
       183.9694
  -4729779.22547  -3681675.06743  23617383.3104   23617381.0794
      2722.9224
 04  9  7 22 16  0.0010000  0  8G19G 3G 8G13G10G23G27G28
  -7204302.58548  -5602855.14045  22956379.9274   22956375.2944
       806.8284
    422366.72048    337816.40343  23537991.7474   23537988.7784
     -1663.8284
  -9781913.75649  -7601773.55347  21560821.1534   21560817.1694
      1420.9534
   4827268.08349   3759673.43247  21272262.7004   21272258.7784
     -2310.3124
  -3249185.06848  -2527460.43343  23738374.9354   23738372.0484
       599.7814
  15343764.75147  11930849.40643  24161460.0444   24161456.5794
     -3886.6254
  -3622940.05549  -2814415.21847  21104790.7474   21104786.7674
       180.8914
  -4770596.40647  -3713480.59143  23609615.2164   23609613.5484
      2719.3134
 04  9  7 22 16 15.0010000  0  8G19G 3G 8G13G10G23G27G28
  -7216338.84448  -5612234.01445  22954089.3724   22954084.8884
       798.2814
    447395.78048    357319.54743  23542754.3644   23542751.4784
     -1673.0314
  -9803197.48549  -7618358.25747  21556771.0754   21556767.4814
      1417.2664
   4861982.79249   3786723.83747  21278868.8494   21278865.2244
     -2317.9224
  -3258107.35548  -2534412.83443  23736677.6064   23736673.6384
       590.1564
  15402090.65347  11976298.09043  24172560.1854   24172556.2984
     -3889.7814
  -3625624.61249  -2816507.08147  21104280.1384   21104276.9074
       177.4694
  -4811354.41247  -3745240.02543  23601859.7394   23601858.4354
      2715.5164
 04  9  7 22 16 30.0010000  0  8G19G 3G 8G13G10G23G27G28
  -7228242.80548  -5621509.80145  22951824.9814   22951819.6694
       789.7344
    472566.95248    376933.45143  23547544.0284   23547541.2864
     -1682.2814
  -9824422.20749  -7634896.98847  21552731.9584   21552728.3964
      1413.5004
   4896815.69349   3813866.34247  21285497.3804   21285493.2474
     -2325.5164
  -3266882.14548  -2541250.32343  23735007.1854   23735004.0364
       580.5944
  15460465.23647  12021784.70243  24183667.6224   24183664.2474
     -3892.6724
  -3628254.62249  -2818556.43747  21103779.5284   21103775.9154
       174.0634
  -4852050.94547  -3776951.53443  23594115.2474   23594113.4584
      2711.5784
 04  9  7 22 16 45.0010000  0  8G19G 3G 8G13G10G23G27G28
  -7240017.26148  -5630684.69245  22949583.6144   22949579.2314
       780.8914
    497877.03648    396655.61443  23552360.2784   23552357.3994
     -1691.8124
  -9845590.98949  -7651392.13947  21548703.6694   21548700.1384
      1409.6094
   4931763.68449   3841098.52847  21292147.4814   21292143.2594
     -2333.4224
  -3275512.19648  -2547975.03643  23733364.9744   23733362.6344
       570.7034
  15518885.40047  12067306.86043  24194784.8254   24194780.8994
     -3895.9694
  -3630833.04349  -2820565.58947  21103289.0364   21103285.6814
       170.4064
  -4892688.80247  -3808617.34543  23586382.2784   23586380.6574
      2707.5474
 04  9  7 22 17  0.0010000  0  8G19G 3G 8G13G10G23G27G28
  -7251660.82848  -5639757.57445  22947368.4274   22947363.5324
       771.4224
    523327.21148    416486.89243  23557202.7084   23557200.9114
     -1701.8284
  -9866702.43149  -7667842.60547  21544686.3414   21544682.6814
      1405.0164
   4966828.10549   3868421.44347  21298820.1614   21298816.3134
     -2342.0004
  -3283996.25848  -2554585.99943  23731750.6614   23731748.6494
       560.2974
  15577352.16447  12112865.27443  24205910.4744   24205907.4114
     -3899.8124
  -3633358.61049  -2822533.56247  21102808.3414   21102804.8494
       166.1724
  -4933266.54647  -3840236.32243  23578660.4974   23578658.8604
      2702.6724
 04  9  7 22 17 15.0010000  0  8G19G 3G 8G13G10G23G27G28
  -7263174.16148  -5648728.98545  22945177.1924   22945172.7784
       762.9064
    548916.32748    436426.45643  23562072.2474   23562070.0714
     -1710.8914
  -9887757.51649  -7684249.14947  21540679.6614   21540676.1654
      1401.4694
   5002007.62249   3895834.02447  21305514.7004   21305510.6734
     -2349.4224
  -3292335.15947  -2561083.82443  23730163.9504   23730161.2944
       550.7504
  15635864.34347  12158459.10543  24217044.8884   24217041.8214
     -3902.6724
  -3635832.13549  -2824460.97947  21102337.5754   21102334.2674
       162.8594
  -4973784.94347  -3871809.04644  23570950.2244   23570947.8644
      2698.9224
 04  9  7 22 17 30.0010000  0  8G19G 3G 8G13G10G23G27G28
  -7274554.49948  -5657596.75845  22943011.5214   22943006.5134
       754.7814
    574646.77748    456476.16443  23566969.2474   23566966.4504
     -1719.5314
  -9908753.63749  -7700609.74847  21536684.1614   21536680.6424
      1398.3134
   5037304.70049   3923338.22847  21312231.2944   21312227.7314
     -2356.5164
  -3300526.34347  -2567466.59243  23728605.3024   23728602.1814
       541.7034
  15694424.26247  12204090.14643  24228188.4894   24228185.2784
     -3905.0784
  -3638251.19249  -2826345.95347  21101877.2864   21101873.5244
       160.0164
  -5014241.40947  -3903333.51443  23563251.3644   23563248.9464
      2695.5944
 04  9  7 22 17 45.0010000  0  8G19G 3G 8G13G10G23G27G28
  -7285807.44248  -5666365.26345  22940870.3414   22940865.1224
       745.7974
    600512.64448    476631.36543  23571890.7864   23571888.6614
     -1728.9694
  -9929696.22049  -7716928.63647  21532698.9504   21532695.3764
      1394.3134
   5072713.48849   3950929.46247  21318970.0524   21318965.6384
     -2364.4374
  -3308575.42947  -2573738.57543  23727072.9894   23727070.4624
       531.8284
  15753026.00047  12249753.74743  24239340.9034   24239336.9814
     -3908.3594
  -3640621.28949  -2828192.79047  21101426.1064   21101422.4934
       156.2344
  -5054641.49747  -3934814.05443  23555563.6464   23555561.2984
      2691.3594
 04  9  7 22 18  0.0010000  0  8G19G 3G 8G13G10G23G27G28
  -7296928.59148  -5675031.07045  22938754.0054   22938748.8024
       736.5944
    626517.86948    496895.18043  23576839.5674   23576837.3174
     -1738.7344
  -9950581.19649  -7733202.64247  21528724.5524   21528720.9194
      1390.0474
   5108238.07449   3978610.95747  21325729.5214   21325725.2084
     -2372.5784
  -3316478.15748  -2579896.57043  23725569.5134   23725566.7984
       521.5634
  15811673.33247  12295452.90943  24250500.7244   24250497.4464
     -3911.7194
  -3642938.42049  -2829998.33247  21100985.3414   21100981.6104
       152.3134
  -5094980.89447  -3966247.27844  23547886.4664   23547884.6654
      2686.7814
 04  9  7 22 18 15.0010000  0  8G19G 3G 8G13G10G23G27G28
  -7307917.91448  -5683594.15145  22936662.8564   22936657.9784
       728.0314
    652662.31248    517267.48643  23581814.5054   23581812.6734
     -1747.8124
  -9971408.64349  -7749431.78547  21524761.4974   21524757.9384
      1386.3134
   5143878.26449   4006382.53247  21332511.6464   21332507.6144
     -2380.0314
  -3324234.65648  -2585940.59043  23724093.7164   23724090.9624
       512.0314
  15870365.93547  12341187.33843  24261669.3254   24261666.5364
     -3914.4844
  -3645202.50049  -2831762.54247  21100554.7244   21100551.2314
       148.9224
  -5135259.58147  -3997633.20844  23540222.6534   23540219.6464
      2682.9694
 04  9  7 22 18 30.0010000  0  8G19G 3G 8G13G10G23G27G28
  -7318773.51648  -5692053.03345  22934596.9354   22934592.2714
       719.2504
    678947.43447    537749.40843  23586816.4974   23586814.0714
     -1757.0164
  -9992176.76049  -7765614.72847  21520808.9744   21520806.2354
      1382.6094
   5179635.57749   4034245.35747  21339316.0914   21339312.1694
     -2387.7344
  -3331843.03648  -2591869.17743  23722646.1854   23722642.8374
       502.2194
  15929105.40947  12386958.25043  24272847.5914   24272844.7434
     -3917.5164
  -3647411.82049  -2833484.08547  21100134.2084   21100130.4424
       145.4844
  -5175475.53147  -4028970.25243  23532569.5284   23532566.8174
      2678.9694
 04  9  7 22 18 45.0010000  0  8G19G 3G 8G13G10G23G27G28
  -7329495.93048  -5700408.14945  22932556.7864   22932551.4354
       709.9064
    705372.23847    558340.12943  23591844.7714   23591842.4034
     -1766.7664
 -10012886.33149  -7781752.05347  21516868.2164   21516864.9114
      1378.2194
   5215509.13649   4062198.76547  21346142.5284   21346138.8104
     -2395.9374
  -3339304.01448  -2597682.94643  23721226.2084   23721223.5484
       492.0004
  15987890.75647  12432764.95043  24284032.9584   24284030.7744
     -3921.0164
  -3649567.11549  -2835163.53647  21099723.9034   21099720.4934
       141.4534
  -5215629.46247  -4060258.98944  23524928.5834   23524925.9544
      2674.3914
 04  9  7 22 19  0.0010000  0  8G19G 3G 8G13G10G23G27G28
  -7340084.93548  -5708659.29646  22930541.5214   22930536.4934
       701.5784
    731936.53048    579039.58643  23596899.9194   23596897.4504
     -1775.5004
 -10033537.19049  -7797843.61947  21512938.0994   21512934.7514
      1374.9224
   5251498.81849   4090242.65847  21352991.1384   21352987.4274
     -2403.0784
  -3346617.62448  -2603381.86243  23719834.7244   23719832.2204
       482.7504
  16046721.53347  12478607.04143  24295229.1144   24295226.3844
     -3923.4694
  -3651668.37849  -2836800.88147  21099324.0914   21099320.5524
       138.4534
  -5255721.28348  -4091499.31044  23517299.3564   23517296.7354
      2670.8914
 04  9  7 22 19 15.0010000  0  8G19G 3G 8G13G10G23G27G28
  -7350542.79748  -5716808.26646  22928551.5754   22928546.7784
       692.4844
    758637.74048    599845.71143  23601981.0604   23601978.6814
     -1784.8914
 -10054131.86349  -7813891.40247  21509019.3644   21509016.3454
      1370.7974
   5287601.93249   4118374.94847  21359861.4974   21359857.5364
     -2410.9374
  -3353786.19048  -2608967.75943  23718470.4274   23718467.8294
       472.7664
  16105595.10347  12524482.48143  24306432.6694   24306430.1344
     -3926.6414
  -3653718.07649  -2838398.04347  21098933.8104   21098930.1774
       134.6254
  -5295753.25048  -4122693.01644  23509680.9974   23509678.8994
      2666.5784
 04  9  7 22 19 30.0010000  0  8G19G 3G 8G13G10G23G27G28
  -7360862.58548  -5724849.63145  22926587.3414   22926583.0404
       684.0474
    785482.56947    620763.76343  23607089.0524   23607086.9384
     -1793.8444
 -10074663.39749  -7829889.98547  21505112.2084   21505109.5014
      1367.2664
   5323825.13749   4146600.79647  21366754.4814   21366751.1924
     -2418.2504
  -3360802.87848  -2614435.29743  23717135.4114   23717132.5954
       463.2974
  16164518.16947  12570396.46843  24317644.7314   24317642.5244
     -3929.2814
  -3655709.26249  -2839949.62647  21098555.2084   21098551.3414
       131.3754
  -5335718.44847  -4153834.68143  23502075.9274   23502073.8214
      2662.7974
 04  9  7 22 19 45.0010000  0  8G19G 3G 8G13G10G23G27G28
  -7371053.27248  -5732790.39845  22924648.2084   22924644.0214
       675.1414
    812461.43248    641786.25943  23612223.4584   23612220.7354
     -1802.9534
 -10095141.03949  -7845846.57847  21501215.5054   21501212.6064
      1363.4844
   5360159.16349   4174913.02047  21373668.3494   21373665.0244
     -2425.8444
  -3367676.86348  -2619791.61843  23715826.6694   23715824.2354
       453.6414
  16223481.26047  12616341.65443  24328866.2164   24328863.5914
     -3932.1414
  -3657651.21449  -2841462.81847  21098185.3804   21098182.2904
       127.8914
  -5375625.89648  -4184931.31044  23494482.2634   23494479.5404
      2658.6094
 04  9  7 22 20  0.0010000  0  8G19G 3G 8G13G10G23G27G28
  -7381115.14548  -5740630.79545  22922733.7164   22922728.7204
       666.2664
    839573.77247    662912.75243  23617383.2944   23617380.2164
     -1812.1564
 -10115565.24349  -7861761.52647  21497329.2944   21497325.8214
      1359.5634
   5396603.38249   4203311.10447  21380603.6614   21380600.2394
     -2433.4844
  -3374408.57248  -2625037.09043  23714546.0214   23714542.2634
       443.8594
  16282483.61747  12662317.45343  24340092.5754   24340091.0914
     -3935.0474
  -3659544.33149  -2842937.96947  21097825.1144   21097821.3964
       124.4064
  -5415475.87048  -4215983.18744  23486898.3414   23486896.1344
      2654.5314
 04  9  7 22 20 15.0010000  0  8G19G 3G 8G13G10G23G27G28
  -7391044.79948  -5748368.17945  22920843.9354   22920838.8334
       657.8594
    866822.77847    684145.72543  23622567.5524   23622565.5714
     -1820.8914
 -10135932.44149  -7877632.06047  21493453.1614   21493449.9074
      1356.1094
   5433160.92249   4231797.48347  21387560.1144   21387556.9074
     -2440.7344
  -3380994.66548  -2630169.10843  23713291.9584   23713288.2594
       434.3444
  16341528.29947  12708326.20942  24351329.3174   24351327.3334
     -3937.4844
  -3661385.16149  -2844372.38347  21097474.9974   21097471.5754
       121.1724
  -5455264.99048  -4246987.63444  23479327.1854   23479324.2204
      2650.7814
 04  9  7 22 20 30.0010000  0  8G19G 3G 8G13G10G23G27G28
  -7400840.73248  -5756001.34945  22918980.1924   22918974.8604
       648.7664
    894209.48747    705486.03843  23627779.0364   23627777.4544
     -1830.2504
 -10156241.53149  -7893457.30447  21489588.4584   21489585.4584
      1352.1884
   5469832.94649   4260373.07947  21394538.9194   21394535.2864
     -2448.4534
  -3387433.79048  -2635186.60143  23712067.5364   23712064.0324
       424.5004
  16400616.30847  12754368.74843  24362573.6854   24362570.9744
     -3940.4534
  -3663172.48349  -2845765.09347  21097134.7864   21097131.4034
       117.5314
  -5494991.87648  -4277943.61344  23471767.3494   23471764.7284
      2646.5944
 04  9  7 22 20 45.0010000  0  8G19G 3G 8G13G10G23G27G28
  -7410503.53648  -5763530.78445  22917141.5914   22917136.0174
       639.5944
    921732.84447    726932.78643  23633017.3804   23633015.0834
     -1839.6254
 -10176493.21649  -7909237.82847  21485734.8334   21485731.3214
      1348.0784
   5506618.32949   4289036.99747  21401538.6224   21401535.2124
     -2456.2344
  -3393726.77747  -2640090.23343  23710869.5524   23710866.9384
       414.5634
  16459746.46246  12800444.12742  24373825.3104   24373823.2554
     -3943.6414
  -3664907.07949  -2847116.73147  21096804.6064   21096801.0014
       113.7194
  -5534657.22648  -4308851.63744  23464218.6384   23464216.6034
      2642.0634
 04  9  7 22 21  0.0010000  0  8G19G 3G 8G13G10G23G27G28
  -7420029.47448  -5770953.56745  22915328.8964   22915323.7824
       630.7194
    949396.23247    748488.66443  23638281.0914   23638278.8454
     -1848.7034
 -10196683.96249  -7924970.86847  21481892.7474   21481889.5714
      1344.2194
   5543520.66449   4317792.04147  21408560.7784   21408557.4894
     -2463.8754
  -3399869.91047  -2644877.09543  23709701.2084   23709698.8924
       404.7194
  16518922.33546  12846555.10642  24385085.0134   24385084.7284
     -3946.3914
  -3666585.41649  -2848424.51547  21096485.3644   21096481.6734
       110.1724
  -5574257.21448  -4339708.70644  23456683.6144   23456680.7714
      2638.0004
 04  9  7 22 21 15.0010000  0  8G19G 3G 8G13G10G23G27G28
  -7429420.26248  -5778271.05746  22913541.3884   22913536.8964
       621.8284
    977197.61647    770152.08843  23643571.3494   23643569.3604
     -1857.7344
 -10216815.69549  -7940657.92747  21478061.7784   21478058.1184
      1340.4064
   5580537.91949   4346636.63647  21415605.3724   21415601.6694
     -2471.4224
  -3405865.08547  -2649548.65743  23708559.4664   23708557.8564
       395.0474
  16578141.66946  12892699.91242  24396355.5524   24396353.5134
     -3949.2194
  -3668209.22749  -2849689.82247  21096176.1854   21096172.4934
       106.7034
  -5613793.65648  -4370516.26544  23449159.9744   23449157.2594
      2633.8754
 04  9  7 22 21 30.0010000  0  8G19G 3G 8G13G10G23G27G28
  -7438678.67748  -5785485.38646  22911779.4974   22911775.1694
       612.5634
   1005133.96647    791920.64343  23648888.2314   23648885.4854
     -1867.1564
 -10236891.08949  -7956301.06847  21474241.2864   21474238.1184
      1336.2974
   5617667.10149   4375568.45047  21422670.7634   21422667.0914
     -2479.1414
  -3411715.12048  -2654107.12043  23707445.9584   23707443.6034
       384.9844
  16637401.28947  12938876.17742  24407632.6464   24407630.5054
     -3952.2034
  -3669781.40149  -2850914.87947  21095877.4034   21095873.6104
       102.9064
  -5653269.27648  -4401276.43744  23441647.7164   23441645.1144
      2629.5004
 04  9  7 22 21 45.0010000  0  8G19G 3G 8G13G10G23G27G28
  -7447800.75748  -5792593.48646  22910043.2004   22910038.8994
       603.3594
   1033208.88047    813797.18143  23654230.3174   23654227.9504
     -1876.4694
 -10256906.20249  -7971897.25847  21470432.7394   21470429.3374
      1332.1094
   5654911.72749   4404590.21847  21429758.5284   21429754.5484
     -2487.0314
  -3417416.17247  -2658549.51143  23706361.4034   23706357.8454
       374.8594
  16696704.85347  12985086.66842  24418917.2004   24418915.3374
     -3955.2194
  -3671298.20149  -2852096.80847  21095588.9744   21095585.2554
        99.0634
  -5692680.10948  -4431986.13344  23434148.4194   23434145.5364
      2625.0784
 04  9  7 22 22  0.0010000  0  8G19G 3G 8G13G10G23G27G28
  -7456784.53048  -5799593.80546  22908334.5364   22908329.6264
       594.8444
   1061423.79246    835782.83543  23659599.5134   23659597.0444
     -1885.2344
 -10276859.07649  -7987444.93247  21466635.9814   21466632.3254
      1328.6094
   5692273.44949   4433703.23447  21436867.4034   21436864.4854
     -2494.2194
  -3422966.49747  -2662874.42843  23705305.7164   23705302.4894
       365.4844
  16756053.89646  13031332.58443  24430210.9114   24430209.0914
     -3957.6564
  -3672757.64249  -2853234.02147  21095310.6774   21095306.9784
        95.8134
  -5732024.30748  -4462643.89444  23426661.7244   23426658.2634
      2621.2344
 04  9  7 22 22 15.0010000  0  8G19G 3G 8G13G10G23G27G28
  -7465634.92948  -5806490.18746  22906650.0364   22906645.3684
       585.4064
   1089773.46347    857873.47743  23664993.4744   23664991.6304
     -1894.6414
 -10296754.95249  -8002948.20747  21462849.9194   21462845.9034
      1324.3134
   5729746.95449   4462903.34646  21443998.8804   21443995.1304
     -2502.2034
  -3428371.08047  -2667085.79743  23704277.1774   23704273.7674
       355.2504
  16815443.09446  13077609.78742  24441512.8884   24441510.9504
     -3960.8594
  -3674164.99149  -2854330.65547  21095043.3804   21095039.3334
        91.9224
  -5771306.88148  -4493253.64844  23419185.9894   23419183.2944
      2616.5634
 04  9  7 22 22 30.0010000  0  8G19G 3G 8G13G10G23G27G28
  -7474349.81148  -5813280.99346  22904991.7554   22904986.9934
       576.4064
   1118259.58847    880070.44643  23670414.8804   23670412.0014
     -1903.7194
 -10316591.93049  -8018405.58947  21459075.1534   21459071.2714
      1320.4844
   5767334.08549   4492192.00946  21451150.9504   21451148.1814
     -2509.6254
  -3433627.91247  -2671182.04343  23703276.8024   23703273.7784
       345.4384
  16874873.96546  13123919.48443  24452821.9744   24452820.2124
     -3963.4064
  -3675518.24249  -2855385.14147  21094785.8644   21094781.8884
        88.3444
  -5810525.74648  -4523813.77544  23411723.1774   23411719.6614
      2612.3594
 04  9  7 22 22 45.0010000  0  8G19G 3G 8G13G10G23G27G28
  -7482925.11648  -5819963.03746  22903360.5284   22903354.8214
       566.5314
   1146885.99447    902376.72843  23675862.7784   23675859.7124
     -1913.5004
 -10336365.99149  -8033813.93347  21455312.1694   21455308.4894
      1315.6724
   5805038.58249   4521572.11147  21458326.5054   21458322.7314
     -2518.0164
  -3438733.10747  -2675160.08943  23702305.4744   23702302.7204
       334.7194
  16934350.35646  13170264.63542  24464139.8494   24464137.7394
     -3967.0164
  -3676813.32349  -2856394.29347  21094538.9194   21094534.8104
        83.9064
  -5849676.67348  -4554320.93544  23404272.7164   23404270.0714
      2607.2814
 04  9  7 22 23  0.0010000  0  8G19G 3G 8G13G10G23G27G28
  -7491357.65748  -5826533.83946  22901755.3414   22901750.2434
       557.5474
   1175655.42747    924794.45143  23681337.4664   23681334.7004
     -1922.5474
 -10356074.04749  -8049170.85247  21451561.5834   21451557.7864
      1311.7974
   5842863.30249   4551045.89347  21465524.2634   21465520.4784
     -2525.5314
  -3443683.65647  -2679017.66943  23701362.8024   23701360.2714
       325.0474
  16993874.83446  13216647.23542  24475467.6614   24475465.0284
     -3969.6724
  -3678047.19549  -2857355.74947  21094304.5054   21094300.5244
        80.3594
  -5888756.60748  -4584772.77544  23396835.8334   23396832.9194
      2603.1564
 04  9  7 22 23 15.0010000  0  8G19G 3G 8G13G10G23G27G28
  -7499652.48848  -5832997.32246  22900176.4974   22900171.6224
       548.2664
   1204562.51047    947319.44743  23686837.6924   23686835.6854
     -1931.7504
 -10375721.35249  -8064480.43047  21447822.8564   21447819.4114
      1307.6884
   5880802.94049   4580609.24847  21472743.8964   21472740.2634
     -2533.2664
  -3448484.69147  -2682758.74043  23700449.2944   23700446.7044
       315.0314
  17053442.07446  13263063.20742  24486803.3804   24486800.4424
     -3972.6874
  -3679225.11149  -2858273.60447  21094080.4354   21094076.0714
        76.5634
  -5927770.66548  -4615173.30644  23389411.6854   23389409.0954
      2598.6564
 04  9  7 22 23 30.0010000  0  7G19G 3G 8G13G10G27G28
  -7507809.64448  -5839353.52346  22898624.1064   22898619.5524
       538.8754
   1233606.87447    969951.41943  23692365.2394   23692362.5244
     -1941.2194
 -10395307.91049  -8079742.67347  21444095.2784   21444092.0874
      1303.4384
   5918857.23749   4610261.92246  21479985.2474   21479981.8334
     -2541.0784
  -3453136.34147  -2686383.40143  23699564.1224   23699561.9194
       304.8754
  -3680347.10549  -2859147.87447  21093866.6304   21093862.5364
        72.6414
  -5966718.78948  -4645522.43544  23382000.8174   23381997.4744
      2594.0474
 04  9  7 22 23 45.0010000  0  7G19G 3G 8G13G10G27G28
  -7515830.84848  -5845603.79045  22897097.8254   22897093.4194
       530.2344
   1262786.39346    992688.71743  23697917.4194   23697915.1654
     -1949.7344
 -10414835.54849  -8094958.99947  21440379.3804   21440376.2864
      1299.8284
   5957023.94449   4640002.20147  21487248.3174   21487245.0094
     -2548.2664
  -3457640.58447  -2689893.19143  23698707.3104   23698704.9584
       295.4384
  -3681415.13149  -2859980.10247  21093663.6464   21093659.8294
        69.4224
  -6005602.79148  -4675821.60044  23374600.3414   23374597.4744
      2590.1094
 04  9  7 22 24  0.0010000  0  7G19G 3G 8G13G10G27G28
  -7523708.42148  -5851742.15446  22895599.1064   22895594.0674
       520.4694
   1292108.30147   1015536.91543  23703497.7864   23703495.1464
     -1959.3914
 -10434296.75649  -8110123.58547  21436675.9744   21436672.6614
      1295.3284
   5995310.59549   4669835.95146  21494533.8174   21494530.3764
     -2556.2974
  -3461989.72447  -2693282.14643  23697879.3494   23697876.6534
       284.9534
  -3682421.58649  -2860764.35947  21093471.9664   21093467.8534
        65.2344
  -6044414.89548  -4706064.77044  23367215.1774   23367211.5914
      2585.2194
 04  9  7 22 24 15.0010000  0  7G19G 3G 8G13G10G27G28
  -7531449.59148  -5857774.22145  22894126.3414   22894121.1304
       511.5314
   1321564.95747   1038490.15343  23709102.7944   23709100.1654
     -1968.2814
 -10453699.07049  -8125242.25247  21432983.9354   21432980.7634
      1291.4534
   6033709.42849   4699757.08946  21501840.8884   21501837.6144
     -2563.7344
  -3466191.22247  -2696556.04243  23697079.8334   23697077.3214
       275.1254
  -3683373.84949  -2861506.38247  21093291.2634   21093286.8414
        61.6094
  -6083162.62848  -4736257.77544  23359841.7004   23359838.1424
      2580.9534
 04  9  7 22 24 30.0010000  0  7G19G 3G 8G13G10G27G28
  -7539052.33248  -5863698.39946  22892678.7554   22892674.3764
       501.8754
   1351158.05647   1061549.70543  23714734.0754   23714731.4974
     -1977.7814
 -10473040.42749  -8140313.42247  21429303.4814   21429299.8804
      1287.0944
   6072222.18849   4729767.02947  21509169.6464   21509166.5834
     -2571.6724
  -3470243.18547  -2699713.40243  23696308.5754   23696306.1144
       264.8284
  -3684270.05549  -2862204.70947  21093120.4424   21093115.6774
        57.5474
  -6121843.83948  -4766398.90844  23352480.4894   23352477.5914
      2576.2194
 04  9  7 22 24 45.0010000  0  7G19G 3G 8G13G10G27G28
  -7546511.68148  -5869510.87246  22891259.2634   22891254.7004
       492.7344
   1380892.35447   1084719.28143  23720392.5134   23720390.1494
     -1986.7194
 -10492315.88249  -8155333.25747  21425635.5444   21425632.2164
      1283.0944
   6110853.67149   4759869.46447  21516521.1854   21516517.5054
     -2579.2504
  -3474140.73947  -2702750.48143  23695567.3804   23695564.2124
       254.8754
  -3685105.24649  -2862855.51847  21092961.4274   21092957.1264
        53.8754
  -6160453.47548  -4796484.30544  23345133.3334   23345129.8494
      2571.7974
 04  9  7 22 25  0.0010000  0  7G19G 3G 8G13G10G27G28
  -7553832.47648  -5875215.37046  22889866.5914   22889861.8924
       483.5164
   1410762.61048   1107994.81043  23726076.5364   23726074.5214
     -1995.7974
 -10511530.39549  -8170305.59047  21421979.2164   21421976.3294
      1278.9844
   6149598.66149   4790060.34447  21523894.2084   21523890.6654
     -2586.7194
  -3477888.85747  -2705671.06943  23694854.7474   23694851.4544
       244.9064
  -3685884.48249  -2863462.71047  21092813.3024   21092809.1654
        50.1094
  -6198996.57848  -4826517.84344  23337798.3024   23337795.7124
      2567.3914
 04  9  7 22 25 15.0010000  0  7G19G 3G 8G13G10G27G28
  -7561010.07148  -5880808.29246  22888500.4584   22888495.9074
       474.3444
   1440773.00447   1131379.52743  23731787.2554   23731785.2864
     -2004.8284
 -10530679.40549  -8185226.88847  21418335.1224   21418331.6774
      1274.9534
   6188461.39449   4820342.98647  21531289.4744   21531286.0564
     -2594.2974
  -3481483.14948  -2708471.82743  23694170.4814   23694167.8134
       235.0314
  -3686603.33449  -2864022.85447  21092676.0444   21092671.9894
        46.4064
  -6237468.64548  -4856496.01744  23330477.7394   23330474.9424
      2562.9384
 04  9  7 22 25 30.0010000  0  7G19G 3G 8G13G10G27G28
  -7568048.15248  -5886292.49646  22887160.9274   22887156.9894
       464.6414
   1470919.60947   1154870.39143  23737523.0914   23737522.1464
     -2014.2814
 -10549766.71849  -8200100.11747  21414702.7784   21414699.1104
      1270.4384
   6227437.96849   4850714.31947  21538706.5134   21538702.6064
     -2602.1724
  -3484927.36547  -2711155.63744  23693514.9504   23693511.9544
       224.6254
  -3687265.37749  -2864538.72747  21092550.2004   21092546.5324
        42.3284
  -6275873.07148  -4886421.51544  23323169.6854   23323166.9194
      2558.0784
 04  9  7 22 25 45.0010000  0  7G19G 3G 8G13G10G27G28
  -7574946.49948  -5891667.80246  22885848.4274   22885844.2244
       455.3444
   1501202.34047   1178467.30843  23743286.4894   23743284.7714
     -2023.1094
 -10568792.20049  -8214925.14947  21411082.5214   21411079.1614
      1266.4064
   6266528.23549   4881174.24646  21546145.0444   21546141.2744
     -2609.6094
  -3488221.32047  -2713722.35743  23692887.6924   23692884.9354
       214.6564
  -3687870.46149  -2865010.21247  21092435.1854   21092431.5994
        38.5784
  -6314209.65548  -4916294.12544  23315874.3254   23315871.3534
      2553.7344
 04  9  7 22 26  0.0010000  0  7G19G 3G 8G13G10G27G28
  -7581703.87048  -5896933.27546  22884562.8104   22884558.1884
       445.7194
   1531621.92748   1202170.87443  23749075.0444   23749073.0954
     -2032.6094
 -10587754.63649  -8229701.08147  21407474.4354   21407470.8214
      1262.0634
   6305733.09949   4911723.47146  21553605.5994   21553602.1494
     -2617.4694
  -3491363.96747  -2716171.16843  23692289.7164   23692287.5604
       204.4384
  -3688417.47249  -2865436.46447  21092330.9274   21092327.4704
        34.4844
  -6352477.32848  -4946113.05044  23308592.0994   23308589.4934
      2548.8134
 04  9  7 22 26 15.0010000  0  7G19G 3G 8G13G10G27G28
  -7588317.54748  -5902086.76746  22883304.0994   22883299.1104
       435.9844
   1562180.73747   1225982.93243  23754890.1534   23754888.6774
     -2042.0314
 -10606651.47849  -8244425.87947  21403878.1224   21403874.7634
      1257.4534
   6345055.07849   4942363.96146  21561088.2944   21561084.8764
     -2625.4694
  -3494352.67347  -2718500.02643  23691721.2004   23691718.7124
       193.9534
  -3688904.00749  -2865815.56947  21092238.2784   21092234.6304
        30.2664
  -6390673.33448  -4975876.13744  23301323.9274   23301321.2714
      2543.8594
 04  9  7 22 26 30.0010000  0  7G19G 3G 8G13G10G27G28
  -7594792.01348  -5907131.78946  22882071.6534   22882066.9234
       426.9064
   1592874.00347   1249899.75643  23760730.6384   23760729.1034
     -2050.7974
 -10625487.43049  -8259103.23547  21400293.5444   21400290.2904
      1253.6414
   6384489.24549   4973091.87947  21568592.4974   21568588.5634
     -2632.7974
  -3497192.13247  -2720712.59343  23691180.7394   23691178.4154
       184.2194
  -3689334.53249  -2866151.04247  21092156.7784   21092152.6654
        26.7504
  -6428802.12548  -5005586.83844  23294067.9504   23294065.3724
      2539.5784
 04  9  7 22 26 45.0010000  0  7G19G 3G 8G13G10G27G28
  -7601121.47248  -5912063.81646  22880867.7394   22880862.3924
       417.4384
   1623707.06747   1273925.50143  23766598.2474   23766596.1424
     -2059.8444
 -10644256.59549  -8273728.54747  21396721.6304   21396718.7314
      1249.4224
   6424041.13949   5003911.51947  21576118.6464   21576115.2594
     -2640.3594
  -3499876.59247  -2722804.39743  23690670.4194   23690668.2554
       174.1564
  -3689703.38449  -2866438.45547  21092086.7634   21092082.6884
        22.9064
  -6466858.03148  -5035240.74244  23286826.6224   23286823.4584
      2534.9694
 04  9  7 22 27  0.0010000  0  7G19G 3G 8G13G10G27G28
  -7607314.66648  -5916889.66145  22879689.0284   22879683.7594
       408.2504
   1654670.86548   1298053.12643  23772490.3254   23772488.9384
     -2068.7034
 -10662967.92649  -8288308.80147  21393161.6534   21393158.1264
      1245.3914
   6463701.71949   5034815.84547  21583666.1694   21583662.3214
     -2647.7974
  -3502415.00147  -2724782.37643  23690187.5364   23690185.2744
       164.2504
  -3690019.38049  -2866684.68347  21092026.2004   21092022.8924
        19.2034
  -6504849.79548  -5064844.67244  23279596.7554   23279593.7354
      2530.5944
 04  9  7 22 27 15.0010000  0  7G19G 3G 8G13G10G27G28
  -7613366.00748  -5921604.97845  22878537.3964   22878532.1924
       398.2814
   1685770.50448   1322286.61543  23778408.7474   23778406.4664
     -2078.2344
 -10681615.86749  -8302839.65347  21389612.7394   21389609.7004
      1240.6414
   6503476.18349   5065808.92047  21591234.9584   21591231.4504
     -2655.7814
  -3504801.95348  -2726642.33943  23689732.7164   23689730.4544
       153.7034
  -3690277.02849  -2866885.45547  21091977.4424   21091973.5094
        14.8444
  -6542771.77148  -5094394.22644  23272380.1304   23272377.5524
      2525.3594
 04  9  7 22 27 30.0010000  0  7G19G 3G 8G13G10G27G28
  -7619272.84248  -5926207.68646  22877413.9424   22877408.0094
       388.6724
   1717008.28248   1346627.72843  23784353.5754   23784350.5954
     -2087.3444
 -10700197.95449  -8317319.19847  21386076.9814   21386073.6424
      1236.2814
   6543366.91049   5096892.58647  21598826.1854   21598822.3964
     -2663.4534
  -3507034.89948  -2728382.30443  23689307.3494   23689305.6034
       143.4844
  -3690473.79049  -2867038.77147  21091939.5994   21091936.1964
        10.8284
  -6580621.35548  -5123887.37244  23265177.6464   23265175.4934
      2520.5944
 04  9  7 22 27 45.0010000  0  7G19G 3G 8G13G10G27G28
  -7625033.32448  -5930696.36146  22876317.7084   22876312.2044
       379.3134
   1748385.75248   1371077.72443  23790324.2394   23790321.2084
     -2096.3594
 -10718712.16349  -8331745.85547  21382553.7714   21382549.6264
      1232.1884
   6583375.39549   5128068.01747  21606439.3174   21606436.0014
     -2670.9844
  -3509112.18348  -2730000.95143  23688912.3254   23688909.5444
       133.4844
  -3690607.96749  -2867143.32547  21091914.0914   21091909.9544
         7.0474
  -6618396.70648  -5153322.66444  23257989.6694   23257986.4384
      2516.0944
 04  9  7 22 28  0.0010000  0  7G19G 3G 8G13G10G27G28
  -7630656.78848  -5935078.25146  22875247.2084   22875242.2864
       370.5004
   1779893.21248   1395628.97243  23796319.6694   23796317.4704
     -2104.6254
 -10737168.03249  -8346127.02447  21379041.9424   21379038.3724
      1228.6414
   6623492.04049   5159327.71847  21614073.0364   21614069.6144
     -2677.8284
  -3511043.17948  -2731505.60543  23688544.9584   23688541.9854
       124.0784
  -3690688.90649  -2867206.38547  21091899.0834   21091895.1224
         3.8284
  -6656107.06248  -5182707.33344  23250813.0754   23250810.0134
      2512.0634
 04  9  7 22 28 15.0010000  0  7G19G 3G 8G13G10G27G28
  -7636136.77948  -5939348.36745  22874204.3884   22874199.4744
       360.7664
   1811536.75648   1420286.27443  23802341.1224   23802339.6734
     -2113.7974
 -10755559.13649  -8360457.75847  21375542.0834   21375538.8604
      1224.1884
   6663723.09549   5190676.57446  21621728.8494   21621725.4974
     -2685.6414
  -3512821.59348  -2732891.41143  23688206.3644   23688204.0634
       113.7504
  -3690710.27549  -2867223.03647  21091894.5994   21091891.1344
        -0.2814
  -6693746.11248  -5212036.39944  23243651.0834   23243648.3684
      2507.1884
 04  9  7 22 28 30.0010000  0  7G19G 3G 8G13G10G27G28
  -7641477.16648  -5943509.68546  22873187.8104   22873182.9704
       351.3754
   1843312.17848   1445046.34643  23808388.4814   23808386.5244
     -2122.7974
 -10773889.71149  -8374741.31047  21372053.5754   21372050.0914
      1219.9694
   6704064.38149   5222111.31846  21629405.9664   21629401.9314
     -2693.1254
  -3514451.47848  -2734161.44643  23687895.4894   23687893.8414
       103.6884
  -3690676.06749  -2867196.37947  21091901.3254   21091897.3254
        -4.2344
  -6731317.74648  -5241312.95844  23236501.0054   23236498.4274
      2502.4384
 04  9  7 22 28 45.0010000  0  7G19G 3G 8G13G10G27G28
  -7646675.85148  -5947560.59746  22872199.2244   22872194.0214
       341.7664
   1875221.27348   1469910.55243  23814460.0604   23814458.0284
     -2131.7814
 -10792157.49949  -8388975.95547  21368577.4974   21368573.6694
      1215.6884
   6744517.48649   5253633.20747  21637103.7084   21637100.0714
     -2700.6724
  -3515930.74548  -2735314.12943  23687613.8254   23687612.5054
        93.5474
  -3690584.23149  -2867124.81947  21091918.4424   21091914.8024
        -8.0944
  -6768819.71748  -5270535.26344  23229364.7394   23229361.7434
      2497.7344
 04  9  7 22 29  0.0010000  0  7G19G 3G 8G13G10G27G28
  -7651733.13748  -5951501.31546  22871236.2244   22871231.3684
       332.2504
   1907263.39948   1494878.44443  23820557.7554   23820555.3994
     -2140.7974
 -10810363.04349  -8403162.07947  21365113.2394   21365109.8884
      1211.3914
   6785081.88749   5285241.79947  21644822.6694   21644819.3494
     -2708.2194
  -3517259.86648  -2736349.79043  23687362.2784   23687359.3684
        83.4694
  -3690435.05849  -2867008.56547  21091947.1464   21091943.5324
       -12.1094
  -6806252.43148  -5299703.54944  23222241.2944   23222238.6264
      2493.0004
 04  9  7 22 29 15.0010000  0  7G19G 3G 8G13G10G27G28
  -7656645.79248  -5955329.33646  22870301.8104   22870296.8644
       322.9534
   1939441.42148   1519952.20643  23826680.9274   23826678.2784
     -2149.4374
 -10828503.09649  -8417297.17947  21361661.1534   21361657.9274
      1207.4384
   6825760.45649   5316939.38446  21652563.8104   21652560.1464
     -2715.4224
  -3518435.86548  -2737266.17343  23687138.1224   23687135.3684
        73.5784
  -3690225.60349  -2866845.35147  21091986.8494   21091983.1384
       -15.6414
  -6843612.70448  -5328815.41344  23215131.9354   23215129.4584
      2488.5474
 04  9  7 22 29 30.0010000  0  7G19G 3G 8G13G10G27G28
  -7661416.27548  -5959046.59446  22869393.5994   22869388.4154
       313.4064
   1971752.36748   1545129.55243  23832829.5604   23832827.1064
     -2158.2814
 -10846580.12249  -8431383.16647  21358221.2084   21358217.5014
      1203.2344
   6866550.52149   5348723.83947  21660325.5134   21660321.9704
     -2722.8914
  -3519461.25048  -2738065.17943  23686943.8564   23686940.4504
        63.4844
  -3689958.22149  -2866637.01547  21092037.7944   21092033.7044
       -19.5624
  -6880902.85848  -5357872.63344  23208035.9584   23208032.9464
      2483.8594
 04  9  7 22 29 45.0010000  0  7G19G 3G 8G13G10G27G28
  -7666043.38848  -5962652.11246  22868512.5214   22868508.1494
       303.2664
   2004197.09848   1570411.15543  23839003.0364   23839001.4854
     -2167.8284
 -10864592.95449  -8445419.13847  21354793.1924   21354789.4584
      1198.3754
   6907452.87349   5380595.76946  21668109.4974   21668105.7244
     -2730.9374
  -3520335.04547  -2738746.05443  23686776.8964   23686773.8804
        52.8914
  -3689631.96549  -2866382.76947  21092099.6854   21092096.1224
       -24.0944
  -6918121.83348  -5386874.39444  23200953.2314   23200950.9114
      2478.5474
 04  9  7 22 30  0.0010000  0  7G19G 3G 8G13G10G27G28
  -7670527.02248  -5966145.85245  22867659.9744   22867654.6654
       294.1564
   2036775.32748   1595796.78943  23845202.7164   23845200.7004
     -2176.2814
 -10882541.66549  -8459405.14547  21351377.5674   21351374.2864
      1194.4534
   6948467.47848   5412555.18746  21675914.3334   21675910.6464
     -2738.1094
  -3521057.20448  -2739308.81043  23686639.2864   23686636.1184
        43.0634
  -3689246.83949  -2866082.68347  21092172.9664   21092169.4314
       -27.6254
  -6955269.54648  -5415820.63044  23193884.6144   23193881.5604
      2474.1564
 04  9  7 22 30 15.0010000  0  7G19G 3G 8G13G10G27G28
  -7674868.40848  -5969528.71945  22866833.6384   22866828.4114
       284.7814
   2069485.58148   1621285.29143  23851427.7244   23851425.5284
     -2185.0164
 -10900427.48549  -8473342.13447  21347974.6224   21347971.2164
      1190.4384
   6989592.69649   5444600.79546  21683739.9034   21683736.2244
     -2745.2814
  -3521629.10048  -2739754.44343  23686530.4894   23686528.2744
        33.2504
  -3688803.84749  -2865737.47547  21092257.5364   21092254.0524
       -31.3594
  -6992347.11348  -5444712.18844  23186828.8024   23186825.9274
      2469.6254
 04  9  7 22 30 30.0010000  0  7G19G 3G 8G13G10G27G28
  -7679063.75948  -5972797.80346  22866035.7944   22866030.3684
       274.9844
   2102331.32348   1646879.37343  23857678.0674   23857675.6964
     -2194.0624
 -10918246.50849  -8487227.08947  21344583.8104   21344580.5874
      1185.8754
   7030832.08048   5476735.37746  21691587.6144   21691583.8064
     -2752.9064
  -3522046.99146  -2740080.08343  23686451.7714   23686448.6464
        22.8284
  -3688299.48849  -2865344.47747  21092353.2314   21092349.5524
       -35.4844
  -7029350.71448  -5473546.12544  23179787.1224   23179784.2864
      2464.5944
 04  9  7 22 30 45.0010000  0  7G19G 3G 8G13G10G27G28
  -7683115.36548  -5975954.88946  22865264.4034   22865259.2824
       265.1724
   2135309.68748   1672576.79143  23863953.1224   23863950.2984
     -2203.1414
 -10936001.66149  -8501062.26047  21341204.6924   21341201.2554
      1181.3914
   7072182.72048   5508956.63946  21699456.4114   21699452.4034
     -2760.5624
  -3522313.64948  -2740287.87444  23686401.0604   23686396.7394
        12.6564
  -3687736.26649  -2864905.60047  21092460.7394   21092456.4974
       -39.5944
  -7066282.92048  -5502324.42244  23172758.9114   23172756.3214
      2459.6254
 04  9  7 22 31  0.0010000  0  7G19G 3G 8G13G10G27G28
  -7687018.72848  -5978996.46945  22864521.5054   22864516.4034
       255.3914
   2168425.12348   1698381.04043  23870255.4034   23870252.5094
     -2212.0474
 -10953687.94149  -8514843.77947  21337839.4354   21337835.4974
      1176.9844
   7113649.16449   5541268.13446  21707347.3414   21707343.3024
     -2768.1414
  -3522424.39247  -2740374.16943  23686378.9114   23686376.3494
         2.4064
  -3687109.60249  -2864417.29247  21092579.8024   21092576.1184
       -43.8594
  -7103138.95848  -5531043.37944  23165745.6464   23165742.6034
      2454.6884
 04  9  7 22 31 15.0010000  0  7G19G 3G 8G13G10G27G28
  -7690784.96448  -5981931.16845  22863804.8724   22863800.1304
       246.6094
   2201666.12448   1724283.09843  23876580.6534   23876578.1304
     -2220.2504
 -10971316.77949  -8528580.51847  21334484.1614   21334481.0444
      1173.3594
   7155219.83348   5573660.85646  21715257.6534   21715254.2944
     -2774.8914
  -3522390.49946  -2740347.76443  23686385.9424   23686382.8134
        -7.0624
  -3686430.66749  -2863888.23947  21092709.0914   21092704.9624
       -46.9224
  -7139929.93548  -5559711.63444  23158744.7944   23158741.6494
      2450.5784
 04  9  7 22 31 30.0010000  0  7G19G 3G 8G13G10G27G28
  -7694407.86248  -5984754.21245  22863115.5134   22863110.6064
       236.1254
   2235038.40048   1750287.47043  23882931.7554   23882928.7354
     -2229.7974
 -10988882.11049  -8542267.78847  21331142.1924   21331138.9544
      1168.2504
   7196900.63148   5606139.38646  21723189.3884   21723185.6224
     -2782.9694
  -3522205.94747  -2740203.96743  23686420.7864   23686418.0324
       -17.9534
  -3685693.38649  -2863313.74047  21092849.3334   21092845.2634
       -51.7344
  -7176649.76048  -5588324.44744  23151756.4274   23151753.6924
      2445.0784
 04  9  7 22 31 45.0010000  0  7G19G 3G 8G13G10G27G28
  -7697886.94147  -5987465.15345  22862453.1534   22862448.4894
       226.9844
   2268542.00048   1776394.15543  23889306.4974   23889304.2434
     -2238.0784
 -11006383.21749  -8555905.00747  21327811.4354   21327808.4504
      1164.5164
   7238691.73549   5638703.86046  21731142.2554   21731138.5244
     -2789.8914
  -3521870.45548  -2739942.54043  23686484.1304   23686481.2354
       -27.6094
  -3684897.40149  -2862693.48747  21093000.6924   21092996.8844
       -55.1874
  -7213297.93648  -5616881.42544  23144782.7634   23144779.7354
      2440.7034
 04  9  7 22 32  0.0010000  0  7G19G 3G 8G13G10G27G28
  -7701222.88548  -5990064.57245  22861818.0754   22861813.4894
       217.0944
   2302175.87048   1802602.38143  23895707.0754   23895704.9154
     -2247.0314
 -11023821.03549  -8569492.91547  21324493.5364   21324489.7434
      1159.8754
   7280592.23549   5671353.59046  21739115.2634   21739111.5794
     -2797.5004
  -3521384.79048  -2739564.10043  23686577.6534   23686573.8764
       -37.8754
  -3684043.35349  -2862027.99347  21093163.1614   21093159.3374
       -59.3914
  -7249875.21548  -5645383.15944  23137822.6854   23137819.8134
      2435.5944
 04  9  7 22 32 15.0010000  0  7G19G 3G 8G13G10G27G28
  -7704415.01548  -5992551.94245  22861210.8104   22861205.8724
       207.9224
   2335940.55248   1828912.50043  23902132.6464   23902129.7674
     -2255.4694
 -11041194.84049  -8583030.93047  21321187.4584   21321183.7354
      1155.9224
   7322602.50649   5704088.84846  21747109.5134   21747106.1854
     -2804.5314
  -3520748.39648  -2739068.22643  23686697.8494   23686695.2864
       -47.5784
  -3683130.59449  -2861316.74747  21093336.8334   21093332.5794
       -62.9534
  -7286380.70748  -5673828.97444  23130876.2164   23130872.7634
      2431.1254
 04  9  7 22 32 30.0010000  0  7G19G 3G 8G13G10G27G28
  -7707463.31848  -5994927.23445  22860630.5754   22860626.0404
       198.2194
   2369835.55848   1855324.19943  23908582.2394   23908580.1614
     -2264.2194
 -11058504.79748  -8596519.20547  21317893.3104   21317890.1574
      1151.6724
   7364722.18548   5736909.35346  21755124.5914   21755121.3604
     -2811.8284
  -3519961.46748  -2738455.00443  23686847.3644   23686844.7674
       -57.6254
  -3682159.25449  -2860559.85247  21093521.7944   21093517.6574
       -66.9064
  -7322814.44549  -5702218.84745  23123942.8964   23123940.1734
      2426.3444
 04  9  7 22 32 45.0010000  0  7G19G 3G 8G13G10G27G28
  -7710366.05448  -5997189.08246  22860078.5444   22860073.9034
       189.1884
   2403862.16448   1881838.44043  23915057.4194   23915054.9544
     -2272.2194
 -11075749.26249  -8609956.44047  21314611.4034   21314608.2314
      1148.0314
   7406952.61848   5769816.16946  21763160.9894   21763157.2204
     -2818.5164
  -3519022.41748  -2737723.31243  23687027.1694   23687023.4234
       -67.1094
  -3681127.80949  -2859756.12547  21093718.0134   21093714.0244
       -70.2034
  -7359174.81349  -5730551.55944  23117023.3804   23117020.4934
      2422.1094
 04  9  7 22 33  0.0010000  0  7G19G 3G 8G13G10G27G28
  -7713127.72248  -5999341.01845  22859553.0364   22859548.2944
       179.4694
   2438015.71648   1908451.58043  23921555.6774   23921554.1854
     -2280.9694
 -11092932.78649  -8623346.20047  21311341.8964   21311338.6034
      1143.6094
   7449289.22749   5802805.70946  21771217.6304   21771214.1064
     -2825.8754
  -3517935.71748  -2736876.49443  23687234.0914   23687230.8254
       -77.2194
  -3680040.54449  -2858908.90547  21093924.9584   21093920.9154
       -74.2344
  -7395466.08549  -5758830.44945  23110117.2314   23110114.8964
      2417.2194
 04  9  7 22 33 15.0010000  0  7G19G 3G 8G13G10G27G28
  -7715748.01248  -6001382.79346  22859053.8174   22859049.1654
       169.8754
   2472296.19348   1935163.63643  23928080.0834   23928077.8884
     -2289.7504
 -11110054.77148  -8636687.99447  21308083.6304   21308080.0914
      1139.2814
   7491731.94548   5835877.94146  21779293.9424   21779290.7164
     -2833.2034
  -3516701.20848  -2735914.55243  23687468.2944   23687465.3644
       -87.3284
  -3678897.27149  -2858018.04247  21094142.0284   21094138.3724
       -78.2034
  -7431688.05848  -5787055.30244  23103224.7244   23103221.8884
      2412.3754
 04  9  7 22 33 30.0010000  0  7G19G 3G 8G13G10G27G28
  -7718224.73448  -6003312.68246  22858583.4974   22858578.6574
       160.4384
   2506705.24448   1961975.88643  23934627.6064   23934625.1464
     -2298.0944
 -11127113.30849  -8649980.34847  21304837.4664   21304834.2714
      1135.2664
   7534282.68448   5869034.32446  21787390.8724   21787387.7354
     -2840.1724
  -3515316.87348  -2734835.86243  23687732.3884   23687729.0094
       -97.1414
  -3677695.88349  -2857081.88347  21094371.1304   21094367.1304
       -81.8914
  -7467838.54348  -5815224.46645  23096345.1144   23096342.7434
      2407.7814
 04  9  7 22 33 45.0010000  0  7G19G 3G 8G13G10G27G28
  -7720553.01648  -6005126.92946  22858140.2554   22858135.0364
       150.6564
   2541247.56048   1988891.96443  23941200.9034   23941198.4934
     -2306.8594
 -11144103.59448  -8663219.53747  21301604.3964   21301600.9274
      1130.8284
   7576945.94548   5902278.41846  21795509.3414   21795506.4424
     -2847.5624
  -3513778.06048  -2733636.80343  23688024.7634   23688021.4504
      -107.2974
  -3676431.67549  -2856096.80047  21094611.8724   21094607.7204
       -85.9534
  -7503912.74949  -5843334.21145  23089480.4424   23089478.4854
      2402.7814
 04  9  7 22 34  0.0010000  0  7G19G 3G 8G13G10G27G28
  -7722738.79248  -6006830.12346  22857724.4274   22857719.2124
       141.1414
   2575916.79148   2015906.94743  23947797.8964   23947796.2284
     -2315.4224
 -11161031.54149  -8676410.13047  21298382.7394   21298379.6654
      1126.5474
   7619715.51649   5935605.32846  21803648.4974   21803645.0714
     -2854.7814
  -3512090.81748  -2732322.07243  23688346.4894   23688342.3604
      -117.2664
  -3675110.51149  -2855067.31647  21094863.3494   21094859.3254
       -89.8444
  -7539916.49549  -5871389.03745  23082629.2944   23082626.7824
      2398.0944
 04  9  7 22 34 15.0010000  0  7G19G 3G 8G13G10G27G28
  -7724780.04748  -6008420.69446  22857335.9424   22857330.9314
       131.3444
   2610714.48048   2043022.03243  23954420.2314   23954417.2904
     -2324.0164
 -11177895.48749  -8689550.86647  21295173.9974   21295170.4274
      1122.2664
   7662593.17249   5969016.47946  21811807.9974   21811804.4314
     -2862.0004
  -3510253.31148  -2730890.24443  23688695.6534   23688691.9354
      -127.3594
  -3673730.58749  -2853992.04947  21095125.7314   21095121.7744
       -93.8124
  -7575847.80848  -5899387.42645  23075791.5214   23075789.1344
      2393.2344
 04  9  7 22 34 30.0010000  0  7G19G 3G 8G13G10G27G28
  -7726678.27748  -6009899.82846  22856975.0994   22856969.0674
       122.2034
   2645638.96748   2070235.90443  23961066.0444   23961062.7824
     -2332.1874
 -11194696.55549  -8702642.59747  21291976.7164   21291973.5094
      1118.2664
   7705577.09349   6002510.41646  21819987.7634   21819983.9974
     -2868.8754
  -3508267.04847  -2729342.51843  23689073.0834   23689069.7784
      -137.0004
  -3672293.10849  -2852871.94347  21095399.3724   21095395.7004
       -97.4224
  -7611707.94648  -5927330.34345  23068967.5754   23068965.1694
      2388.6094
 04  9  7 22 34 45.0010000  0  7G19G 3G 8G13G10G27G28
  -7728432.46048  -6011266.69746  22856640.6694   22856635.8214
       111.7664
   2680690.73248   2097548.95843  23967736.3564   23967734.1104
     -2341.4534
 -11211433.90549  -8715684.68647  21288791.6774   21288788.2084
      1113.3284
   7748668.00249   6036087.72546  21828187.2474   21828184.0174
     -2876.6254
  -3506131.30146  -2727678.31244  23689479.4814   23689476.6184
      -147.6564
  -3670797.51049  -2851706.53647  21095683.8644   21095680.0174
      -102.0004
  -7647496.10548  -5955217.17345  23062156.9114   23062154.8104
      2383.1094
 04  9  7 22 35  0.0010000  0  7G19G 3G 8G13G10G27G28
  -7730045.08248  -6012523.28746  22856333.3024   22856329.1264
       102.7664
   2715867.01848   2124959.03943  23974429.2084   23974427.4274
     -2349.3594
 -11228110.27449  -8728679.25847  21285618.3254   21285614.4504
      1109.6254
   7791863.06449   6069746.20946  21836407.2784   21836403.6144
     -2883.1874
  -3503848.63048  -2725899.62243  23689914.2244   23689911.5484
      -157.1254
  -3669246.05049  -2850497.60947  21095979.4034   21095975.2674
      -105.4064
  -7683214.61848  -5983049.75044  23055360.3254   23055357.5674
      2378.8444
 04  9  7 22 35 15.0010000  0  7G19G 3G 8G13G10G27G28
  -7731516.31848  -6013669.67945  22856054.2004   22856049.0054
        93.1254
   2751167.30348   2152465.76043  23981147.3254   23981145.1104
     -2357.7344
 -11244725.55049  -8741626.21347  21282456.8724   21282453.1224
      1105.4384
   7835161.88149   6103485.51446  21844646.8494   21844643.4934
     -2890.2504
  -3501419.40447  -2724006.71143  23690376.8564   23690373.4354
      -167.2194
  -3667639.15149  -2849245.46747  21096285.0604   21096280.7944
      -109.2194
  -7718863.78748  -6010828.27045  23048576.5754   23048574.4384
      2374.0784
 04  9  7 22 35 30.0010000  0  7G19G 3G 8G13G10G27G28
  -7732843.41348  -6014703.76545  22855801.1384   22855796.1304
        83.7344
   2786593.92548   2180070.90943  23987888.8174   23987886.7244
     -2365.8124
 -11261277.15549  -8754523.54847  21279306.6064   21279303.5634
      1101.4694
   7878566.59549   6137307.35546  21852906.3964   21852902.9114
     -2897.0784
  -3498841.06747  -2721997.60843  23690867.0214   23690864.1884
      -176.7664
  -3665974.01449  -2847947.95347  21096601.5364   21096597.8804
      -112.8284
  -7754440.80048  -6038550.57645  23041806.2244   23041803.8064
      2369.4844
 04  9  7 22 35 45.0010000  0  7G19G 3G 8G13G10G27G28
  -7734027.79148  -6015626.65646  22855575.8804   22855570.8644
        74.0004
   2822145.29148   2207773.25043  23994654.4194   23994651.5564
     -2374.4844
 -11277766.45249  -8767372.35847  21276168.8024   21276165.1304
      1096.8594
   7922075.88749   6171210.67446  21861186.0214   21861182.6264
     -2904.4064
  -3496114.91948  -2719873.35343  23691385.8724   23691383.2824
      -186.9064
  -3664252.09649  -2846606.20847  21096929.7244   21096925.5874
      -117.0164
  -7789946.99148  -6066217.70244  23035049.6304   23035046.3924
      2364.4224
 04  9  7 22 36  0.0010000  0  7G19G 3G 8G13G10G27G28
  -7735067.91148  -6016437.12146  22855378.1774   22855372.4814
        64.6254
   2857822.60248   2235573.73643  24001443.2714   24001440.8254
     -2382.6094
 -11294191.97749  -8780171.46147  21273042.9584   21273039.9194
      1093.0634
   7965690.95649   6205196.43146  21869485.5674   21869481.8024
     -2911.1564
  -3493239.66647  -2717632.89143  23691932.8724   23691929.7864
      -196.5944
  -3662471.83249  -2845218.98947  21097268.6304   21097264.0524
      -120.5314
  -7825380.75948  -6093828.39745  23028306.9274   23028303.6924
      2359.9844
 04  9  7 22 36 15.0010000  0  7G19G 3G 8G13G10G27G28
  -7735966.06848  -6017136.97645  22855207.3804   22855202.3994
        54.9384
   2893623.19848   2263470.29643  24008256.0524   24008253.3644
     -2390.9534
 -11310556.05549  -8792922.68847  21269929.4034   21269925.6854
      1088.8134
   8009409.24949   6239262.61746  21877804.9504   21877801.1654
     -2918.1414
  -3490217.80748  -2715278.20643  23692507.6534   23692505.0914
      -206.5004
  -3660635.56149  -2843788.13447  21097617.8334   21097613.7474
      -124.4534
  -7860744.47748  -6121384.50345  23021577.4664   23021574.3064
      2355.1094
 04  9  7 22 36 30.0010000  0  7G19G 3G 8G13G10G27G28
  -7736717.61947  -6017722.58545  22855063.7164   22855058.9744
        44.9064
   2929551.24548   2291466.17743  24015092.5524   24015090.2514
     -2399.7194
 -11326854.15949  -8805622.49847  21266827.9274   21266824.8214
      1084.1414
   8053235.01049   6273412.54446  21886145.0284   21886140.9704
     -2925.5474
  -3487044.79548  -2712805.75244  23693112.6854   23693108.7864
      -216.7974
  -3658738.78549  -2842310.12247  21097978.6464   21097974.2554
      -128.7034
  -7896033.43449  -6148882.35244  23014862.6224   23014858.8684
      2349.8284
 04  9  7 22 36 45.0010000  0  7G19G 3G 8G13G10G27G28
  -7737327.59348  -6018197.88445  22854948.0444   22854942.4894
        36.0944
   2965601.29648   2319557.10043  24021953.5284   24021950.7864
     -2407.2974
 -11343091.34249  -8818274.85347  21263738.2714   21263734.9974
      1080.5944
   8097162.82048   6307641.99446  21894503.8024   21894500.3414
     -2931.7814
  -3483725.96848  -2710219.64843  23693743.2244   23693740.2044
      -225.9844
  -3656786.61849  -2840788.95447  21098350.1224   21098346.0674
      -131.8914
  -7931252.72248  -6176325.90444  23008159.5134   23008156.9544
      2345.8284
 04  9  7 22 37  0.0010000  0  7G19G 3G 8G13G10G27G28
  -7737795.56248  -6018562.51345  22854859.0604   22854853.6104
        26.5944
   3001773.52448   2347743.27143  24028836.0284   24028833.6064
     -2415.3594
 -11359266.98249  -8830879.22547  21260659.8334   21260656.6814
      1076.5164
   8141192.94748   6341951.14546  21902882.5054   21902878.7634
     -2938.6414
  -3480260.87548  -2707519.55843  23694402.6854   23694400.2314
      -235.7344
  -3654778.54349  -2839224.21847  21098732.1924   21098727.9424
      -135.6094
  -7966401.84149  -6203714.78445  23001471.3414   23001468.5484
      2341.0314
 04  9  7 22 37 15.0010000  0  7G19G 3G 8G13G10G27G28
  -7738118.91048  -6018814.46846  22854796.7784   22854792.2864
        16.7814
   3038070.21048   2376026.39843  24035743.3104   24035740.3884
     -2423.8754
 -11375378.58749  -8843433.72347  21257593.8884   21257590.2044
      1072.0004
   8185327.61248   6376341.79846  21911281.0364   21911277.0524
     -2945.7814
  -3476647.03048  -2704703.59043  23695090.6614   23695087.3334
      -245.9374
  -3652711.99249  -2837613.91347  21099125.6304   21099121.2714
      -139.7344
  -8001478.13448  -6231046.93344  22994796.2164   22994793.1304
      2336.0164
 04  9  7 22 37 30.0010000  0  7G19G 3G 8G13G10G27G28
  -7738298.81748  -6018954.64346  22854763.4664   22854758.0324
         6.9844
   3074489.80448   2404405.26243  24042673.4114   24042671.0524
     -2432.3284
 -11391427.32849  -8855939.22647  21254540.0524   21254536.5524
      1067.6094
   8229565.43349   6410812.79646  21919699.2554   21919696.1344
     -2952.9224
  -3472885.70548  -2701772.69743  23695806.2164   23695803.4234
      -255.9844
  -3650588.24449  -2835959.04347  21099529.3104   21099525.5404
      -143.7194
  -8036482.78748  -6258323.24345  22988134.8644   22988132.5214
      2330.9844
 04  9  7 22 37 45.0010000  0  7G19G 3G 8G13G10G27G28
  -7738333.22948  -6018981.44946  22854756.0834   22854752.0914
        -2.7974
   3111034.06648   2432881.31343  24049628.0134   24049625.4584
     -2440.5944
 -11407411.33848  -8868394.29847  21251498.5284   21251495.1814
      1063.1884
   8273908.18248   6445365.57146  21928137.6144   21928133.4154
     -2959.8284
  -3468975.04248  -2698725.42843  23696550.1534   23696547.3764
      -265.9694
  -3648405.03549  -2834257.84447  21099945.0834   21099941.2674
      -147.7194
  -8071413.62448  -6285542.03544  22981488.2084   22981484.9894
      2326.0784
 04  9  7 22 38  0.0010000  0  7G19G 3G 8G13G10G27G28
  -7738223.60247  -6018896.02446  22854777.4274   22854772.3884
       -12.4374
   3147701.17348   2461453.07243  24056605.2314   24056602.9784
     -2448.7974
 -11423332.10548  -8880800.07747  21248468.9504   21248465.4894
      1058.9844
   8318354.08248   6479998.71946  21936595.5834   21936592.0994
     -2966.7664
  -3464916.71248  -2695563.08643  23697322.3804   23697319.7784
      -275.7034
  -3646164.16249  -2832511.70847  21100371.3024   21100367.6064
      -151.5474
  -8106272.14449  -6312704.48145  22974854.8104   22974851.3684
      2321.2194
 04  9  7 22 38 15.0010000  0  7G19G 3G 8G13G10G27G28
  -7737968.37948  -6018697.13145  22854825.8024   22854821.2044
       -22.3754
   3184492.33548   2490121.52143  24063606.3414   24063604.3174
     -2457.3754
 -11439188.01749  -8893155.32547  21245451.6854   21245448.0284
      1054.4384
   8362904.41248   6514713.24646  21945073.0214   21945069.4274
     -2973.9534
  -3460709.20848  -2692284.51343  23698123.6614   23698120.1264
      -285.9844
  -3643863.97749  -2830719.35647  21100808.9894   21100805.2864
      -155.8124
  -8141056.74249  -6339809.31745  22968235.5994   22968232.5524
      2316.0474
 04  9  7 22 38 30.0010000  0  7G19G 3G 8G13G10G27G28
  -7737569.64848  -6018386.42645  22854901.5214   22854896.8024
       -31.4374
   3221405.10548   2518884.68243  24070630.5994   24070628.5214
     -2464.9694
 -11454981.03149  -8905461.56347  21242446.1614   21242442.3024
      1050.6564
   8407556.84848   6549507.32046  21953570.2164   21953566.2594
     -2980.3444
  -3456354.78048  -2688891.44543  23698952.1614   23698948.7354
      -295.2664
  -3641506.44649  -2828882.31247  21101257.8804   21101253.6654
      -159.1874
  -8175769.35648  -6366858.08045  22961629.5754   22961626.6854
      2311.7034
 04  9  7 22 38 45.0010000  0  7G19G 3G 8G13G10G27G28
  -7737027.54048  -6017963.99745  22855005.0284   22854999.8024
       -41.1414
   3258438.91248   2547742.19743  24077677.8564   24077675.6814
     -2473.1564
 -11470711.14649  -8917718.79247  21239453.0054   21239448.7944
      1046.3594
   8452310.88248   6584380.57146  21962086.5444   21962082.3644
     -2987.2504
  -3451853.71948  -2685384.13443  23699808.4504   23699805.2634
      -305.1564
  -3639091.87449  -2827000.83947  21101717.4194   21101712.9194
      -163.1254
  -8210410.24649  -6393850.94845  22955037.8884   22955034.8134
      2306.7974
 04  9  7 22 39  0.0010000  0  7G19G 3G 8G13G10G27G28
  -7736342.03548  -6017429.82346  22855135.0674   22855129.9504
       -50.6724
   3295593.41348   2576693.74143  24084748.0364   24084745.9194
     -2481.1254
 -11486378.66449  -8929927.24547  21236471.4974   21236468.0284
      1042.2664
   8497166.26448   6619332.79746  21970622.4894   21970618.6064
     -2993.8594
  -3447206.23948  -2681762.74643  23700693.2784   23700689.8414
      -314.8284
  -3636620.28549  -2825074.92847  21102187.8884   21102183.8994
      -166.8284
  -8244979.37648  -6420787.90444  22948459.5284   22948456.4814
      2302.0944
 04  9  7 22 39 15.0020000  0  7G19G 3G 8G13G10G27G28
  -7735511.52348  -6016782.64946  22855293.0644   22855288.1154
       -60.2194
   3332872.66348   2605742.50143  24091842.2994   24091839.8654
     -2489.3124
 -11501983.13848  -8942086.55247  21233502.2604   21233498.2054
      1038.0164
   8542127.45748   6654367.45946  21979178.0804   21979174.1864
     -3000.7034
  -3442410.42248  -2678025.75143  23701605.0804   23701603.1314
      -324.7034
  -3634089.94149  -2823103.21547  21102669.2684   21102665.4474
      -170.7344
  -8279477.36748  -6447669.40745  22941894.4164   22941892.1394
      2297.1884
 04  9  7 22 39 30.0020000  0  7G19G 3G 8G13G10G27G28
  -7734534.42948  -6016021.26846  22855479.0804   22855474.2874
       -69.8444
   3370272.74648   2634885.42043  24098960.0494   24098956.8144
     -2497.2194
 -11517520.65949  -8954193.70647  21230545.1664   21230541.6004
      1033.7664
   8587189.61948   6689480.80346  21987753.3074   21987749.7444
     -3007.4374
  -3437465.61948  -2674172.65243  23702546.1504   23702544.3734
      -334.4534
  -3631499.50049  -2821084.68847  21103162.3464   21103157.9364
      -174.5624
  -8313897.98749  -6474490.62544  22935344.7914   22935341.8384
      2292.3594
 04  9  7 22 39 45.0020000  0  7G19G 3G 8G13G10G27G28
  -7733413.37248  -6015147.71646  22855692.4004   22855687.6354
       -79.6874
   3407793.25648   2664122.15343  24106098.7754   24106097.2684
     -2505.5164
 -11532994.92549  -8966251.57847  21227600.4004   21227596.7954
      1029.2974
   8632352.92248   6724672.96346  21996347.2994   21996344.1004
     -3014.3914
  -3432374.13148  -2670205.28243  23703515.0494   23703513.3734
      -344.5004
  -3628851.55349  -2819021.35647  21103666.1274   21103661.9204
      -178.6094
  -8348246.01849  -6501255.30944  22928808.4244   22928805.4864
      2287.2194
 04  9  7 22 40  0.0020000  0  7G19G 3G 8G13G10G27G28
  -7732147.20448  -6014161.07445  22855933.7604   22855928.0104
       -89.2974
   3445434.88748   2693453.27443  24113262.0964   24113260.6314
     -2513.4844
 -11548404.71749  -8978259.19647  21224668.0804   21224664.4394
      1025.1724
   8677618.17148   6759944.56446  22004961.1894   22004957.8344
     -3021.1414
  -3427134.95847  -2666122.80443  23704511.9944   23704509.3894
      -354.2344
  -3626144.92149  -2816912.29047  21104180.9084   21104177.2564
      -182.4534
  -8382520.32848  -6527962.52544  22922286.4004   22922282.9794
      2282.4384
 04  9  7 22 40 15.0020000  0  7G19G 3G 8G13G10G27G28
  -7730734.40548  -6013060.17446  22856202.2914   22856197.4944
       -98.9534
   3483198.83648   2722879.72743  24120449.1584   24120446.6664
     -2521.4844
 -11563748.54249  -8990215.41547  21221748.2994   21221744.8934
      1020.9694
   8722986.67348   6795296.62046  22013594.4554   22013591.3854
     -3027.8284
  -3421746.68948  -2661924.16343  23705537.7994   23705534.6664
      -363.9534
  -3623377.90449  -2814756.16947  21104707.7364   21104703.1074
      -186.2344
  -8416719.44549  -6554611.15844  22915778.1194   22915774.8654
      2277.7034
 04  9  7 22 40 30.0020000  0  7G19G 3G 8G13G10G27G28
  -7729180.21148  -6011849.11246  22856497.7834   22856493.0764
      -108.3444
   3521079.60548   2752397.18743  24127657.1824   24127654.2294
     -2529.3594
 -11579031.78149  -9002124.42647  21218839.8614   21218836.3144
      1016.8754
   8768452.79948   6830724.75346  22022246.4394   22022243.3304
     -3034.3284
  -3416214.69848  -2657613.52343  23706590.3694   23706587.6894
      -373.6724
  -3620555.97149  -2812557.24947  21105244.5884   21105240.9434
      -189.9694
  -8450848.51648  -6581205.19445  22909283.5804   22909280.6744
      2272.8444
 04  9  7 22 40 45.0020000  0  7G19G 3G 8G13G10G27G28
  -7727483.59948  -6010527.06046  22856820.8544   22856815.5884
      -117.8754
   3559077.84748   2782006.21343  24134887.4864   24134885.7794
     -2537.1414
 -11594253.35449  -9013985.38247  21215943.4084   21215939.8694
      1012.6884
   8814017.38348   6866229.60046  22030917.0024   22030914.0024
     -3041.0004
  -3410538.14848  -2653190.24543  23707670.1974   23707667.9164
      -383.2664
  -3617677.95149  -2810314.64547  21105792.3934   21105788.3814
      -193.7814
  -8484906.40848  -6607743.78145  22902802.6744   22902799.6074
      2268.1564
 04  9  7 22 41  0.0020000  0  7G19G 3G 8G13G10G27G28
  -7725642.64948  -6009092.55346  22857171.2134   22857166.2874
      -127.6874
   3597195.12948   2811707.96143  24142141.1354   24142139.3264
     -2545.1874
 -11609411.24949  -9025796.73247  21213059.4394   21213055.5214
      1008.3284
   8859681.93249   6901812.33546  22039606.6434   22039603.3424
     -3047.7034
  -3404715.26948  -2648652.92143  23708778.3774   23708776.3264
      -393.2034
  -3614742.04949  -2808026.92547  21106350.8544   21106347.0764
      -197.7504
  -8518891.27949  -6634225.45845  22896335.6354   22896332.8384
      2263.1724
 04  9  7 22 41 15.0020000  0  7G19G 3G 8G13G10G27G28
  -7723655.32148  -6007543.97346  22857549.5644   22857544.3424
      -137.4844
   3635433.15748   2841503.82743  24149418.1504   24149415.8574
     -2553.3594
 -11624503.54849  -9037556.95747  21210187.0884   21210182.9004
      1003.8284
   8905448.31148   6937474.42546  22048315.4084   22048312.6464
     -3054.5784
  -3398744.21748  -2644000.17843  23709914.6114   23709912.0924
      -403.1254
  -3611746.29649  -2805692.56647  21106920.9244   21106916.6314
      -201.8594
  -8552801.04748  -6660648.62944  22889882.6894   22889879.4714
      2258.0314
 04  9  7 22 41 30.0020000  0  7G19G 3G 8G13G10G27G28
  -7721523.01248  -6005882.42646  22857955.3694   22857950.1314
      -146.9374
   3673790.11148   2871392.36343  24156716.8464   24156715.2174
     -2560.9534
 -11639531.56749  -9049267.09747  21207327.3384   21207323.6824
       999.8914
   8951314.88448   6973214.58846  22057043.6354   22057040.4794
     -3061.0004
  -3392626.44348  -2639233.07443  23711079.6744   23711077.0374
      -412.6724
  -3608692.03349  -2803312.62647  21107502.0334   21107498.1784
      -205.4694
  -8586636.96848  -6687014.24044  22883444.0184   22883440.8074
      2253.2974
 04  9  7 22 41 45.0020000  0  7G19G 3G 8G13G10G27G28
  -7719244.99748  -6004107.32845  22858388.0804   22858383.6004
      -156.6094
   3712266.50247   2901373.96443  24164038.8144   24164036.1584
     -2569.0314
 -11654494.63849  -9060926.61747  21204479.9324   21204476.0964
       995.4064
   8997282.12549   7009033.18546  22065791.2834   22065787.8774
     -3067.7814
  -3386361.39848  -2634351.21243  23712271.2524   23712269.2094
      -422.5314
  -3605578.48949  -2800886.48047  21108094.7604   21108090.7874
      -209.4844
  -8620398.31349  -6713321.74145  22877019.6584   22877015.6504
      2248.2344
 04  9  7 22 42  0.0020000  0  7G19G 3G 8G13G10G27G28
  -7716819.80047  -6002217.56246  22858850.2364   22858845.2564
      -166.3124
   3750863.41847   2931449.49543  24171383.4864   24171381.1784
     -2576.9534
 -11669391.25149  -9072534.36347  21201645.4474   21201641.6194
       991.0944
   9043351.27749   7044931.20446  22074557.6114   22074555.2014
     -3074.4534
  -3379947.67848  -2629353.51943  23713491.8074   23713489.8034
      -432.3754
  -3602404.22448  -2798413.03247  21108698.5884   21108695.0374
      -213.3754
  -8654083.53549  -6739569.92345  22870609.4714   22870606.0494
      2243.2974
 04  9  7 22 42 15.0020000  0  7G19G 3G 8G13G10G27G28
  -7714250.74047  -6000215.69045  22859339.0184   22859334.3574
      -176.2034
   3789577.17648   2961616.00642  24178750.0104   24178748.5414
     -2584.9224
 -11684224.80649  -9084092.97947  21198822.4634   21198818.7364
       986.6414
   9089518.62049   7080905.73246  22083343.3384   22083339.9904
     -3081.2034
  -3373388.85248  -2624242.74743  23714739.3304   23714737.7094
      -442.2344
  -3599172.48948  -2795894.79347  21109313.7214   21109309.6234
      -217.5314
  -8687695.99549  -6765761.42345  22864213.0884   22864209.0214
      2238.2344
 04  9  7 22 42 30.0020000  0  7G19G 3G 8G13G10G27G28
  -7711533.09048  -5998098.03046  22859855.8384   22859851.0534
      -186.2814
   3828412.22248   2991877.08242  24186140.5644   24186138.0294
     -2593.1874
 -11698990.45649  -9095598.67747  21196013.0574   21196008.9794
       981.9694
   9135788.58948   7116960.23146  22092148.2524   22092145.0104
     -3088.1874
  -3366680.34848  -2619015.35243  23716016.8144   23716014.0064
      -452.3284
  -3595878.64449  -2793328.16447  21109940.3464   21109936.8114
      -221.7814
  -8721230.86949  -6791892.46545  22857831.7604   22857828.1434
      2232.9384
 04  9  7 22 42 45.0020000  0  7G19G 3G 8G13G10G27G28
  -7708668.48548  -5995865.86046  22860401.5644   22860396.1584
      -195.9534
   3867366.65147   3022231.17543  24193553.0494   24193551.7874
     -2601.0474
 -11713689.79949  -9107052.69347  21193215.3934   21193212.1784
       977.6724
   9182159.26049   7153093.18546  22100972.6744   22100969.2524
     -3094.8444
  -3359823.77148  -2613672.57743  23717321.5104   23717318.4434
      -462.2194
  -3592524.27549  -2790714.37047  21110578.5334   21110575.0024
      -225.7034
  -8754689.78248  -6817964.30445  22851464.2524   22851460.8504
      2227.9384
 04  9  7 22 43  0.0020000  0  7G19G 3G 8G13G10G27G28
  -7705659.13549  -5993520.89745  22860973.2364   22860968.4864
      -205.0474
   3906437.92348   3052676.29542  24200988.1894   24200986.2364
     -2608.2664
 -11728324.87849  -9118456.64447  21190430.2834   21190426.9904
       973.9694
   9228628.23749   7189302.76446  22109815.1114   22109812.1434
     -3100.7814
  -3352821.53348  -2608216.29843  23718654.1974   23718651.3814
      -471.2974
  -3589111.48849  -2788055.05247  21111228.1274   21111224.3264
      -229.0944
  -8788074.77849  -6843978.55644  22845111.7294   22845107.9984
      2223.5784
 04  9  7 22 43 15.0020000  0  7G19G 3G 8G13G10G27G28
  -7702505.14949  -5991063.23846  22861574.2214   22861569.1434
      -215.0474
   3945625.51147   3083212.08542  24208445.2754   24208443.2324
     -2616.2664
 -11742895.90449  -9129810.69247  21187657.5964   21187653.9594
       969.3594
   9275195.09749   7225588.60146  22118676.7524   22118673.2294
     -3107.6564
  -3345674.01448  -2602646.81843  23720013.8384   23720011.0494
      -481.2974
  -3585640.56849  -2785350.44547  21111888.6194   21111885.1864
      -233.2664
  -8821386.00749  -6869935.32345  22838772.4634   22838768.6544
      2218.4224
 04  9  7 22 43 30.0020000  0  7G19G 3G 8G13G10G27G28
  -7699204.48949  -5988491.29246  22862202.7834   22862197.2834
      -224.6564
   3984931.03647   3113839.75542  24215925.2294   24215922.7484
     -2624.0474
 -11757400.65649  -9141113.08547  21184897.3694   21184893.7014
       965.0474
   9321861.63349   7261952.09946  22127557.4864   22127553.3654
     -3114.1414
  -3338379.26848  -2596962.60843  23721402.3694   23721399.6864
      -490.9694
  -3582109.38649  -2782598.88647  21112560.4474   21112556.8034
      -237.1414
  -8854621.39849  -6895832.99445  22832448.2834   22832444.3894
      2213.4534
 04  9  7 22 43 45.0020000  0  7G19G 3G 8G13G10G27G28
  -7695757.71549  -5985805.48246  22862858.7214   22862853.2054
      -234.9374
   4024353.62247   3144558.62242  24223425.9554   24223424.3464
     -2632.3594
 -11771840.06449  -9152364.57447  21182149.5494   21182146.4284
       960.2504
   9368627.06249   7298392.69146  22136456.6504   22136452.8144
     -3121.2034
  -3330938.07348  -2591164.27543  23722817.8854   23722814.8144
      -501.2664
  -3578518.51149  -2779800.79247  21113243.7834   21113240.3224
      -241.6094
  -8887781.38849  -6921671.92244  22826137.8544   22826133.8694
      2207.8594
 04  9  7 22 44  0.0020000  0  7G19G 3G 8G13G10G27G28
  -7692171.86049  -5983011.30046  22863540.7054   22863535.5884
      -243.8284
   4063885.98547   3175363.07142  24230948.5964   24230948.1044
     -2639.3594
 -11786220.90249  -9163570.41447  21179413.5184   21179409.7714
       956.6724
   9415483.98349   7334904.55046  22145372.8614   22145368.7794
     -3127.0164
  -3323357.44148  -2585257.30943  23724260.7754   23724257.6934
      -510.1414
  -3574874.90949  -2776961.62347  21113937.1044   21113933.6664
      -244.7974
  -8920873.12049  -6947457.64945  22819840.5254   22819837.4164
      2203.7034
 04  9  7 22 44 15.0020000  0  7G19G 3G 8G13G10G27G28
  -7688439.28649  -5980102.79246  22864250.9004   22864245.8384
      -253.7814
   4103535.42447   3206258.69842  24238494.5104   24238492.5684
     -2647.1724
 -11800535.33249  -9174724.51147  21176688.9244   21176685.5064
       952.0164
   9462439.81749   7371493.48746  22154308.1114   22154304.9434
     -3133.7664
  -3315629.83548  -2579235.82143  23725730.7604   23725728.2954
      -520.1564
  -3571170.87749  -2774075.37047  21114642.1504   21114638.2604
      -249.0164
  -8953888.69749  -6973184.04045  22813557.7524   22813554.4984
      2198.3594
 04  9  7 22 44 30.0020000  0  7G19G 3G 8G13G10G27G28
  -7684562.28249  -5977081.72646  22864988.5024   22864983.6824
      -262.5784
   4143299.25747   3237243.51942  24246060.5884   24246058.9434
     -2654.0474
 -11814785.98549  -9185828.91347  21173977.4794   21173973.6154
       948.6564
   9509491.95149   7408157.46146  22163262.0184   22163258.0374
     -3139.3124
  -3307757.85848  -2573101.80543  23727229.2834   23727226.2294
      -528.8754
  -3567408.91149  -2771143.96147  21115357.8614   21115354.2564
      -251.9224
  -8986830.49749  -6998852.94945  22807289.4004   22807286.2324
      2194.3754
 04  9  7 22 44 45.0020000  0  7G19G 3G 8G13G10G27G28
  -7680544.70649  -5973951.13446  22865753.3224   22865747.9124
      -272.9374
   4183173.38347   3268314.21342  24253649.2604   24253646.6234
     -2662.1564
 -11828976.43949  -9196886.40147  21171277.0024   21171273.2564
       943.7344
   9556636.38749   7444893.37046  22172232.9794   22172229.2834
     -3146.3754
  -3299745.38848  -2566858.32244  23728753.6664   23728751.1864
      -539.2194
  -3563592.66149  -2768170.25547  21116084.2604   21116080.3184
      -256.5314
  -9019702.23049  -7024467.25145  22801034.1434   22801030.8144
      2188.7664
 04  9  7 22 45  0.0020000  0  7G19G 3G 8G13G10G27G28
  -7676378.27849  -5970704.56546  22866545.9394   22866540.4594
      -282.5474
   4223165.87847   3299477.19642  24261259.6434   24261257.1154
     -2669.8754
 -11843098.47449  -9207890.57647  21168589.4474   21168586.3184
       939.4224
   9603881.11849   7481707.41746  22181223.4324   22181220.2054
     -3152.8284
  -3291584.27648  -2560499.03343  23730306.5414   23730304.3074
      -548.8594
  -3559713.82249  -2765147.79347  21116822.4324   21116818.6544
      -260.4844
  -9052495.58849  -7050020.48345  22794793.9474   22794790.4984
      2183.8134
 04  9  7 22 45 15.0020000  0  7G19G 3G 8G13G10G27G28
  -7672064.86949  -5967343.45745  22867366.4474   22867361.4514
      -292.1254
   4263274.23647   3330730.46442  24268892.1354   24268889.7094
     -2677.4374
 -11857154.05949  -9218842.97047  21165914.7214   21165911.1544
       935.1564
   9651223.84349   7518597.82946  22190232.7684   22190229.2174
     -3159.0944
  -3283276.67248  -2554025.57743  23731887.7994   23731885.3614
      -558.3284
  -3555774.33149  -2762078.05547  21117571.7604   21117568.2324
      -264.2504
  -9085212.40949  -7075514.07145  22788567.7134   22788564.7714
      2178.9534
 04  9  7 22 45 30.0020000  0  7G19G 3G 8G13G10G27G28
  -7667608.47149  -5963870.91846  22868214.9944   22868209.6784
      -302.0944
   4303494.34647   3362070.79042  24276545.0024   24276543.5144
     -2685.1724
 -11871147.00349  -9229746.56247  21163252.3934   21163248.4794
       930.5944
   9698660.42149   7555561.36746  22199259.4394   22199256.2294
     -3165.7664
  -3274826.71948  -2547441.19244  23733495.4554   23733493.2754
      -568.2344
  -3551778.11649  -2758964.12847  21118332.3384   21118328.9674
      -268.5164
  -9117856.64549  -7100951.10845  22782355.8384   22782352.5574
      2173.6724
 04  9  7 22 45 45.0020000  0  7G19G 3G 8G13G10G27G28
  -7663006.23948  -5960284.75846  22869090.1354   22869085.3114
      -312.0164
   4343828.79447   3393500.21842  24284220.8304   24284218.3114
     -2693.1414
 -11885074.34849  -9240599.03547  21160602.1114   21160598.4864
       925.9694
   9746193.52049   7592600.11946  22208304.5724   22208301.4044
     -3172.4224
  -3266231.54848  -2540743.66943  23735130.9394   23735129.1704
      -578.2034
  -3547722.29849  -2755803.75547  21119104.2684   21119100.5964
      -272.6564
  -9150425.34549  -7126329.27945  22776158.0104   22776154.8654
      2168.4224
 04  9  7 22 46  0.0020000  0  7G19G 3G 8G13G10G27G28
  -7658259.77447  -5956586.20346  22869993.6274   22869988.5644
      -320.9064
   4384275.66847   3425017.25543  24291917.9794   24291915.1114
     -2699.8914
 -11898937.72549  -9251401.65247  21157963.8934   21157960.6004
       922.4534
   9793821.29149   7629712.64546  22217368.0184   22217364.8114
     -3178.0944
  -3257492.84348  -2533934.30043  23736794.4394   23736792.2754
      -587.0944
  -3543608.31349  -2752598.05047  21119887.4474   21119883.3224
      -275.9064
  -9182919.92849  -7151649.68645  22769974.7134   22769971.4434
      2164.1254
 04  9  7 22 46 15.0020000  0  7G19G 3G 8G13G10G27G28
  -7653368.49548  -5952774.80046  22870924.4004   22870918.7134
      -331.6564
   4424834.97648   3456621.90643  24299635.9864   24299633.5454
     -2708.3284
 -11912736.50549  -9262153.94047  21155338.1194   21155334.9124
       917.0784
   9841543.81349   7666899.00846  22226449.3224   22226445.8734
     -3185.3124
  -3248610.52448  -2527013.01643  23738483.9554   23738482.1864
      -597.6094
  -3539435.90449  -2749346.82547  21120681.1434   21120677.3734
      -280.8124
  -9215339.87849  -7176911.95745  22763805.1434   22763802.3614
      2158.1724
 04  9  7 22 46 30.0020000  0  7G19G 3G 8G13G10G27G28
  -7648325.13948  -5948844.90345  22871884.0334   22871878.9714
      -341.3594
   4465513.94248   3488319.79442  24307376.7294   24307374.8184
     -2715.9064
 -11926463.31349  -9272850.15647  21152725.8544   21152722.2874
       912.6564
   9889368.20849   7704164.74245  22235549.4474   22235546.6584
     -3191.7344
  -3239577.23748  -2519974.09743  23740203.3614   23740201.5184
      -607.2974
  -3535197.46449  -2746044.13347  21121487.7364   21121483.9394
      -284.8124
  -9247677.90049  -7202110.38245  22757651.9244   22757648.4434
      2153.1254
 04  9  7 22 46 45.0020000  0  7G19G 3G 8G13G10G27G28
  -7643137.73849  -5944802.75246  22872871.6274   22872866.2524
      -350.2034
   4506304.11848   3520104.33042  24315138.8934   24315136.5574
     -2722.6094
 -11940126.20549  -9283496.55247  21150125.6664   21150122.3654
       909.1724
   9937286.20749   7741503.41646  22244668.3464   22244665.2714
     -3197.1724
  -3230401.20048  -2512823.95744  23741949.7294   23741947.4554
      -616.0474
  -3530901.14649  -2742696.36247  21122305.4794   21122301.1544
      -287.9064
  -9279941.97649  -7227251.18345  22751511.9714   22751508.5684
      2148.8754
 04  9  7 22 47  0.0020000  0  7G19G 3G 8G13G10G27G28
  -7637805.18949  -5940647.51346  22873886.1274   22873880.6974
      -360.3754
   4547206.11447   3551976.00842  24322922.6664   24322920.0924
     -2730.5004
 -11953724.19749  -9294092.38147  21147538.2134   21147534.8074
       904.3284
   9985298.66349   7778915.70246  22253804.1584   22253801.6154
     -3204.0164
  -3221081.44548  -2505561.81643  23743723.0884   23743720.7524
      -626.0944
  -3526545.82049  -2739302.60447  21123133.9714   21123129.9324
      -292.3914
  -9312130.95749  -7252333.46045  22745386.4004   22745383.4164
      2143.3914
 04  9  7 22 47 15.0020000  0  7G19G 3G 8G13G10G27G28
  -7632331.07448  -5936381.96545  22874927.5804   22874922.3224
      -369.7344
   4588216.06847   3583931.78243  24330726.1824   24330723.8034
     -2737.7194
 -11967260.51749  -9304640.17247  21144962.2834   21144958.7174
       900.2814
  10033401.63649   7816398.52246  22262958.1584   22262955.1744
     -3209.9374
  -3211621.68648  -2498190.59643  23745523.2444   23745520.2214
      -635.3594
  -3522134.89649  -2735865.53247  21123973.4864   21123969.2524
      -295.9844
  -9344248.23649  -7277359.89345  22739274.5964   22739271.0614
      2138.6254
 04  9  7 22 47 30.0020000  0  7G19G 3G 8G13G10G27G28
  -7626709.03249  -5932001.12746  22875997.2914   22875992.1824
      -379.2814
   4629340.12947   3615976.50642  24338552.3614   24338549.9984
     -2744.8594
 -11980728.93049  -9315135.02847  21142399.7214   21142396.4004
       896.0944
  10081601.28749   7853956.66346  22272131.0184   22272127.5414
     -3215.9694
  -3202015.74248  -2490705.43143  23747351.4794   23747348.4044
      -644.8594
  -3517662.10349  -2732380.22847  21124824.5334   21124820.5494
      -299.7194
  -9376287.45449  -7302325.46745  22733177.9244   22733174.4714
      2133.7974
 04  9  7 22 47 45.0020000  0  7G19G 3G 8G13G10G27G28
  -7620945.20849  -5927509.83046  22877094.6354   22877089.1624
      -389.4374
   4670571.74547   3648105.06042  24346398.9944   24346396.5644
     -2752.7504
 -11994135.58649  -9325581.77447  21139848.2684   21139844.9004
       891.2504
  10129891.19149   7891585.13346  22281319.3304   22281316.6744
     -3222.7664
  -3192269.88348  -2483111.28043  23749205.6504   23749203.6704
      -654.7974
  -3513133.51749  -2728851.46447  21125686.1274   21125682.6864
      -304.1564
  -9408254.76949  -7327235.03145  22727094.6894   22727091.3964
      2128.3134
 04  9  7 22 48  0.0020000  0  7G19G 3G 8G13G10G27G28
  -7615036.37249  -5922905.55145  22878219.0184   22878213.3424
      -398.7974
   4711913.94847   3680319.72443  24354265.9714   24354263.4244
     -2759.8444
 -12007476.96849  -9335977.65747  21137309.5644   21137305.3894
       887.2344
  10178274.41049   7929286.32146  22290527.0414   22290523.8734
     -3228.6564
  -3182380.95048  -2475405.64443  23751087.5254   23751084.7954
      -664.0314
  -3508545.81349  -2725276.64247  21126559.5724   21126555.2404
      -307.7974
  -9440146.72949  -7352085.88945  22721025.9944   22721022.2994
      2123.6094
 04  9  7 22 48 15.0020000  0  7G19G 3G 8G13G10G27G28
  -7608983.31249  -5918188.85646  22879370.7294   22879365.0844
      -408.2194
   4753365.61547   3712619.71443  24362152.7444   24362151.5214
     -2766.9224
 -12020753.93149  -9346323.32547  21134782.9084   21134779.7914
       883.0944
  10226749.83248   7967059.35646  22299751.6744   22299748.4364
     -3234.6254
  -3172349.92148  -2467589.25444  23752996.8544   23752994.0884
      -673.3594
  -3503899.74849  -2721656.32447  21127443.4474   21127439.3964
      -311.4844
  -9471964.12249  -7376878.62145  22714971.1824   22714967.4394
      2118.7814
 04  9  7 22 48 30.0020000  0  7G19G 3G 8G13G10G27G28
  -7602785.27248  -5913359.21146  22880550.2444   22880545.0684
      -418.2194
   4794927.23847   3745005.36542  24370062.1114   24370060.5374
     -2774.5474
 -12033965.70249  -9356618.21247  21132268.8304   21132265.4084
       878.4064
  10275317.99649   8004904.66146  22308993.8614   22308990.7604
     -3241.2194
  -3162176.16648  -2459661.66643  23754932.4164   23754929.6974
      -683.2504
  -3499194.54349  -2717989.93047  21128338.7684   21128334.9244
      -315.8284
  -9503706.19449  -7401612.66845  22708930.9944   22708927.1044
      2113.4224
 04  9  7 22 48 45.0020000  0  7G19G 3G 8G13G10G27G28
  -7596449.51749  -5908422.25246  22881755.6824   22881750.3854
      -427.1724
   4836591.10148   3777470.71442  24377991.0724   24377989.0924
     -2781.1874
 -12047119.44249  -9366867.87347  21129765.2364   21129762.0104
       874.9064
  10323971.37549   8042816.35946  22318252.3544   22318249.0534
     -3246.5784
  -3151867.21048  -2451628.72643  23756894.1744   23756891.4084
      -691.9694
  -3494437.43049  -2714283.09047  21129243.8934   21129239.7094
      -319.0164
  -9535380.07649  -7426293.57345  22702903.4394   22702900.1004
      2109.1724
 04  9  7 22 49  0.0020000  0  7G19G 3G 8G13G10G27G28
  -7589966.19849  -5903370.29746  22882989.1194   22882984.3544
      -437.0314
   4878366.76947   3810023.17242  24385941.0184   24385938.7444
     -2788.5944
 -12060205.43949  -9377064.74647  21127275.3384   21127272.0764
       870.2504
  10372719.65849   8080802.02746  22327528.6894   22327525.5294
     -3252.9374
  -3141413.20048  -2443482.76443  23758883.8544   23758880.8424
      -701.6254
  -3489618.44349  -2710528.03947  21130160.6824   21130157.3734
      -323.1874
  -9566975.72049  -7450913.51745  22696890.6894   22696887.4434
      2103.8754
 04  9  7 22 49 15.0020000  0  7G19G 3G 8G13G10G27G28
  -7583332.94449  -5898201.52145  22884252.0024   22884246.4084
      -447.1874
   4920256.22747   3842664.29342  24393911.2604   24393910.0494
     -2796.2974
 -12073220.96549  -9387206.70947  21124798.8934   21124795.1664
       865.4224
  10421564.72648   8118863.08446  22336824.0574   22336821.1044
     -3259.5004
  -3130811.94648  -2435222.06043  23760900.4474   23760898.2054
      -711.5944
  -3484735.28249  -2706722.98147  21131090.3074   21131086.8344
      -327.6564
  -9598490.87749  -7475470.74645  22690893.6664   22690890.1974
      2098.4064
 04  9  7 22 49 30.0020000  0  7G19G 3G 8G13G10G27G28
  -7576558.67448  -5892922.85846  22885540.6824   22885535.7484
      -456.5624
   4962250.36347   3875386.95442  24401902.5964   24401900.9004
     -2803.2974
 -12086175.08349  -9397300.82647  21122333.8774   21122330.4634
       861.3594
  10470497.63648   8156992.59546  22346135.7604   22346132.4674
     -3265.3444
  -3120072.46648  -2426853.62843  23762944.2524   23762942.0534
      -720.8284
  -3479796.62149  -2702874.67847  21132029.9394   21132026.2484
      -331.3594
  -9629934.23049  -7499972.02845  22684910.1664   22684907.0534
      2093.5474
 04  9  7 22 49 45.0020000  0  7G19G 3G 8G13G10G27G28
  -7569634.66548  -5887527.52345  22886858.2444   22886853.3544
      -466.3914
   5004357.65747   3908197.83942  24409915.2214   24409913.5844
     -2810.7194
 -12099058.96249  -9407340.21047  21119882.1894   21119878.5884
       856.7814
  10519526.83348   8195197.14146  22355465.0804   22355462.0684
     -3271.5784
  -3109186.24448  -2418370.87243  23765016.5104   23765013.8734
      -730.3914
  -3474793.89749  -2698976.46347  21132982.3224   21132978.2054
      -335.4224
  -9661297.01749  -7524410.53645  22678942.1504   22678938.6154
      2088.3914
 04  9  7 22 50  0.0020000  0  7G19G 3G 8G13G10G27G28
  -7562567.89149  -5882020.92845  22888203.1114   22888197.9044
      -476.1414
   5046570.63047   3941091.05142  24417947.7444   24417945.9984
     -2817.9374
 -12111879.40249  -9417330.14947  21117442.1824   21117438.5844
       852.3594
  10568644.98349   8233470.98846  22364812.1744   22364808.9944
     -3277.7664
  -3098160.41548  -2409779.34044  23767114.6274   23767111.8544
      -739.9694
  -3469733.99949  -2695033.67547  21133944.9244   21133941.5644
      -339.4694
  -9692586.16549  -7548791.65245  22672987.6504   22672984.4754
      2083.2344
 04  9  7 22 50 15.0020000  0  7G19G 3G 8G13G10G27G28
  -7555355.08449  -5876400.55446  22889575.4394   22889570.2014
      -485.5314
   5088892.22847   3974068.88442  24426001.7914   24425999.9984
     -2824.9064
 -12124633.20249  -9427268.16947  21115015.3694   21115011.5254
       848.2034
  10617855.09548   8271816.52046  22374176.5884   22374173.2134
     -3283.5004
  -3086991.79748  -2401076.52043  23769239.3384   23769237.3854
      -749.0624
  -3464613.60249  -2691043.76047  21134919.5184   21134915.0614
      -343.2504
  -9723798.39849  -7573112.83345  22667048.4554   22667045.0414
      2078.4064
 04  9  7 22 50 30.0020000  0  7G19G 3G 8G13G10G27G28
  -7547997.04148  -5870666.99945  22890976.0574   22890970.3694
      -495.4064
   5131321.49847   4007130.65542  24434075.8224   24434074.0574
     -2832.2034
 -12137321.06449  -9437154.81647  21112600.7994   21112596.9554
       843.5944
  10667156.22948   8310232.94945  22383558.4324   22383555.2254
     -3289.7814
  -3075681.36348  -2392263.21943  23771391.5644   23771389.6274
      -758.7504
  -3459433.25849  -2687007.13147  21135905.1504   21135901.0574
      -347.3284
  -9754934.45249  -7597374.66945  22661123.6354   22661120.3694
      2073.1724
 04  9  7 22 50 45.0020000  0  7G19G 3G 8G13G10G27G28
  -7540493.01448  -5864819.68645  22892404.0104   22892398.6624
      -505.4374
   5173858.98147   4040276.72342  24442171.5644   24442169.0294
     -2839.7974
 -12149942.02149  -9446989.31647  21110199.2134   21110195.5454
       838.8284
  10716548.87548   8348720.69945  22392957.5104   22392954.3734
     -3296.2194
  -3064228.41648  -2383338.83543  23773571.3144   23773569.3114
      -768.6254
  -3454192.32149  -2682923.26747  21136902.4794   21136898.7254
      -351.7344
  -9785993.49949  -7621576.48545  22655213.1274   22655209.6504
      2067.7664
 04  9  7 22 51  0.0020000  0  7G19G 3G 8G13G10G27G28
  -7532840.44349  -5858856.64646  22893860.1114   22893854.6974
      -515.0164
   5216506.73847   4073508.71442  24450285.7994   24450284.2754
     -2846.6874
 -12162493.68249  -9456769.83747  21107810.4554   21107806.7294
       834.6724
  10766035.27048   8387281.51645  22402374.4554   22402371.2364
     -3301.9694
  -3052630.67648  -2374301.64743  23775778.6744   23775776.3264
      -777.8124
  -3448888.16849  -2678790.17047  21137911.6114   21137907.4984
      -355.5944
  -9816972.81549  -7645716.17945  22649317.6664   22649314.7714
      2062.7814
 04  9  7 22 51 15.0020000  0  7G19G 3G 8G13G10G27G28
  -7525043.42349  -5852781.03746  22895343.7604   22895338.2914
      -524.9224
   5259260.44547   4106823.26842  24458422.3304   24458420.0644
     -2853.9694
 -12174979.91449  -9466499.36347  21105434.8614   21105430.9204
       829.9844
  10815611.25748   8425912.12145  22411808.4474   22411805.6824
     -3308.2344
  -3040892.25548  -2365154.83143  23778012.5334   23778009.5024
      -787.5624
  -3443524.68849  -2674610.83647  21138932.7294   21138928.5534
      -359.8124
  -9847876.29049  -7669796.76945  22643436.9324   22643433.9594
      2057.5004
 04  9  7 22 51 30.0020000  0  7G19G 3G 8G13G10G27G28
  -7517103.23749  -5846593.86746  22896854.2134   22896848.7794
      -533.8754
   5302118.51447   4140219.16142  24466577.4164   24466575.8074
     -2860.3754
 -12187401.65649  -9476178.62947  21103070.8854   21103067.0454
       826.1884
  10865275.21648   8464611.27745  22421259.0414   22421256.1114
     -3313.6564
  -3029014.62048  -2355899.54444  23780272.9164   23780269.2994
      -796.2034
  -3438103.26248  -2670386.35647  21139964.3384   21139959.8774
      -363.1094
  -9878705.21049  -7693819.27545  22637570.4714   22637566.9204
      2052.9844
 04  9  7 22 51 45.0020000  0  7G19G 3G 8G13G10G27G28
  -7509016.56049  -5840292.54746  22898393.7914   22898388.0064
      -543.8124
   5345083.86047   4173698.65142  24474753.7754   24474751.9514
     -2867.8124
 -12199755.86049  -9485805.27647  21100719.7054   21100715.9824
       821.5474
  10915030.16648   8503381.34745  22430727.1584   22430723.7604
     -3319.8594
  -3016994.67048  -2346533.35243  23782559.6664   23782557.5614
      -806.0004
  -3432620.48249  -2666114.05147  21141007.4864   21141003.2834
      -367.3594
  -9909456.17449  -7717781.02745  22631718.7364   22631715.1114
      2047.5944
 04  9  7 22 52  0.0020000  0  7G19G 3G 8G13G10G27G28
  -7500786.60949  -5833879.59445  22899959.4394   22899954.1004
      -553.7344
   5388153.11947   4207259.07742  24482950.3614   24482947.8304
     -2875.0004
 -12212045.58749  -9495381.68647  21098381.1744   21098377.4714
       816.9224
  10964872.80148   8542219.74145  22440212.0724   22440208.9824
     -3326.0314
  -3004835.61748  -2337058.77143  23784873.6664   23784871.0294
      -815.4694
  -3427079.40049  -2661796.32147  21142062.2834   21142057.9864
      -371.6254
  -9940132.39049  -7741684.54445  22625881.6114   22625877.3854
      2042.3284
 04  9  7 22 52 15.0020000  0  7G19G 3G 8G13G10G27G28
  -7492406.56349  -5827349.68946  22901554.5574   22901549.0924
      -563.7344
   5431332.71247   4240905.51242  24491166.6274   24491164.6464
     -2882.3444
 -12224264.17649  -9504902.65647  21096056.1744   21096052.6434
       812.1564
  11014809.50848   8581131.42145  22449714.4474   22449711.8074
     -3332.2344
  -2992530.87047  -2327470.66843  23787214.8224   23787212.6504
      -825.1724
  -3421473.15449  -2657427.81747  21143128.9004   21143125.0844
      -375.9694
  -9970726.92149  -7765524.40845  22620059.1584   22620055.6434
      2036.8444
 04  9  7 22 52 30.0020000  0  7G19G 3G 8G13G10G27G28
  -7483880.30849  -5820705.83646  22903176.6434   22903171.7254
      -573.4064
   5474618.48347   4274634.66842  24499403.7444   24499401.4004
     -2889.4064
 -12236415.23849  -9514371.01847  21093744.1664   21093740.2324
       807.7194
  11064836.21248   8620113.24145  22459234.5334   22459231.6544
     -3338.2504
  -2980084.40347  -2317772.12243  23789583.7444   23789581.4284
      -834.6414
  -3415805.63949  -2653011.56647  21144207.2054   21144203.4634
      -380.0314
 -10001243.60449  -7789303.59845  22614252.2684   22614248.5724
      2031.7504
 04  9  7 22 52 45.0020000  0  7G19G 3G 8G13G10G27G28
  -7475213.68349  -5813952.62745  22904825.9004   22904820.3734
      -582.2974
   5518004.27847   4308441.80742  24507659.6974   24507657.7174
     -2895.6414
 -12248504.23149  -9523791.00447  21091443.4474   21091439.8144
       803.9844
  11114946.83748   8659160.45245  22468770.2994   22468766.9674
     -3343.3444
  -2967502.21948  -2307967.84743  23791977.8854   23791975.5804
      -843.2034
  -3410082.57749  -2648552.04547  21145296.0254   21145292.6434
      -383.2814
 -10031688.16949  -7813026.59945  22608458.8694   22608455.2954
      2027.3594
 04  9  7 22 53  0.0020000  0  7G19G 3G 8G13G10G27G28
  -7466405.90449  -5807089.40445  22906501.8614   22906496.5884
      -592.1254
   5561490.56447   4342327.16642  24515935.4944   24515932.8344
     -2902.6094
 -12260530.43349  -9533162.06347  21089155.1894   21089151.2604
       799.5004
  11165141.91848   8698273.47045  22478322.0644   22478318.9284
     -3349.2814
  -2954783.65248  -2298057.28443  23794398.0724   23794395.9754
      -852.6414
  -3404303.04149  -2644048.50747  21146396.3694   21146392.6894
      -387.4374
 -10062059.69149  -7836692.67845  22602679.2134   22602675.7134
      2022.1564
 04  9  7 22 53 15.0020000  0  7G19G 3G 8G13G10G27G28
  -7457445.47349  -5800107.24746  22908206.9714   22908201.8934
      -602.1724
   5605088.56047   4376299.63242  24524231.4864   24524228.6194
     -2909.9374
 -12272482.39549  -9542475.27747  21086880.5724   21086876.7174
       794.6094
  11215432.68148   8737461.05145  22487891.9004   22487888.8504
     -3355.5624
  -2941917.39648  -2288031.61843  23796847.1274   23796843.9244
      -862.4534
  -3398455.51549  -2639491.99247  21147508.5964   21147504.8694
      -391.8284
 -10092346.65849  -7860292.89045  22596915.6434   22596911.7754
      2016.6414
 04  9  7 22 53 30.0020000  0  7G19G 3G 8G13G10G27G28
  -7448341.68549  -5793013.38946  22909940.0644   22909934.1704
      -611.4694
   5648788.58747   4410351.61042  24532547.2444   24532544.1394
     -2916.5474
 -12284369.44649  -9551737.90647  21084618.5024   21084615.0764
       790.5944
  11265809.57248   8776715.76045  22497478.4084   22497475.4394
     -3361.0784
  -2928912.89948  -2277898.26643  23799320.9164   23799318.6864
      -871.2504
  -3392549.29649  -2634889.74347  21148632.6974   21148629.1584
      -395.4844
 -10122558.31849  -7883834.39645  22591166.4634   22591162.8574
      2011.8134
 04  9  7 22 53 45.0020000  0  7G19G 3G 8G13G10G27G28
  -7439092.61749  -5785806.31046  22911699.6194   22911694.3114
      -621.9224
   5692592.40947   4444484.46743  24540883.3544   24540880.3694
     -2924.1094
 -12296189.28149  -9560948.16447  21082369.1744   21082365.5574
       785.2974
  11316274.48248   8816039.03745  22507081.5254   22507078.5454
     -3367.7504
  -2915768.36748  -2267655.80143  23801822.4944   23801819.6894
      -881.5004
  -3386582.25149  -2630240.09847  21149768.0884   21149764.1504
      -400.2974
 -10152692.52849  -7907315.58145  22585431.8774   22585428.5684
      2005.9064
 04  9  7 22 54  0.0020000  0  7G19G 3G 8G13G10G27G28
  -7429692.77949  -5778481.76846  22913488.3614   22913482.9824
      -632.2034
   5736505.14647   4478702.12042  24549239.0414   24549236.3934
     -2931.6874
 -12307936.43449  -9570101.79447  21080134.0104   21080130.0534
       780.2194
  11366832.60348   8855434.94645  22516702.8934   22516699.3934
     -3374.0624
  -2902478.52647  -2257300.09243  23804351.4004   23804348.8734
      -891.3594
  -3380548.90449  -2625538.79347  21150916.5494   21150912.3114
      -404.9374
 -10182743.69649  -7930732.03745  22579713.6114   22579709.9394
      2000.1414
 04  9  7 22 54 15.0020000  0  7G19G 3G 8G13G10G27G28
  -7420146.61449  -5771043.17546  22915304.9324   22915299.8184
      -641.2194
   5780522.09847   4513001.08942  24557615.4474   24557612.4794
     -2938.0004
 -12319615.24849  -9579202.14847  21077911.2604   21077907.9754
       776.2814
  11417479.14948   8894899.75945  22526340.3384   22526337.5804
     -3379.4064
  -2889047.90448  -2246834.70343  23806907.2054   23806904.7714
      -900.0474
  -3374453.46849  -2620789.10347  21152076.3464   21152072.5104
      -408.3914
 -10212716.18049  -7954087.20145  22574010.4944   22574006.3894
      1995.5474
 04  9  7 22 54 30.0020000  0  7G19G 3G 8G13G10G27G28
  -7410456.70049  -5763492.58746  22917148.7214   22917143.7444
      -650.7344
   5824640.35447   4547378.91143  24566009.9944   24566008.2564
     -2944.5624
 -12331228.26249  -9588251.24547  21075701.7364   21075698.3344
       772.0164
  11468211.25148   8934431.25145  22535993.8304   22535990.9244
     -3384.9534
  -2875479.26348  -2236261.73943  23809489.2914   23809486.4084
      -909.1414
  -3368298.62749  -2615993.12847  21153247.5254   21153243.2324
      -412.2504
 -10242612.68649  -7977383.14745  22568320.5804   22568317.1624
      1990.5784
 04  9  7 22 54 45.0020000  0  7G19G 3G 8G13G10G27G28
  -7400618.91449  -5755826.78746  22919020.9244   22919015.6004
      -660.7504
   5868863.73646   4581838.67742  24574426.0964   24574424.0534
     -2951.7034
 -12342770.98849  -9597245.57847  21073505.1434   21073501.5184
       767.2974
  11519033.05048   8974032.62945  22545665.7834   22545662.4284
     -3391.0474
  -2861768.46048  -2225578.01143  23812098.4864   23812095.2684
      -918.7344
  -3362080.02649  -2611147.47747  21154430.8464   21154426.6194
      -416.6564
 -10272428.73249  -8000616.41445  22562647.0334   22562643.4084
      1985.1564
 04  9  7 22 55  0.0020000  0  7G19G 3G 8G13G10G27G28
  -7390632.92149  -5748045.48646  22920921.3464   22920915.7484
      -670.8594
   5913192.29346   4616380.43442  24582861.8224   24582859.6234
     -2958.8914
 -12354243.18349  -9606184.94647  21071321.8854   21071318.0844
       762.2664
  11569944.48348   9013703.85045  22555353.5884   22555350.6354
     -3397.1874
  -2847915.44448  -2214783.47043  23814734.4244   23814731.6044
      -928.4694
  -3355797.31149  -2606251.84547  21155626.4244   21155621.9514
      -421.1724
 -10302163.96949  -8023786.68745  22556988.3614   22556984.7214
      1979.4534
 04  9  7 22 55 15.0020000  0  7G19G 3G 8G13G10G27G28
  -7380499.31149  -5740149.16546  22922849.4794   22922844.2644
      -680.6724
   5957625.22446   4651003.47042  24591316.9084   24591314.9794
     -2965.9224
 -12365645.33049  -9615069.72447  21069152.1504   21069148.0724
       757.6094
  11620944.83648   9053444.34345  22565058.6504   22565055.4674
     -3403.1564
  -2833920.91048  -2203878.62943  23817397.6274   23817395.1584
      -937.9064
  -3349450.99749  -2601306.66047  21156834.2604   21156830.3894
      -425.4374
 -10331818.89449  -8046894.38845  22551345.4004   22551341.9044
      1974.0634
 04  9  7 22 55 30.0020000  0  7G19G 3G 8G13G10G27G28
  -7370216.35349  -5732136.46846  22924806.7914   22924801.2254
      -690.5314
   6002163.92146   4685708.91442  24599792.4244   24599790.1784
     -2972.7504
 -12376975.73749  -9623898.60647  21066995.8384   21066991.9394
       753.0004
  11672035.48549   9093255.22545  22574781.1974   22574778.5644
     -3409.0784
  -2819783.39747  -2192862.41043  23820087.6504   23820085.4164
      -947.2344
  -3343039.22449  -2596310.48947  21158054.1584   21158050.2294
      -429.6724
 -10361391.71849  -8069938.12045  22545718.0494   22545714.6234
      1968.8134
 04  9  7 22 55 45.0020000  0  7G19G 3G 8G13G10G27G28
  -7359786.18449  -5724009.05846  22926790.7604   22926786.0144
      -700.3914
   6046805.95346   4720494.89542  24608288.0494   24608285.3654
     -2979.6564
 -12388236.24949  -9632673.02847  21064853.1744   21064849.3504
       748.1884
  11723214.14948   9133134.68345  22584519.5724   22584517.2754
     -3415.0474
  -2805504.94848  -2181736.33943  23822804.9084   23822802.1934
      -956.7664
  -3336564.05849  -2591264.90247  21159285.8544   21159282.6824
      -433.9064
 -10390884.32749  -8092919.34445  22540105.3384   22540101.8224
      1963.3284
 04  9  7 22 56  0.0020000  0  7G19G 3G 8G13G10G27G28
  -7349208.63649  -5715766.81445  22928803.9474   22928798.6824
      -709.9844
   6091551.15047   4755361.26043  24616802.9004   24616800.3504
     -2986.3444
 -12399426.72649  -9641392.87547  21062723.9554   21062720.7014
       743.8284
  11774480.71348   9173082.63945  22594275.6894   22594272.9944
     -3420.6094
  -2791085.71247  -2170500.59843  23825549.1274   23825546.6314
      -965.8284
  -3330025.20849  -2586169.69547  21160530.7294   21160526.5184
      -437.9374
 -10420296.62649  -8115837.98445  22534508.5184   22534504.9984
      1958.2504
